[[{"header":{"parameterUnit":"m.s-1","parameterCategory":1,"la1":30.6,"la2":28.766,"lo1":-90.7593,"lo2":-88.6598,"dy":0.0162,"dx":0.0183,"nx":116,"ny":114,"refTime":"2023-07-11T12:00:00:Z","depth":0,"parameterNumber":2,"parameterNumberName":"U-component_of_WINDS"},"data":[0.0,0.0,0.0,0.0,0.0,0.0,0.0,0.0,0.0,0.0,0.0,0.0,0.0,0.0,0.0,0.0,0.0,0.0,0.0,0.0,0.0,0.0,0.0,0.0,0.0,0.0,0.0,0.0,0.0,0.0,0.0,0.0,0.0,0.0,0.0,0.0,0.0,0.0,0.0,0.0,0.0,0.0,0.0,0.0,0.0,0.0,0.0,0.0,0.0,0.0,0.0,0.0,0.0,0.0,0.0,0.0,0.0,0.0,0.0,0.0,0.0,0.0,0.0,0.0,0.0,0.0,0.0,0.0,0.0,0.0,0.0,0.0,0.0,0.0,0.0,0.0,0.0,0.0,0.0,0.0,0.0,0.0,0.0,0.0,0.0,0.0,0.0,0.0,0.0,0.0,0.0,0.0,0.0,0.0,0.0,0.0,0.0,0.0,0.0,0.0,0.0,0.0,0.0,0.0,0.0,0.0,0.0,0.0,0.0,0.0,0.0,0.0,0.0,0.0,0.0,0.0,0.0,0.0,0.0,0.0,0.0,0.0,0.0,0.0,0.0,0.0,0.0,0.0,0.0,0.0,0.0,0.0,0.0,0.0,0.0,0.0,0.0,0.0,0.0,0.0,0.0,0.0,0.0,0.0,0.0,0.0,0.0,0.0,0.0,0.0,0.0,0.0,0.0,0.0,0.0,0.0,0.0,0.0,0.0,0.0,0.0,0.0,0.0,0.0,0.0,0.0,0.0,0.0,0.0,0.0,0.0,0.0,0.0,0.0,0.0,0.0,0.0,0.0,0.0,0.0,0.0,0.0,0.0,0.0,0.0,0.0,0.0,0.0,0.0,0.0,0.0,0.0,0.0,0.0,0.0,0.0,0.0,0.0,0.0,0.0,0.0,0.0,0.0,0.0,0.0,0.0,0.0,0.0,0.0,0.0,0.0,0.0,0.0,0.0,0.0,0.0,0.0,0.0,0.0,0.0,0.0,0.0,0.0,0.0,0.0,0.0,0.0,0.0,0.0,0.0,0.0,0.0,0.0,0.0,0.0,0.0,0.0,0.0,0.0,0.0,0.0,0.0,0.0,0.0,0.0,0.0,0.0,0.0,0.0,0.0,0.0,0.0,0.0,0.0,0.0,0.0,0.0,0.0,0.0,0.0,0.0,0.0,0.0,0.0,0.0,0.0,0.0,0.0,0.0,0.0,0.0,0.0,0.0,0.0,0.0,0.0,0.0,0.0,0.0,0.0,0.0,0.0,0.0,0.0,0.0,0.0,0.0,0.0,0.0,0.0,0.0,0.0,0.0,0.0,0.0,0.0,0.0,0.0,0.0,0.0,0.0,0.0,0.0,0.0,0.0,0.0,0.0,0.0,0.0,0.0,0.0,0.0,0.0,0.0,0.0,0.0,0.0,0.0,0.0,0.0,0.0,0.0,0.0,0.0,0.0,0.0,0.0,0.0,0.0,0.0,0.0,0.0,0.0,0.0,0.0,0.0,0.0,0.0,0.0,0.0,0.0,0.0,0.0,0.0,0.0,0.0,0.0,0.0,0.0,0.0,0.0,0.0,0.0,0.0,0.0,0.0,0.0,0.0,0.0,0.0,0.0,0.0,0.0,0.0,0.0,0.0,0.0,0.0,0.0,0.0,0.0,0.0,0.0,0.0,0.0,0.0,0.0,0.0,0.0,0.0,0.0,0.0,0.0,0.0,0.0,0.0,0.0,0.0,0.0,0.0,0.0,0.0,0.0,0.0,0.0,0.0,0.0,0.0,0.0,0.0,0.0,0.0,0.0,0.0,0.0,0.0,0.0,0.0,0.0,0.0,0.0,0.0,0.0,0.0,0.0,0.0,0.0,0.0,0.0,0.0,0.0,0.0,0.0,0.0,0.0,0.0,0.0,0.0,0.0,0.0,0.0,0.0,0.0,0.0,0.0,0.0,0.0,0.0,0.0,0.0,0.0,0.0,0.0,0.0,0.0,0.0,0.0,0.0,0.0,0.0,0.0,0.0,0.0,0.0,0.0,0.0,0.0,0.0,0.0,0.0,0.0,0.0,0.0,0.0,0.0,0.0,0.0,0.0,0.0,0.0,0.0,0.0,0.0,0.0,0.0,0.0,0.0,0.0,0.0,0.0,0.0,0.0,0.0,0.0,0.0,0.0,0.0,0.0,0.0,0.0,0.0,0.0,0.0,0.0,0.0,0.0,0.0,0.0,0.0,0.0,0.0,0.0,0.0,0.0,0.0,0.0,0.0,0.0,0.0,0.0,0.0,0.0,0.0,0.0,0.0,0.0,0.0,0.0,0.0,0.0,0.0,0.0,0.0,0.0,0.0,0.0,0.0,0.0,0.0,0.0,0.0,0.0,0.0,0.0,0.0,0.0,0.0,0.0,0.0,0.0,0.0,0.0,0.0,0.0,0.0,0.0,0.0,0.0,0.0,0.0,0.0,0.0,0.0,0.0,0.0,0.0,0.0,0.0,0.0,0.0,0.0,0.0,0.0,0.0,0.0,0.0,0.0,0.0,0.0,0.0,0.0,0.0,0.0,0.0,0.0,0.0,0.0,0.0,0.0,0.0,0.0,0.0,0.0,0.0,0.0,0.0,0.0,0.0,0.0,0.0,0.0,0.0,0.0,0.0,0.0,0.0,0.0,0.0,0.0,0.0,0.0,0.0,0.0,0.0,0.0,0.0,0.0,0.0,0.0,0.0,0.0,0.0,0.0,0.0,0.0,0.0,0.0,0.0,0.0,0.0,0.0,0.0,0.0,0.0,0.0,0.0,0.0,0.0,0.0,0.0,0.0,0.0,0.0,0.0,0.0,0.0,0.0,0.0,0.0,0.0,0.0,0.0,0.0,0.0,0.0,0.0,0.0,0.0,0.0,0.0,0.0,0.0,0.0,0.0,0.0,0.0,0.0,0.0,0.0,0.0,0.0,0.0,0.0,0.0,0.0,0.0,0.0,0.0,0.0,0.0,0.0,0.0,0.0,0.0,0.0,0.0,0.0,0.0,0.0,0.0,0.0,0.0,0.0,0.0,0.0,0.0,0.0,0.0,0.0,0.0,0.0,0.0,0.0,0.0,0.0,0.0,0.0,0.0,0.0,0.0,0.0,0.0,0.0,0.0,0.0,0.0,0.0,0.0,0.0,0.0,0.0,0.0,0.0,0.0,0.0,0.0,0.0,0.0,0.0,0.0,0.0,0.0,0.0,0.0,0.0,0.0,0.0,0.0,0.0,0.0,0.0,0.0,0.0,0.0,0.0,0.0,0.0,0.0,0.0,0.0,0.0,0.0,0.0,0.0,0.0,0.0,0.0,0.0,0.0,0.0,0.0,0.0,0.0,0.0,0.0,0.0,0.0,0.0,0.0,0.0,0.0,0.0,0.0,0.0,0.0,0.0,0.0,0.0,0.0,0.0,0.0,0.0,0.0,0.0,0.0,0.0,0.0,0.0,0.0,0.0,0.0,0.0,0.0,0.0,0.0,0.0,0.0,0.0,0.0,0.0,0.0,0.0,0.0,0.0,0.0,0.0,0.0,0.0,0.0,0.0,0.0,0.0,0.0,0.0,0.0,0.0,0.0,0.0,0.0,0.0,0.0,0.0,0.0,0.0,0.0,0.0,0.0,0.0,0.0,0.0,0.0,0.0,0.0,0.0,0.0,0.0,0.0,0.0,0.0,0.0,0.0,0.0,0.0,0.0,0.0,0.0,0.0,0.0,0.0,0.0,0.0,0.0,0.0,0.0,0.0,0.0,0.0,0.0,0.0,0.0,0.0,0.0,0.0,0.0,0.0,0.0,0.0,0.0,0.0,0.0,0.0,0.0,0.0,0.0,0.0,0.0,0.0,0.0,0.0,0.0,0.0,0.0,0.0,0.0,0.0,0.0,0.0,0.0,0.0,0.0,0.0,0.0,0.0,0.0,0.0,0.0,0.0,0.0,0.0,0.0,0.0,0.0,0.0,0.0,0.0,0.0,0.0,0.0,0.0,0.0,0.0,0.0,0.0,0.0,0.0,0.0,0.0,0.0,0.0,0.0,0.0,0.0,0.0,0.0,0.0,0.0,0.0,0.0,0.0,0.0,0.0,0.0,0.0,0.0,0.0,0.0,0.0,0.0,0.0,0.0,0.0,0.0,0.0,0.0,0.0,0.0,0.0,0.0,0.0,0.0,0.0,0.0,0.0,0.0,0.0,0.0,0.0,0.0,0.0,0.0,0.0,0.0,0.0,0.0,0.0,0.0,0.0,0.0,0.0,0.0,0.0,0.0,0.0,0.0,0.0,0.0,0.0,0.0,0.0,0.0,0.0,0.0,0.0,0.0,0.0,0.0,0.0,0.0,0.0,0.0,0.0,0.0,0.0,0.0,0.0,0.0,0.0,0.0,0.0,0.0,0.0,0.0,0.0,0.0,0.0,0.0,0.0,0.0,0.0,0.0,0.0,0.0,0.0,0.0,0.0,0.0,0.0,0.0,0.0,0.0,0.0,0.0,0.0,0.0,0.0,0.0,0.0,0.0,0.0,0.0,0.0,0.0,0.0,0.0,0.0,0.0,0.0,0.0,0.0,0.0,0.0,0.0,0.0,0.0,0.0,0.0,0.0,0.0,0.0,0.0,0.0,0.0,0.0,0.0,0.0,0.0,0.0,0.0,0.0,0.0,0.0,0.0,0.0,0.0,0.0,0.0,0.0,0.0,0.0,0.0,0.0,0.0,0.0,0.0,0.0,0.0,0.0,0.0,0.0,0.0,0.0,0.0,0.0,0.0,0.0,0.0,0.0,0.0,0.0,0.0,0.0,0.0,0.0,0.0,0.0,0.0,0.0,0.0,0.0,0.0,0.0,0.0,0.0,0.0,0.0,0.0,0.0,0.0,0.0,0.0,0.0,0.0,0.0,0.0,0.0,0.0,0.0,0.0,0.0,0.0,0.0,0.0,0.0,0.0,0.0,0.0,0.0,0.0,0.0,0.0,0.0,0.0,0.0,0.0,0.0,0.0,0.0,0.0,0.0,0.0,0.0,0.0,0.0,0.0,0.0,0.0,0.0,0.0,0.0,0.0,0.0,0.0,0.0,0.0,0.0,0.0,0.0,0.0,0.0,0.0,0.0,0.0,0.0,0.0,0.0,0.0,0.0,0.0,0.0,0.0,0.0,0.0,0.0,0.0,0.0,0.0,0.0,0.0,0.0,0.0,0.0,0.0,0.0,0.0,0.0,0.0,0.0,0.0,0.0,0.0,0.0,0.0,0.0,0.0,0.0,0.0,0.0,0.0,0.0,0.0,0.0,0.0,0.0,0.0,0.0,0.0,0.0,0.0,0.0,0.0,0.0,0.0,0.0,0.0,0.0,0.0,0.0,0.0,0.0,0.0,0.0,0.0,0.0,0.0,0.0,0.0,0.0,0.0,0.0,0.0,0.0,0.0,0.0,0.0,0.0,0.0,0.0,0.0,0.0,0.0,0.0,0.0,0.0,0.0,0.0,0.0,0.0,0.0,0.0,0.0,0.0,0.0,0.0,0.0,0.0,0.0,0.0,0.0,0.0,0.0,0.0,0.0,0.0,0.0,0.0,0.0,0.0,0.0,0.0,0.0,0.0,0.0,0.0,0.0,0.0,0.0,0.0,0.0,0.0,0.0,0.0,0.0,0.0,0.0,0.0,0.0,0.0,0.0,0.0,0.0,0.0,0.0,0.0,0.0,0.0,0.0,0.0,0.0,0.0,0.0,0.0,0.0,0.0,0.0,0.0,0.0,0.0,0.0,0.0,0.0,0.0,0.0,0.0,0.0,0.0,0.0,0.0,0.0,0.0,0.0,0.0,0.0,0.0,0.0,0.0,0.0,0.0,0.0,0.0,0.0,0.0,0.0,0.0,0.0,0.0,0.0,0.0,0.0,0.0,0.0,0.0,0.0,0.0,0.0,0.0,0.0,0.0,0.0,0.0,0.0,0.0,0.0,0.0,0.0,0.0,0.0,0.0,0.0,0.0,0.0,0.0,0.0,0.0,0.0,0.0,0.0,0.0,0.0,0.0,0.0,0.0,0.0,0.0,0.0,0.0,0.0,0.0,0.0,0.0,0.0,0.0,0.0,0.0,0.0,0.0,0.0,0.0,0.0,0.0,0.0,-1.4117,0.0,0.0,0.0,0.0,0.0,0.0,0.0,0.0,0.0,0.0,0.0,0.0,0.0,0.0,0.0,0.0,0.0,0.0,0.0,0.0,0.0,0.0,0.0,0.0,0.0,0.0,0.0,0.0,0.0,0.0,0.0,0.0,0.0,0.0,0.0,0.0,0.0,0.0,0.0,0.0,0.0,0.0,0.0,0.0,0.0,0.0,0.0,0.0,0.0,0.0,0.0,0.0,0.0,0.0,0.0,0.0,0.0,0.0,0.0,0.0,0.0,0.0,0.0,0.0,0.0,0.0,0.0,0.0,0.0,0.0,0.0,0.0,0.0,0.0,0.0,0.0,0.0,0.0,0.0,0.0,0.0,0.0,0.0,0.0,0.0,0.0,0.0,0.0,0.0,0.0,0.0,0.0,0.0,0.0,0.0,0.0,0.0,0.0,0.0,0.0,0.0,0.0,0.0,0.0,0.0,0.0,0.0,0.0,0.0,0.0,0.0,0.0,0.0,0.0,0.0,0.0,-1.5137,0.0,0.0,0.0,0.0,0.0,0.0,0.0,0.0,0.0,0.0,0.0,0.0,0.0,0.0,0.0,0.0,0.0,0.0,0.0,0.0,0.0,0.0,0.0,0.0,0.0,0.0,0.0,0.0,0.0,0.0,0.0,0.0,0.0,0.0,0.0,0.0,0.0,0.0,0.0,0.0,0.0,0.0,0.0,0.0,0.0,0.0,0.0,0.0,0.0,0.0,0.0,0.0,0.0,0.0,0.0,0.0,0.0,0.0,0.0,0.0,0.0,0.0,0.0,0.0,0.0,0.0,0.0,0.0,0.0,0.0,0.0,0.0,0.0,0.0,0.0,0.0,0.0,0.0,0.0,0.0,0.0,0.0,0.0,0.0,0.0,0.0,0.0,0.0,0.0,0.0,0.0,0.0,0.0,0.0,0.0,0.0,0.0,0.0,0.0,0.0,0.0,0.0,0.0,0.0,0.0,0.0,0.0,0.0,-1.7907,-1.8214,-1.8648,-1.8142,-1.7925,-1.7854,-1.6896,-1.6318,-1.6023,-1.5897,0.0,0.0,0.0,0.0,0.0,0.0,0.0,0.0,0.0,0.0,0.0,0.0,0.0,0.0,0.0,0.0,0.0,0.0,0.0,0.0,0.0,0.0,0.0,0.0,0.0,0.0,0.0,0.0,0.0,0.0,0.0,0.0,0.0,0.0,0.0,0.0,0.0,0.0,0.0,0.0,0.0,0.0,0.0,0.0,0.0,0.0,0.0,0.0,0.0,0.0,0.0,0.0,0.0,0.0,0.0,0.0,0.0,0.0,0.0,0.0,0.0,0.0,0.0,0.0,0.0,0.0,0.0,0.0,0.0,0.0,0.0,0.0,0.0,0.0,0.0,0.0,0.0,0.0,0.0,0.0,0.0,0.0,0.0,0.0,0.0,0.0,-0.6855,-0.5536,0.0,0.0,0.0,0.0,0.0,0.0,0.0,0.0,0.0,0.0,0.0,0.0,0.0,-1.839,-1.8331,-1.8481,-1.8669,-1.8793,-1.8939,-1.9208,-1.9595,-1.9075,-1.8807,-1.8769,-1.8182,0.0,-1.6528,-1.58,0.0,0.0,0.0,0.0,0.0,0.0,0.0,0.0,0.0,0.0,0.0,0.0,0.0,0.0,0.0,0.0,0.0,0.0,0.0,0.0,0.0,0.0,0.0,0.0,0.0,0.0,0.0,0.0,0.0,0.0,0.0,0.0,0.0,0.0,0.0,0.0,0.0,0.0,0.0,0.0,0.0,0.0,0.0,0.0,0.0,0.0,0.0,0.0,0.0,0.0,0.0,0.0,0.0,0.0,0.0,0.0,0.0,0.0,0.0,0.0,0.0,0.0,0.0,0.0,0.0,0.0,0.0,0.0,0.0,0.0,0.0,0.0,0.0,0.0,0.0,0.0,0.0,0.0,0.0,0.0,0.0,0.0,0.0,0.0,0.0,-0.8632,-0.8999,-0.8197,-0.8475,-0.8714,0.0,0.0,0.0,0.0,0.0,0.0,0.0,0.0,0.0,-1.9276,-1.9383,-1.9598,-1.9991,-1.9794,-1.9671,-1.9561,-1.9119,-1.8896,-1.8871,-1.8486,-1.8264,-1.813,-1.7684,-1.7281,-1.6841,-1.6642,-1.657,-1.6587,0.0,0.0,0.0,0.0,-1.6688,-1.6453,0.0,0.0,0.0,0.0,0.0,0.0,0.0,0.0,0.0,0.0,0.0,0.0,0.0,0.0,0.0,0.0,0.0,0.0,0.0,0.0,0.0,0.0,0.0,0.0,0.0,0.0,0.0,0.0,0.0,0.0,0.0,0.0,0.0,0.0,0.0,0.0,0.0,0.0,0.0,0.0,0.0,0.0,0.0,0.0,0.0,0.0,0.0,0.0,0.0,0.0,0.0,0.0,0.0,0.0,0.0,0.0,0.0,0.0,0.0,0.0,0.0,0.0,0.0,0.0,0.0,0.0,0.0,0.0,0.0,0.0,0.0,0.0,0.0,0.0,0.0,0.0,0.0,-1.1006,-1.1846,-1.1047,-1.163,-1.1972,0.0,0.0,0.0,0.0,0.0,0.0,-1.8906,-1.8988,-1.9543,-2.0859,-2.0482,-2.0439,-2.0841,-2.0369,-1.9952,-1.9687,-1.8796,-1.8189,-1.7876,-1.7678,-1.7424,-1.7123,-1.688,-1.6684,-1.6596,-1.6938,-1.703,-1.6879,-1.6735,-1.6397,-1.6191,-1.7003,-1.7129,-1.689,0.0,0.0,0.0,0.0,0.0,0.0,0.0,0.0,0.0,0.0,0.0,0.0,0.0,0.0,0.0,0.0,0.0,0.0,0.0,0.0,0.0,0.0,0.0,0.0,0.0,0.0,0.0,0.0,0.0,0.0,0.0,0.0,0.0,0.0,0.0,0.0,0.0,0.0,0.0,0.0,0.0,0.0,0.0,0.0,0.0,0.0,0.0,0.0,0.0,0.0,0.0,0.0,0.0,0.0,0.0,0.0,0.0,0.0,0.0,0.0,0.0,0.0,0.0,0.0,0.0,0.0,0.0,0.0,0.0,0.0,0.0,0.0,0.0,0.0,0.0,0.0,0.0,0.0,0.0,-1.4403,-1.557,0.0,0.0,0.0,0.0,-1.5649,-1.7254,-1.8351,-1.8613,-1.9993,-2.0649,-2.0442,-2.1023,-2.1091,-2.0614,-1.9782,-1.9144,-1.8734,-1.7946,-1.7338,-1.6971,-1.6947,-1.6666,-1.6162,-1.6127,-1.5846,-1.5435,-1.6005,-1.6442,-1.6718,-1.657,-1.6655,-1.6879,-1.7269,-1.7421,-1.7476,0.0,0.0,0.0,0.0,0.0,0.0,0.0,0.0,0.0,0.0,0.0,0.0,0.0,0.0,0.0,0.0,0.0,0.0,0.0,0.0,0.0,0.0,0.0,0.0,0.0,0.0,0.0,0.0,0.0,0.0,0.0,0.0,0.0,0.0,0.0,0.0,0.0,0.0,0.0,0.0,0.0,0.0,0.0,0.0,0.0,0.0,0.0,0.0,0.0,0.0,0.0,0.0,0.0,0.0,0.0,0.0,0.0,0.0,0.0,0.0,0.0,0.0,0.0,0.0,0.0,0.0,0.0,0.0,0.0,0.0,0.0,0.0,0.0,0.0,0.0,0.0,0.0,0.0,0.0,-1.6693,-1.7557,0.0,-1.6385,-1.6379,-1.6812,-1.7806,-1.883,-1.9647,-2.0075,-2.0092,-2.0327,-2.0842,-2.0075,-1.9484,-1.9108,-1.8807,-1.8325,-1.7663,-1.6761,-1.6155,-1.5853,-1.5679,-1.5439,-1.5152,-1.5556,-1.544,-1.504,-1.5277,-1.5525,-1.5772,-1.5768,-1.5981,-1.6361,-1.6374,-1.6392,-1.6423,0.0,0.0,0.0,0.0,0.0,0.0,0.0,0.0,0.0,0.0,0.0,0.0,0.0,0.0,0.0,0.0,0.0,0.0,0.0,0.0,0.0,0.0,0.0,0.0,0.0,0.0,0.0,0.0,0.0,0.0,0.0,0.0,0.0,0.0,0.0,0.0,0.0,0.0,0.0,0.0,0.0,0.0,-0.8561,0.0,0.0,0.0,0.0,0.0,0.0,0.0,0.0,0.0,0.0,0.0,0.0,0.0,0.0,0.0,0.0,0.0,0.0,0.0,0.0,0.0,0.0,0.0,0.0,0.0,0.0,0.0,0.0,0.0,0.0,0.0,0.0,0.0,0.0,0.0,-1.8413,-1.7873,-1.8586,-1.8635,-1.754,-1.7456,-1.7836,-1.8715,-1.9374,-1.9885,-2.0258,-1.9646,-1.943,-1.9798,-1.8963,-1.8298,-1.7774,-1.7593,-1.7207,-1.6616,-1.5593,-1.4964,-1.4677,-1.4633,-1.4444,-1.4233,-1.4777,-1.4766,-1.4398,-1.4398,-1.4444,-1.4547,-1.5164,-1.5614,-1.5953,-1.6025,-1.6057,-1.6001,0.0,0.0,0.0,0.0,0.0,0.0,0.0,0.0,0.0,0.0,0.0,0.0,0.0,0.0,0.0,0.0,0.0,0.0,0.0,0.0,0.0,0.0,0.0,0.0,0.0,0.0,0.0,0.0,0.0,0.0,0.0,0.0,0.0,0.0,0.0,0.0,0.0,0.0,0.0,0.0,0.0,0.0,-0.8161,0.0,0.0,0.0,0.0,0.0,0.0,0.0,0.0,0.0,0.0,0.0,0.0,0.0,0.0,0.0,0.0,0.0,0.0,0.0,0.0,0.0,0.0,0.0,0.0,0.0,0.0,0.0,0.0,0.0,0.0,0.0,0.0,0.0,-1.5419,-1.8794,-2.0265,-1.8064,-1.8702,-1.8722,-1.7078,-1.7119,-1.7493,-1.8221,-1.8685,-1.8975,-1.8963,-1.8753,-1.82,-1.7217,-1.7836,-1.769,-1.6654,-1.6125,-1.5762,-1.5618,-1.4522,-1.3789,-1.3409,-1.3789,-1.3789,-1.342,-1.3836,-1.3789,-1.342,-1.342,-1.3188,-1.309,-1.4824,-1.5543,-1.5632,-1.6238,-1.6436,-1.6392,0.0,0.0,0.0,0.0,0.0,0.0,0.0,0.0,0.0,0.0,0.0,0.0,0.0,0.0,0.0,0.0,0.0,0.0,0.0,0.0,0.0,0.0,0.0,0.0,0.0,0.0,0.0,0.0,0.0,0.0,0.0,0.0,0.0,0.0,0.0,0.0,0.0,0.0,0.0,0.0,0.0,0.0,-0.6268,0.0,0.0,0.0,0.0,0.0,0.0,0.0,0.0,0.0,0.0,0.0,0.0,0.0,0.0,0.0,0.0,0.0,0.0,0.0,0.0,0.0,0.0,0.0,0.0,0.0,0.0,0.0,0.0,0.0,0.0,0.0,0.0,-1.7033,-1.7352,-1.8443,-1.9257,-1.9287,-1.8851,-1.8223,-1.7317,-1.7422,-1.7572,-1.7763,-1.7996,-1.8203,-1.8422,-1.7385,-1.6882,-1.6991,-1.6208,-1.5693,-1.5594,-1.4693,-1.4334,-1.4443,-1.3842,-1.3505,-1.342,-1.3505,-1.3505,-1.342,-1.3836,-1.3789,-1.342,-1.342,-1.318,-1.2987,-1.3732,-1.4294,-1.4777,-1.5017,-1.5289,-1.5457,0.0,0.0,0.0,0.0,0.0,0.0,0.0,0.0,0.0,0.0,0.0,0.0,0.0,0.0,0.0,0.0,0.0,0.0,0.0,0.0,0.0,0.0,0.0,0.0,0.0,0.0,0.0,0.0,0.0,0.0,0.0,0.0,0.0,0.0,0.0,0.0,0.0,0.0,0.0,0.0,0.0,0.0,-0.4268,-0.4148,-0.4089,-0.4047,-0.4191,-0.377,-0.3129,-0.3129,0.0,0.0,0.0,0.0,0.0,0.0,0.0,0.0,0.0,0.0,0.0,0.0,0.0,0.0,0.0,0.0,0.0,0.0,0.0,0.0,0.0,0.0,0.0,0.0,-1.6316,-1.7615,-1.8021,-1.8931,-1.9362,-1.9064,-1.841,-1.7762,-1.7306,-1.7115,-1.7187,-1.739,-1.7251,-1.7126,-1.7167,-1.6013,-1.5601,-1.6104,-1.4916,-1.4512,-1.4936,-1.4026,-1.3596,-1.3589,-1.3457,-1.3228,-1.289,-1.3218,-1.3276,0.0,-1.3552,-1.3563,-1.319,-1.319,-1.3055,0.0,0.0,0.0,0.0,0.0,-1.5153,-1.5289,0.0,0.0,0.0,0.0,0.0,0.0,0.0,0.0,0.0,0.0,0.0,0.0,0.0,0.0,0.0,0.0,0.0,0.0,0.0,0.0,0.0,0.0,0.0,0.0,0.0,0.0,0.0,0.0,0.0,0.0,0.0,0.0,0.0,0.0,0.0,0.0,0.0,0.0,0.0,0.0,0.0,0.0,-0.2262,-0.2746,-0.3076,-0.336,-0.4279,-0.3646,-0.2345,-0.2352,0.0,0.0,0.0,0.0,0.0,0.0,0.0,0.0,0.0,0.0,0.0,0.0,0.0,0.0,0.0,0.0,0.0,0.0,0.0,0.0,0.0,0.0,0.0,0.0,-1.6292,-1.7081,-1.7845,-1.9288,-1.9621,-1.7856,-1.7407,-1.7059,-1.6682,-1.6319,-1.6277,-1.6807,-1.6288,-1.5881,-1.5506,0.0,0.0,0.0,0.0,-1.3755,-1.4393,-1.3799,-1.3277,-1.2919,-1.317,-1.289,-1.2126,-1.289,-1.2939,-1.2471,-1.3035,-1.3045,-1.2725,-1.2774,-1.2832,-1.2881,-1.3552,-1.3967,-1.4351,-1.5334,-1.557,-1.5424,0.0,0.0,0.0,0.0,0.0,0.0,0.0,0.0,0.0,0.0,0.0,0.0,0.0,0.0,0.0,0.0,0.0,0.0,0.0,0.0,0.0,0.0,0.0,0.0,0.0,0.0,0.0,0.0,0.0,0.0,0.0,0.0,0.0,0.0,0.0,0.0,0.0,0.0,0.0,0.0,0.0,0.0,-0.087,-0.1005,-0.1106,-0.1225,-0.1369,-0.1263,-0.1007,-0.0948,-0.063,-0.0389,-0.0472,0.0,0.0,0.0,0.0,0.0,0.0,0.0,0.0,0.0,0.0,0.0,0.0,0.0,0.0,0.0,0.0,0.0,0.0,0.0,0.0,-1.5945,-1.6817,-1.7254,-1.6999,-1.6806,-1.6687,-1.6628,-1.5553,-1.4772,-1.4503,-1.4502,-1.4483,-1.4471,-1.4705,-1.4705,-1.4338,-1.3759,-1.3455,-1.3542,-1.2798,-1.2601,-1.2983,-1.2968,-1.2754,-1.2264,0.0,0.0,-1.2126,-1.2264,-1.2274,-1.2175,-1.2314,-1.2116,-1.171,-1.2126,-1.2274,-1.2372,-1.3382,-1.3858,-1.3999,-1.4719,-1.496,-1.4949,0.0,0.0,0.0,0.0,0.0,0.0,0.0,0.0,0.0,0.0,0.0,0.0,0.0,0.0,0.0,0.0,0.0,0.0,0.0,0.0,0.0,0.0,0.0,0.0,0.0,0.0,0.0,0.0,0.0,0.0,0.0,0.0,0.0,0.0,0.0,0.0,0.0,0.0,0.0,0.0,0.0,0.0,0.2332,0.1406,0.1387,0.1886,0.2322,0.2699,0.3056,0.3209,0.2908,0.2503,0.2419,0.2098,0.1514,0.0,0.0,0.0,0.0,0.0,0.0,0.0,0.0,0.0,0.0,0.0,0.0,0.0,0.0,-1.14,0.0,0.0,-1.5088,-1.55,-1.5945,-1.6209,-1.6202,-1.5385,-1.492,-1.5359,-1.4557,-1.4016,-1.4204,-1.3997,-1.3792,-1.3599,-1.37,-1.3507,-1.2996,-1.2375,-1.218,-1.2395,-1.1765,-1.161,-1.2079,-1.2332,-1.2236,-1.1728,-1.2236,-1.2187,-1.1628,-1.1877,-1.1977,-1.1927,-1.2026,-1.1977,-1.1769,-1.2017,-1.1997,-1.1909,-1.2802,-1.3176,-1.3284,-1.3617,-1.405,-1.4384,0.0,0.0,0.0,0.0,0.0,0.0,0.0,0.0,0.0,0.0,0.0,0.0,0.0,0.0,0.0,0.0,0.0,0.0,0.0,0.0,0.0,0.0,0.0,0.0,0.0,0.0,0.0,0.0,0.0,0.0,0.0,0.0,0.0,0.0,0.0,0.0,0.0,0.0,0.0,0.0,0.0,0.0,0.565,0.4079,0.3954,0.4643,0.5309,0.5841,0.6402,0.6741,0.6037,0.5102,0.5227,0.5092,0.4629,0.2879,0.1782,0.0,0.0,0.0,0.0,0.0,0.0,0.0,0.0,0.0,-0.7368,-0.9278,-1.0999,-1.2192,-1.2277,-1.3426,-1.4403,-1.4661,-1.4638,-1.4733,-1.5009,-1.408,-1.3439,-1.3672,-1.3395,-1.3297,-1.3588,-1.3253,-1.2881,-1.2644,-1.2453,-1.2115,-1.1368,-1.0883,-1.0805,-1.1137,-1.0678,-1.07,-1.1251,-1.1701,-1.1683,-1.1217,-1.1792,-1.1742,-1.1074,-1.1528,-1.1628,-1.1569,-1.1669,-1.1778,-1.1868,-1.1738,-1.1562,-1.1387,-1.1774,-1.2069,-1.2262,-1.2595,-1.3172,-1.3771,0.0,0.0,0.0,0.0,0.0,0.0,0.0,0.0,0.0,0.0,0.0,0.0,0.0,0.0,0.0,0.0,0.0,0.0,0.0,0.0,0.0,0.0,0.0,0.0,0.0,0.0,0.0,0.0,0.0,0.0,0.0,0.0,0.0,0.0,0.0,0.0,0.0,0.0,0.0,0.0,0.0,0.0,0.7538,0.6755,0.612,0.5571,0.5359,0.5237,0.5324,0.5729,0.543,0.501,0.5805,0.5591,0.5056,0.4943,0.0,0.3069,0.343,0.2026,0.0221,-0.0686,-0.2313,-0.3853,0.0,0.0,-0.6812,-0.7914,-0.9812,-1.1425,-1.1942,-1.3223,-1.4044,-1.3736,-1.3642,-1.3447,-1.2916,-1.2188,-1.1582,-1.1037,-1.1086,-1.1049,-1.0561,-1.0418,-1.0254,-0.9863,-1.0105,-1.001,-0.943,-0.9606,-0.967,-0.9577,-0.9152,-0.9443,-1.0501,-1.0669,-1.0805,-1.0972,-1.146,-1.141,-1.0922,-1.0972,-1.1023,-1.0972,-1.0557,-1.071,-1.115,-1.0458,-1.0408,-1.0746,-1.0161,-1.0141,-1.0672,-1.2278,-1.2922,-1.3061,0.0,0.0,0.0,0.0,0.0,0.0,0.0,0.0,0.0,0.0,0.0,0.0,0.0,0.0,0.0,0.0,0.0,0.0,0.0,0.0,0.0,0.0,0.0,0.0,0.0,0.0,0.0,0.0,0.0,0.0,0.0,0.0,0.0,0.0,0.0,0.0,0.0,0.0,0.0,0.0,0.0,0.0,1.0719,0.9863,0.9527,0.9175,0.7237,0.6956,0.0,0.0,0.7672,0.7655,0.772,0.7492,0.7027,0.6385,0.573,0.0,0.4935,0.3034,0.1096,0.0656,-0.0498,-0.1927,-0.3869,-0.4636,-0.5445,-0.7589,-0.8831,-0.9657,-1.0009,-1.0466,-1.0932,0.0,-1.081,-1.0465,-1.0546,-0.9766,-0.9032,-0.8594,-0.8641,-0.8978,-0.9597,-0.8915,-0.8544,-0.8689,-0.8548,-0.8307,-0.795,-0.7891,-0.7704,-0.7459,-0.7659,-0.7917,-0.8165,-0.9166,-0.9688,-0.9814,-1.0395,-1.06,-1.0514,-1.0344,-1.0131,-0.9909,-0.9561,-0.953,-0.9749,-0.9516,-0.9565,-0.9776,-0.9981,-1.003,-1.0065,-1.0729,-1.1317,-1.1799,0.0,0.0,0.0,0.0,0.0,0.0,0.0,0.0,0.0,0.0,0.0,0.0,0.0,0.0,0.0,0.0,0.0,0.0,0.0,0.0,0.0,0.0,0.0,0.0,0.0,0.0,0.0,0.0,0.0,0.0,0.0,0.0,0.0,0.0,0.0,0.0,0.0,0.0,0.0,0.0,0.0,0.0,1.3494,1.2562,1.2203,1.1818,0.9181,0.8633,0.0,0.0,0.9246,0.9221,0.912,0.9082,0.8818,0.7654,0.7143,0.6754,0.5869,0.4149,0.2594,0.2303,0.1223,-0.0264,-0.2372,-0.321,-0.4212,-0.6579,-0.7368,-0.7581,-0.7528,-0.7699,-0.7869,-0.7926,-0.7662,-0.7601,-0.8033,-0.7247,-0.64,-0.5864,-0.5541,-0.5951,-0.7415,-0.7465,-0.7289,-0.7048,-0.6573,-0.6383,-0.6363,-0.5913,-0.5623,-0.5525,-0.6011,-0.6374,-0.6514,-0.7682,-0.8541,-0.9026,-0.9354,-0.9666,-0.988,-0.9614,-0.9295,-0.9013,-0.8811,-0.8777,-0.8876,-0.8952,-0.8962,-0.9009,-0.9657,-0.9764,-0.9501,-0.9258,-0.9812,-1.0663,0.0,0.0,0.0,0.0,0.0,0.0,0.0,0.0,0.0,0.0,0.0,0.0,0.0,0.0,0.0,0.0,0.0,0.0,0.0,0.0,0.0,0.0,0.0,0.0,0.0,0.0,0.0,0.0,0.0,0.0,0.0,0.0,0.0,0.0,0.0,0.0,0.0,0.0,0.0,0.0,0.0,0.0,1.52,1.4628,1.358,1.2155,1.0548,0.0,0.0,0.0,0.8988,0.8427,0.9016,0.9656,0.0,0.8857,0.8157,0.7403,0.6384,0.5417,0.4592,0.4157,0.2315,0.0551,0.046,-0.1378,-0.329,-0.4202,-0.4979,-0.5235,-0.4588,-0.5303,-0.5665,-0.4333,-0.4777,-0.5415,-0.5452,-0.4906,-0.3948,-0.2575,-0.1655,-0.1569,0.0,-0.5653,-0.6496,-0.4186,-0.3859,-0.3951,-0.4556,-0.3853,-0.3618,-0.4161,-0.426,-0.4893,-0.6185,-0.6392,-0.7304,-0.8974,-0.8547,-0.86,-0.9026,-0.8778,-0.8626,-0.8606,-0.847,-0.865,-0.8992,-0.8747,-0.8622,-0.8622,-0.8672,-0.8767,-0.8866,-0.8332,-0.8897,-0.9933,0.0,0.0,0.0,0.0,0.0,0.0,0.0,0.0,0.0,0.0,0.0,0.0,0.0,0.0,0.0,0.0,0.0,0.0,0.0,0.0,0.0,0.0,0.0,0.0,0.0,0.0,0.0,0.0,0.0,0.0,0.0,0.0,0.0,0.0,0.0,0.0,0.0,0.0,0.0,0.0,0.0,0.0,1.8753,1.7438,1.6412,1.535,0.0,0.0,0.0,0.0,0.0,0.9098,0.9226,0.9427,0.9514,0.9008,0.898,0.897,0.8198,0.743,0.6839,0.6709,0.5341,0.3725,0.2462,0.1323,0.0175,-0.146,-0.2872,-0.3677,-0.3257,-0.2993,-0.2582,-0.1693,-0.06,-0.0,-0.0334,-0.0328,-0.0565,-0.1267,-0.0888,0.0,0.0,0.0,0.0,-0.1929,-0.1114,-0.0942,-0.1861,-0.1586,-0.1606,-0.2053,-0.2779,-0.3354,-0.3889,-0.5366,-0.6401,-0.6999,-0.77,-0.8025,-0.8019,-0.7919,-0.7658,-0.7331,-0.7183,-0.7223,-0.7332,-0.753,-0.7721,-0.7992,-0.8287,-0.8418,-0.8477,-0.8281,-0.8301,-0.852,0.0,0.0,0.0,0.0,0.0,0.0,0.0,0.0,0.0,0.0,0.0,0.0,0.0,0.0,0.0,0.0,0.0,0.0,0.0,0.0,0.0,0.0,0.0,0.0,0.0,0.0,0.0,0.0,0.0,0.0,0.0,0.0,0.0,0.0,0.0,0.0,0.0,0.0,0.0,0.0,0.0,0.0,2.1055,1.9372,1.8068,0.0,0.0,0.0,0.0,0.0,0.0,0.9682,0.9501,0.9251,0.9041,0.9231,0.9644,0.9858,0.9416,0.9135,0.8859,0.8539,0.7439,0.6046,0.4244,0.3328,0.2466,0.1009,-0.1151,-0.2508,-0.1781,-0.2027,-0.2029,-0.0813,0.0083,0.1427,0.3604,0.2978,0.2068,0.1505,0.1452,0.0973,0.0,0.0,0.0,-0.0799,0.0567,0.0823,-0.0589,-0.0192,-0.0187,-0.0718,-0.1691,-0.2336,-0.2569,-0.4501,-0.566,-0.61,-0.7074,-0.7343,-0.702,-0.7069,-0.6912,-0.6583,-0.6253,-0.6147,-0.6253,-0.6439,-0.6683,-0.7004,-0.7516,-0.7819,-0.7973,-0.7819,-0.7715,-0.7796,0.0,0.0,0.0,0.0,0.0,0.0,0.0,0.0,0.0,0.0,0.0,0.0,0.0,0.0,0.0,0.0,0.0,0.0,0.0,0.0,0.0,0.0,0.0,0.0,0.0,0.0,0.0,0.0,0.0,0.0,0.0,0.0,0.0,0.0,0.0,0.0,0.0,0.0,0.0,0.0,0.0,0.0,2.2063,2.0311,0.0,0.0,0.0,0.0,0.0,0.0,0.0,1.0066,1.0008,0.9373,0.8918,0.9808,1.0098,1.0134,1.0188,1.0425,1.0493,0.9627,0.8586,0.7391,0.5949,0.4575,0.3501,0.3175,0.0245,-0.1848,0.0,0.0,-0.343,-0.1175,-0.1779,-0.0246,0.6335,0.5093,0.4012,0.0,0.0,0.0,0.0,0.0,0.0,-0.0658,0.0,0.1387,-0.0605,0.0191,0.0431,-0.0185,-0.1042,-0.1788,-0.24,-0.379,-0.5069,-0.6173,-0.6663,-0.6608,-0.6178,-0.6332,-0.6381,-0.6317,-0.569,-0.5553,-0.5706,-0.5474,-0.5504,-0.5828,-0.6431,-0.6961,-0.7331,-0.6858,-0.7079,-0.7759,0.0,0.0,0.0,0.0,0.0,0.0,0.0,0.0,0.0,0.0,0.0,0.0,0.0,0.0,0.0,0.0,0.0,0.0,0.0,0.0,0.0,0.0,0.0,0.0,0.0,0.0,0.0,0.0,0.0,0.0,0.0,0.0,0.0,0.0,0.0,0.0,0.0,0.0,0.0,0.0,0.0,0.0,2.2407,0.0,0.0,0.0,0.0,0.0,0.0,0.0,0.0,1.1811,1.205,1.1931,1.1734,1.1888,1.1932,1.1846,1.1205,1.0965,1.0733,1.0321,0.8995,0.7444,0.6233,0.5345,0.4095,0.1899,-0.0224,-0.1847,-0.2398,0.0,0.0,0.1767,0.5026,0.0,0.8209,0.7852,0.0,0.4749,0.0,0.2373,-0.0231,0.0158,0.0,0.0,0.0216,0.0634,-0.047,-0.0318,-0.0183,-0.0298,-0.1143,-0.1902,-0.2631,-0.3852,-0.4846,-0.5559,-0.6114,-0.6341,-0.6178,-0.6228,-0.6,-0.555,-0.5567,-0.535,-0.4999,-0.5015,-0.5078,-0.5171,-0.5773,-0.61,-0.6258,-0.6593,-0.681,-0.7058,0.0,0.0,0.0,0.0,0.0,0.0,0.0,0.0,0.0,0.0,0.0,0.0,0.0,0.0,0.0,0.0,0.0,0.0,0.0,0.0,0.0,0.0,0.0,0.0,0.0,0.0,0.0,0.0,0.0,0.0,0.0,0.0,0.0,0.0,0.0,0.0,0.0,0.0,0.0,0.0,0.0,0.0,0.0,0.0,0.0,0.0,0.0,0.0,0.0,0.0,0.0,1.3553,1.3834,1.3738,1.3531,1.3222,1.3201,1.3013,1.2317,1.1857,1.1404,1.0451,0.9173,0.7489,0.5163,0.4247,0.3133,0.0501,-0.1276,-0.247,-0.2929,-0.1303,0.0448,0.0,0.0,0.0,0.7991,0.899,0.8764,0.0,0.4958,0.0,0.104,0.0614,-0.0077,0.0,-0.0436,-0.0071,-0.0875,-0.0901,-0.1053,-0.1321,-0.1862,-0.2612,-0.3466,-0.4187,-0.4901,-0.5673,-0.6064,-0.6178,-0.6178,-0.6178,-0.5896,-0.5277,0.0,-0.4791,-0.4233,-0.4288,-0.4346,-0.4401,-0.5007,-0.5391,-0.5605,-0.5937,-0.6159,-0.6268,0.0,0.0,0.0,0.0,0.0,0.0,0.0,0.0,0.0,0.0,0.0,0.0,0.0,0.0,0.0,0.0,0.0,0.0,0.0,0.0,0.0,0.0,0.0,0.0,0.0,0.0,0.0,0.0,0.0,0.0,0.0,0.0,0.0,0.0,0.0,0.0,0.0,0.0,0.0,0.0,0.0,0.0,0.0,0.0,0.0,0.0,0.0,0.0,0.0,0.0,1.657,1.5497,1.5921,1.5581,1.4961,1.459,1.4362,1.3992,1.3266,1.2607,1.1655,0.9839,0.8623,0.689,0.3267,0.2234,0.1416,-0.1032,-0.2406,-0.304,-0.2766,-0.233,-0.1424,0.0289,0.0,0.5651,0.7322,0.9519,1.0073,0.7859,0.7005,0.5466,0.269,0.1777,0.0447,-0.1602,-0.0942,-0.0851,-0.1626,-0.1704,-0.203,-0.2701,-0.2797,-0.3342,-0.4353,-0.446,-0.5026,-0.616,-0.6187,-0.6192,-0.6215,-0.6187,-0.5841,-0.5171,0.0,0.0,-0.3461,-0.3461,-0.3461,-0.3516,-0.4128,-0.4677,-0.5058,-0.5171,-0.5285,-0.5508,0.0,0.0,0.0,0.0,0.0,0.0,0.0,0.0,0.0,0.0,0.0,0.0,0.0,0.0,0.0,0.0,0.0,0.0,0.0,0.0,0.0,0.0,0.0,0.0,0.0,0.0,0.0,0.0,0.0,0.0,0.0,0.0,0.0,0.0,0.0,0.0,0.0,0.0,0.0,0.0,0.0,0.0,0.0,0.0,0.0,0.0,0.0,0.0,0.0,0.0,1.8559,1.8358,1.9663,1.9136,1.8044,1.7748,1.6346,1.4553,1.3461,1.17,0.9679,0.7636,0.5815,0.3919,0.1486,0.0925,0.0,-0.2859,-0.2902,-0.2755,-0.3569,-0.112,0.167,0.3668,0.6942,0.9673,1.0584,1.1213,1.0726,0.0,0.7492,0.5889,0.2909,0.2115,0.0,0.0,0.0,-0.1893,-0.2993,-0.3504,-0.3448,-0.2795,-0.2762,-0.3039,-0.3738,-0.4239,-0.4916,-0.5796,-0.6091,-0.6262,-0.6417,-0.6253,-0.5622,-0.4625,-0.4519,0.0,-0.2856,-0.2856,-0.2856,-0.2912,-0.3516,-0.3793,-0.3956,-0.446,-0.4684,-0.4739,0.0,0.0,0.0,0.0,0.0,0.0,0.0,0.0,0.0,0.0,0.0,0.0,0.0,0.0,0.0,0.0,0.0,0.0,0.0,0.0,0.0,0.0,0.0,0.0,0.0,0.0,0.0,0.0,0.0,0.0,0.0,0.0,0.0,0.0,0.0,0.0,0.0,0.0,0.0,0.0,0.0,0.0,0.0,0.0,0.0,0.0,0.0,0.0,0.0,0.0,1.9483,2.0265,2.1822,2.1502,2.0396,1.9946,1.792,1.5446,1.3739,1.0522,0.714,0.5284,0.2675,0.0643,0.0795,0.0125,0.0,-0.1382,-0.131,-0.1301,-0.1827,0.0891,0.3663,0.5306,0.8143,1.029,1.0648,1.081,1.0269,0.8804,0.7664,0.6321,0.4504,0.3415,0.1952,-0.0142,0.0,-0.1708,-0.3223,-0.3503,-0.3349,-0.2895,-0.276,-0.3132,-0.407,-0.4349,-0.5042,-0.6129,-0.6266,-0.6384,-0.6468,-0.6093,-0.5433,-0.4463,-0.4184,0.0,-0.2691,-0.2691,-0.2691,-0.2747,-0.3021,-0.3411,-0.3802,-0.4082,-0.368,-0.2945,0.0,0.0,0.0,0.0,0.0,0.0,0.0,0.0,-0.3013,-0.3178,-0.2912,-0.2739,-0.2693,-0.2668,0.0,0.0,0.0,0.0,0.0,0.0,0.0,0.0,0.0,0.0,0.0,0.0,0.0,0.6386,0.0,0.0,0.0,0.0,0.0,0.0,0.0,0.0,0.0,0.0,0.0,0.0,0.0,0.0,0.0,0.0,0.0,0.0,0.0,0.0,0.0,0.0,1.9217,2.0597,2.2479,2.2518,2.1808,2.1205,1.9,1.6165,1.3581,0.9062,0.4525,0.2476,-0.0707,-0.2622,-0.0,-0.012,-0.0305,0.1354,0.1538,0.1441,0.1273,0.3295,0.5345,0.0,0.8641,1.0003,1.0073,0.9956,0.956,0.8714,0.7673,0.0,0.5495,0.4496,0.0,0.1199,0.0,0.0,-0.3563,-0.3246,-0.3018,-0.2956,-0.2896,-0.3411,-0.4463,-0.4625,-0.5282,-0.6543,-0.6381,-0.6319,-0.636,-0.5744,-0.5057,-0.4353,-0.3907,0.0,0.0,-0.28,-0.2747,-0.2691,-0.2691,-0.297,-0.3304,-0.3132,-0.2286,-0.1111,0.0,0.0,0.0,0.0,0.0,0.0,0.0,0.0,-0.2902,-0.399,-0.3788,-0.2912,-0.1455,-0.1335,0.0,0.0,0.0,0.0,0.0,0.0,0.0,0.0,0.0,0.0,0.0,0.0,0.0,0.5232,0.5495,0.0,0.0,0.0,0.0,0.0,0.0,0.0,0.0,0.0,0.0,0.0,0.0,0.0,0.0,0.0,0.0,0.0,0.0,0.0,0.0,0.0,0.0,1.8113,2.0783,2.1672,2.1688,2.107,1.921,1.6505,1.2658,0.7265,0.1962,-0.1289,-0.4327,-0.5555,-0.1707,0.0637,0.2534,0.4428,0.5535,0.5986,0.5461,0.6045,0.0,0.0,0.0,0.9982,1.065,1.0078,0.9043,0.7443,0.0,0.0,0.4223,0.4759,0.4172,0.0,0.0,0.0,-0.4986,-0.3763,-0.2962,-0.2901,-0.33,-0.3849,-0.4519,-0.5007,-0.5736,-0.6759,-0.5981,-0.5748,-0.6023,-0.5086,-0.4482,-0.4021,-0.3965,0.0,0.0,-0.3074,-0.2912,-0.2691,-0.2691,-0.224,-0.1453,-0.067,-0.0279,0.0112,0.0,0.0,0.0,0.0,0.0,0.0,0.0,0.0,-0.3275,-0.3956,-0.2926,-0.1589,-0.0335,-0.0,0.0,0.0,0.0,0.0,0.0,0.0,0.0,0.0,0.0,0.0,0.0,0.0,0.0,0.4926,0.5115,0.0,0.0,0.0,0.0,0.0,0.0,0.5762,0.0,0.0,0.0,0.0,0.0,0.0,0.0,0.0,0.0,0.0,0.0,0.0,0.9865,0.0,0.0,0.0,1.7969,1.9247,0.0,0.0,1.9951,1.8419,1.6624,1.1939,0.7159,0.5371,0.2406,0.0772,0.3911,0.5875,0.7582,0.9503,0.985,0.9543,0.8626,0.8747,0.0,0.0,0.0,0.0,1.0628,1.0027,0.893,0.7158,0.7439,0.0,0.0,0.0,0.2409,0.0,0.0,0.0,-0.3025,-0.2675,-0.253,-0.2901,-0.3014,-0.3519,-0.4519,-0.4736,-0.5292,-0.6173,-0.5854,-0.5739,-0.572,-0.4975,-0.4629,-0.4494,-0.4145,0.0,0.0,-0.3485,-0.3345,-0.3232,-0.283,-0.173,-0.0288,-0.0058,0.1149,0.2866,0.0,0.0,0.0,0.0,0.0,0.0,-0.4215,-0.373,-0.3326,-0.3226,-0.1879,-0.0403,0.1075,0.1547,0.14,0.0586,0.0,0.0,0.0,0.0,0.0,0.0,0.0,0.0,0.0,0.0,0.0,0.4552,0.4843,0.4979,0.0,0.0,0.5422,0.5474,0.0,0.0,0.0,0.0,0.0,0.0,0.0,0.0,0.0,0.0,0.0,0.0,0.0,0.0,0.0,0.0,0.0,0.0,0.0,0.0,0.0,0.0,2.0215,1.9512,1.9141,1.5156,1.0894,1.0097,0.7444,0.5793,0.8714,1.0447,1.2026,1.3899,1.3744,1.2954,1.1908,1.1383,1.1128,0.0,0.0,1.0884,1.0416,0.9576,0.8382,0.666,0.0,0.5041,0.0,0.0512,0.0,0.0,0.0,0.0,-0.2082,-0.2501,-0.2801,-0.2841,-0.2926,-0.35,-0.4519,-0.4548,-0.4984,-0.5804,-0.543,-0.5271,-0.5322,-0.4686,-0.4549,-0.4783,-0.436,0.0,0.0,-0.3727,-0.3517,-0.3218,-0.2541,-0.1411,-0.0059,0.0639,0.22,0.4104,0.0,0.0,0.0,0.0,0.0,0.0,0.0,0.0,-0.2603,-0.1742,-0.0941,0.0403,0.2898,0.3169,0.3234,0.3429,0.0,0.0,0.0,0.0,0.0,0.0,0.0,0.0,0.0,0.0,0.0,0.0,0.0,0.5026,0.5779,0.5497,0.5554,0.587,0.0,0.0,0.0,0.0,0.0,0.0,0.0,0.0,0.0,0.0,0.0,0.0,0.0,0.0,0.0,0.0,0.0,0.0,0.0,0.0,0.0,0.0,1.9781,1.9209,1.8833,1.5094,1.105,1.0115,0.8092,0.7212,1.0755,1.3298,1.5298,1.6914,1.7017,1.6501,1.5371,1.3898,1.273,1.2329,0.0,0.0,0.988,0.8526,0.7183,0.0,0.0,0.2739,-0.0216,-0.1888,0.0,0.0,0.0,0.0,-0.3149,-0.3986,-0.394,-0.2718,-0.3342,-0.3923,-0.4519,-0.4631,-0.5076,-0.5804,-0.4615,-0.424,-0.469,-0.3918,-0.3919,0.0,0.0,0.0,0.0,-0.3686,-0.3261,-0.246,-0.1611,-0.1295,-0.0936,0.1932,0.2867,0.2914,0.0,0.0,0.0,0.0,0.0,0.0,0.0,0.0,-0.3255,-0.342,-0.1812,0.0335,0.2898,0.3169,0.3236,0.3301,0.0,0.0,0.0,0.0,0.0,0.0,0.0,0.0,0.0,0.0,0.0,0.0,0.0,0.0,0.0,0.0,0.5348,0.6009,0.6067,0.0,0.0,0.0,0.0,0.0,0.0,0.0,0.0,0.0,0.0,0.0,0.0,0.0,0.0,0.0,0.0,0.0,0.0,0.0,0.0,0.0,0.0,0.0,2.2682,2.1562,1.9917,1.9611,1.8142,1.6637,1.6127,1.7279,1.8302,1.773,1.7417,1.6757,1.5284,1.4155,1.3024,1.1806,1.1048,0.0,0.0,0.0,0.0,-0.0966,-0.5083,-0.8338,0.0,0.0,0.0,0.0,0.0,0.0,-0.52,-0.4918,-0.4199,-0.2927,-0.3085,-0.3498,-0.3997,-0.4074,-0.4279,-0.4556,-0.416,-0.403,-0.4103,-0.4101,-0.4279,0.0,0.0,0.0,0.0,-0.3644,-0.3238,-0.2793,-0.107,-0.0248,-0.0,0.0721,0.1769,0.2877,0.0,0.0,0.0,0.0,0.0,0.0,0.0,0.0,-0.3624,-0.383,-0.2283,-0.0268,0.1884,0.2154,0.2221,0.2488,0.0,0.0,0.0,0.0,0.0,0.0,0.0,0.0,0.0,0.0,0.0,0.0,0.0,0.0,0.0,0.0,0.0,0.0,0.5943,0.0,0.0,0.0,0.0,0.0,0.0,0.0,0.2151,0.0,0.0,0.0,0.0,0.0,0.0,0.0,0.0,0.0,0.0,0.0,0.0,0.0,1.7727,2.0828,2.4023,2.4666,2.4392,2.4247,2.3386,2.1804,1.9014,0.0,0.0,0.0,0.0,1.5244,1.3832,1.2598,1.1374,0.9829,0.8793,0.725,0.0,0.0,0.0,-0.7474,0.0,0.0,0.0,0.0,0.0,0.0,0.0,0.0,-0.7219,-0.6484,-0.5538,-0.4364,-0.3641,-0.3444,-0.3811,-0.3648,-0.3705,-0.3988,-0.3774,-0.3762,-0.3825,-0.4023,-0.4289,0.0,0.0,0.0,0.0,-0.3624,-0.3207,-0.2682,-0.136,-0.038,0.0308,0.0061,0.095,0.2354,0.0,0.0,0.0,0.0,0.0,0.0,0.0,0.0,0.0,0.0,0.0,-0.1344,0.0134,0.0269,0.0,0.0,0.0,0.0,0.0,0.0,0.0,0.0,0.0,0.0,0.0,0.0,0.0,0.3837,0.4074,0.4549,0.529,0.0,0.0,0.0,0.0,0.0,0.0,0.0,0.0,0.0,0.0,0.0,0.0,0.0,0.0,0.0,0.0,0.0,0.0,0.0,0.0,0.0,0.0,0.0,0.0,0.0,0.0,0.0,0.0,2.4517,2.4826,2.4531,2.4116,2.2901,1.9599,0.0,0.0,0.0,0.0,1.2345,1.1182,0.9614,0.8,0.6586,0.5253,0.3015,0.0,-0.4035,0.0,0.0,-1.5241,0.0,0.0,0.0,0.0,0.0,0.0,0.0,-0.9215,-0.8431,-0.7589,-0.6694,-0.4932,-0.395,-0.3835,-0.3403,-0.3447,-0.3937,-0.3449,-0.3426,-0.3758,-0.3758,-0.3956,0.0,0.0,0.0,0.0,-0.3551,-0.3082,-0.2209,-0.221,-0.1326,-0.0061,0.006,0.0577,0.1458,0.0,0.0,0.0,0.0,0.0,0.0,0.0,0.0,0.0,0.0,0.0,-0.2018,-0.121,-0.1143,0.0,0.0,0.0,0.0,0.0,0.0,0.0,0.0,0.0,0.0,0.0,0.0,0.0,0.3287,0.3129,0.3061,0.307,0.2646,0.0,0.0,0.0,0.0,0.0,0.0,0.0,0.0,0.0,0.0,0.0,0.0,0.0,0.0,0.4625,0.5223,0.0,0.0,0.0,0.0,0.0,0.0,0.0,0.0,1.311,1.5976,1.8851,0.0,2.2802,2.3158,2.1859,2.0116,0.0,0.0,0.0,0.0,0.0,0.0,0.0,0.6233,0.4423,0.2566,0.0856,-0.1657,-0.5609,0.0,0.0,-2.1454,-2.1692,0.0,0.0,0.0,0.0,0.0,0.0,-1.119,-1.0933,-0.9363,-0.8154,-0.7478,-0.6366,-0.5251,-0.4202,-0.3535,-0.3282,-0.3394,-0.3282,-0.3226,-0.336,-0.3692,-0.3825,0.0,0.0,0.0,-0.3424,-0.2692,-0.2278,-0.2078,-0.2148,-0.1655,-0.0714,0.0532,0.1097,0.1459,0.0,0.0,0.0,0.0,0.0,0.0,0.0,0.0,0.0,0.0,0.0,0.0,0.0,0.0,0.0,0.0,0.0,0.0,0.0,0.0,0.0,0.0,0.0,0.0,0.0,0.0,0.0,0.0,0.0,0.1344,0.0,0.0,0.0,0.0,0.0,0.0,0.0,0.0,0.0,0.0,0.2351,0.0,0.0,0.0,0.0,0.0,0.4289,0.4957,0.0,0.4891,0.4622,0.4616,0.0,0.0,0.0,0.0,1.0657,1.2932,1.5372,1.8505,2.1021,2.0906,1.9697,1.81,1.6543,0.0,0.0,0.0,0.0,0.0,0.0,0.0,0.0,0.0,-0.5036,0.0,0.0,0.0,-2.2234,-2.4478,-2.3833,0.0,0.0,0.0,0.0,0.0,0.0,-1.2749,-1.2328,-1.0863,-0.9606,-0.8779,-0.7703,-0.6222,-0.4287,-0.3889,-0.3558,-0.3226,-0.3226,-0.3226,-0.3226,-0.3426,-0.3493,0.0,0.0,0.0,-0.3291,-0.2911,-0.2479,-0.2124,-0.216,-0.1721,-0.0827,0.1378,0.1815,0.1462,0.0,0.0,0.0,0.0,0.0,0.0,0.0,0.0,0.0,0.0,0.0,0.0,0.0,0.0,0.0,0.0,0.0,0.0,0.0,0.0,0.0,0.0,0.0,0.0,0.0,0.0,0.0,0.0,0.0,0.0,0.0,0.0,-0.1458,0.0,0.0,0.0,0.0,0.0,0.0,0.0,0.195,0.0,0.0,0.0,0.0,0.0,0.0,0.0,0.0,0.4553,0.3956,0.3623,0.3956,0.0,0.0,0.0,0.0,0.0,1.2242,1.5386,1.7847,1.7867,1.712,1.5767,1.3451,0.0,0.0,0.0,0.0,0.0,0.0,-0.3567,0.0,0.0,0.0,0.0,-2.125,-2.3069,-2.4193,-2.5135,0.0,0.0,0.0,0.0,0.0,0.0,0.0,-1.4341,-1.3511,-1.2336,-1.1219,-1.0205,-0.8837,-0.7024,-0.4812,-0.4483,-0.3956,-0.336,-0.3226,-0.3226,-0.3226,-0.3226,-0.3226,0.0,0.0,0.0,-0.3023,-0.3332,-0.2881,-0.2113,-0.2173,-0.1731,-0.0769,0.1956,0.2393,0.1714,0.0,0.0,0.0,0.0,0.0,0.0,0.0,0.0,0.0,0.0,0.0,0.0,0.0,0.0,0.0,0.0,0.0,0.0,0.0,0.0,0.0,0.0,0.0,0.0,0.0,0.0,0.0,0.0,0.0,0.0,-0.4671,-0.4424,-0.3586,0.0,0.0,0.0,0.0469,0.1072,0.1273,0.1207,0.1276,0.0,0.0,0.0,0.0,0.0,0.0,0.0,0.0,0.3347,0.2815,0.2484,0.1813,0.0,0.0,0.0,0.0,0.0,0.9095,0.9205,0.9551,1.3479,1.2917,1.0858,0.8658,0.6286,0.0,0.0,0.0,0.0,0.0,-0.8035,-1.0265,0.0,0.0,-2.1854,0.0,0.0,-2.6492,0.0,0.0,0.0,0.0,0.0,0.0,0.0,0.0,-1.5089,-1.435,-1.3166,-1.2051,-1.1142,-0.9621,-0.827,-0.7163,-0.5269,-0.422,-0.4154,-0.3491,-0.3226,-0.3226,-0.3226,-0.3226,0.0,0.0,-0.323,-0.3157,-0.281,-0.2058,-0.1178,-0.1814,-0.1606,-0.071,0.1157,0.2269,0.2915,0.0,0.0,0.0,0.0,0.0,0.0,0.0,0.0,0.0,0.0,0.0,0.0,0.0,0.0,0.0,0.0,0.0,0.0,0.0,0.0,0.0,0.0,0.0,0.0,0.0,0.0,0.0,0.0,0.0,-0.6067,-0.6473,-0.5439,-0.4532,-0.3682,0.0,0.0,-0.1542,-0.087,-0.087,-0.1204,0.0,0.0,0.0,0.0,0.0,0.0,0.0,0.0,0.0,0.0,0.154,0.1072,0.0738,0.0,0.0,0.0,0.0,0.0,0.5142,0.4763,0.4299,0.54,0.4887,0.3413,0.0725,-0.1822,0.0,0.0,0.0,0.0,0.0,0.0,-1.6075,-2.0012,0.0,-2.4348,-2.6471,0.0,0.0,0.0,0.0,0.0,0.0,0.0,0.0,0.0,0.0,0.0,-1.4529,-1.3717,-1.2671,-1.1329,-1.0634,-0.9548,-0.8096,-0.6689,-0.5387,-0.4287,-0.3956,-0.3558,-0.3226,-0.3226,-0.3201,-0.3224,0.0,-0.3226,-0.3158,-0.2943,-0.2276,-0.1326,-0.1871,-0.1843,-0.1272,0.0735,0.2178,0.3153,0.0,0.0,0.0,0.0,0.0,0.0,0.0,0.0,0.0,0.0,0.0,0.0,0.0,0.0,0.0,0.0,0.0,0.0,0.0,0.0,0.0,0.0,0.0,0.0,0.0,0.0,-0.5175,-0.5719,-0.7333,-0.7919,-0.7421,-0.6032,-0.5074,0.0,0.0,0.0,-0.3224,-0.2813,-0.2943,-0.348,0.0,0.0,0.0,0.0,0.0,0.0,0.0,0.0,0.0,0.0,0.0,0.0,0.0,0.0,0.0,0.0335,0.0601,0.0863,0.1504,0.0715,-0.0643,-0.2423,0.0,-0.2503,-0.6184,-0.8816,0.0,0.0,0.0,0.0,0.0,-1.6355,0.0,-2.5075,-2.5211,0.0,0.0,0.0,0.0,0.0,0.0,0.0,0.0,0.0,0.0,0.0,0.0,0.0,-1.4381,-1.404,-1.3174,-1.1648,-1.1334,-1.0369,-0.8746,-0.7947,-0.65,-0.4463,-0.4268,-0.3828,-0.3131,-0.3131,-0.3041,-0.2805,-0.2805,-0.3,-0.3197,-0.3174,-0.2257,-0.0902,-0.1162,-0.1214,-0.0882,0.1069,0.235,0.3091,0.0,0.0,0.0,0.0,0.0,0.0,0.0,0.0,0.0,0.0,0.0,0.0,0.0,0.0,0.0,0.0,0.0,0.0,0.0,0.0,0.0,0.0,0.0,0.0,0.0,-0.4537,-0.6067,-0.7887,-0.8965,-0.8842,-0.7643,-0.675,-0.5526,-0.4015,0.0,0.0,-0.3487,-0.3954,-0.4215,-0.4408,-0.4005,0.0,0.0,0.0,0.0,0.0,0.0,0.0,0.0,0.0,0.0,0.0,0.0,0.0,-0.1951,-0.1277,-0.1474,-0.1726,-0.1224,-0.3608,-0.6426,-0.7544,-0.5358,0.0,-0.9435,-1.1713,0.0,-1.6242,0.0,0.0,0.0,-1.843,-2.0214,-2.2521,-2.3886,0.0,0.0,0.0,0.0,0.0,0.0,0.0,0.0,0.0,0.0,0.0,0.0,0.0,-1.3901,-1.42,-1.3872,-1.256,-1.1442,-1.0416,-0.9589,-0.8448,-0.6851,-0.4874,-0.4139,-0.352,-0.3045,-0.3045,-0.2558,-0.1744,-0.1744,-0.2283,-0.322,-0.3201,-0.1419,0.1357,0.1353,0.1437,0.1734,0.2737,0.3091,0.3091,0.0,0.0,0.0,0.0,0.0,0.0,0.0,0.0,0.0,0.0,0.0,0.0,0.0,0.0,0.0,0.0,0.0,0.0,0.0,0.0,0.0,0.0,0.0,-0.5013,-0.5047,-0.6073,-0.6931,-0.7693,-0.7963,-0.8027,-0.783,-0.6294,0.0,0.0,0.0,0.0,-0.4882,-0.5606,-0.5939,-0.6009,-0.5873,-0.5536,0.0,0.0,0.0,0.0,0.0,0.0,0.0,0.0,-0.2268,0.0,0.0,0.0,-0.2824,-0.2956,-0.3086,-0.3338,-0.4137,-0.5898,-0.7922,-0.9748,-0.9749,0.0,0.0,-1.8029,-1.9283,-2.0821,-2.1396,0.0,0.0,0.0,-2.1587,-2.2813,0.0,0.0,0.0,0.0,0.0,0.0,0.0,0.0,0.0,0.0,0.0,0.0,0.0,0.0,0.0,-1.3691,-1.3199,-1.195,-1.1468,-1.0595,-0.9189,-0.839,-0.6835,-0.4633,-0.4607,-0.4031,-0.2957,-0.2411,-0.2289,-0.2498,-0.1172,-0.0852,-0.1115,0.0259,0.15,0.2521,0.1788,0.1663,0.1945,0.2281,0.2734,0.3175,0.0,0.0,0.0,0.0,0.0,0.0,0.0,0.0,0.0,0.0,0.0,0.0,0.0,0.0,0.0,0.0,0.0,0.0,0.0,0.0,0.0,0.0,0.0,-0.5701,-0.6075,-0.642,-0.6806,-0.7358,-0.7037,-0.6941,-0.7141,0.0,0.0,0.0,0.0,0.0,0.0,-0.699,-0.726,-0.7269,-0.7335,-0.6999,0.0,0.0,0.0,0.0,0.0,0.0,0.0,0.0,0.0,0.0,0.0,0.0,0.0,0.0,-0.4301,-0.4751,-0.6209,-0.7762,-0.9535,-1.189,0.0,0.0,-2.0513,-2.1763,-2.2255,-2.3585,-2.3067,0.0,0.0,0.0,0.0,0.0,0.0,0.0,0.0,0.0,0.0,0.0,0.0,0.0,0.0,0.0,0.0,0.0,0.0,0.0,0.0,-1.3077,-1.2593,-1.1431,-1.1272,-1.042,-0.8769,-0.807,-0.6641,-0.4535,-0.4632,-0.4113,-0.2968,-0.1994,-0.1749,-0.21,0.0065,0.0982,0.1112,0.2623,0.3183,0.3098,0.2287,0.2083,0.2281,0.2281,0.2686,0.3226,0.0,0.0,0.0,0.0,0.0,0.0,0.0,0.0,0.0,0.0,0.0,0.0,0.0,0.0,0.0,0.0,0.0,0.0,0.0,0.0,0.0,0.0,0.0,-0.5418,-0.6075,-0.5279,-0.5595,-0.7158,-0.6433,-0.5826,-0.5423,-0.5209,0.0,0.0,0.0,0.0,0.0,-0.7967,-0.8112,-0.8052,-0.8361,-0.8172,-0.7661,0.0,0.0,0.0,0.0,0.0,0.0,0.0,0.0,0.0,0.0,0.0,0.0,0.0,-0.5255,-0.6036,-0.7387,-0.9552,-1.1944,0.0,0.0,0.0,-2.2266,-2.1794,-2.1387,-2.417,0.0,-1.9245,-1.9453,0.0,0.0,0.0,0.0,0.0,0.0,0.0,0.0,0.0,0.0,0.0,0.0,0.0,0.0,0.0,0.0,0.0,0.0,-1.2564,-1.2261,-1.1148,-1.0762,-0.9871,-0.8435,-0.7566,-0.6308,-0.4616,-0.4179,-0.3614,-0.2964,-0.185,-0.0827,0.0134,0.2294,0.3177,0.3169,0.3169,0.3232,0.3226,0.3226,0.3226,0.3226,0.3226,0.3226,0.3226,0.0,0.0,0.0,0.0,0.0,0.0,0.0,0.0,0.0,0.0,0.0,0.0,0.0,0.0,0.0,0.0,0.0,0.0,0.0,0.0,0.0,0.0,0.0,0.0,0.0,0.0,-0.5675,-0.5533,-0.5071,-0.5,0.0,0.0,0.0,-0.7093,0.0,0.0,0.0,-0.8871,-0.8818,-0.8382,-0.8635,-0.8376,-0.7857,0.0,0.0,0.0,0.0,0.0,0.0,0.0,0.0,0.0,0.0,0.0,0.0,0.0,-0.6529,-0.6973,-0.9259,-1.1524,0.0,-1.5742,0.0,0.0,0.0,-2.2305,0.0,0.0,-2.1182,-1.9193,-1.897,0.0,0.0,0.0,0.0,0.0,0.0,0.0,0.0,0.0,0.0,0.0,0.0,0.0,0.0,0.0,0.0,0.0,0.0,-1.105,-1.0688,-1.0059,-0.9698,-0.9004,-0.8045,-0.6809,-0.5575,-0.4528,-0.369,-0.3171,-0.2907,-0.2708,-0.0851,0.2289,0.2941,0.3171,0.3169,0.3232,0.3228,0.3226,0.3226,0.3491,0.3954,0.4084,0.4417,0.4885,0.0,0.0,0.0,0.0,0.0,0.0,0.0,0.0,0.0,0.0,0.0,0.0,0.0,0.0,0.0,0.0,0.0,0.0,0.0,0.0,0.0,0.0,0.0,0.0,0.0,-0.6079,-0.5679,0.0,0.0,0.0,0.0,0.0,0.0,-0.8135,0.0,-0.9448,0.0,-0.9326,-0.9204,-0.87,-0.8894,-0.8694,-0.8172,0.0,0.0,0.0,0.0,0.0,0.0,0.0,0.0,0.0,0.0,0.0,0.0,-0.7348,-0.792,-0.8661,-1.1279,-1.3414,0.0,-1.8082,-2.0104,-2.1786,-2.3076,0.0,0.0,0.0,0.0,-1.8548,-1.861,0.0,0.0,0.0,0.0,0.0,0.0,0.0,0.0,0.0,0.0,0.0,0.0,0.0,0.0,0.0,0.0,0.0,0.0,-1.032,-0.9909,-0.9249,-0.8988,-0.8402,-0.7509,-0.6169,-0.5194,-0.4548,-0.3483,-0.296,-0.2968,-0.3051,-0.1714,0.0721,0.2339,0.3032,0.3032,0.3094,0.3092,0.3159,0.3159,0.3625,0.4287,0.4478,0.4945,0.5613,0.0,0.0,0.0,0.0,0.0,0.0,0.0,0.0,0.0,0.0,0.0,0.0,0.0,0.0,0.0,0.0,0.0,0.0,0.0,0.0,0.0,0.0,0.0,0.0,0.0,0.0,0.0,0.0,0.0,0.0,0.0,0.0,-0.7783,-0.9065,0.0,-0.9717,-0.9482,-0.9458,-0.9273,-0.8982,-0.9175,-0.896,-0.8431,-0.8259,0.0,0.0,0.0,0.0,0.0,0.0,0.0,0.0,0.0,0.0,-0.712,-0.8226,-0.9356,-1.0755,-1.3292,-1.5243,0.0,-2.0844,-2.2417,0.0,-2.3602,-2.3095,-2.2207,-2.0946,0.0,-1.7519,-1.8213,0.0,0.0,0.0,0.0,0.0,0.0,0.0,0.0,0.0,0.0,0.0,0.0,0.0,0.0,0.0,0.0,0.0,0.0,-1.0064,-0.9547,-0.8573,-0.8468,-0.7937,-0.6825,-0.5732,-0.4955,0.0,-0.3452,-0.296,-0.2831,-0.2991,-0.2952,-0.2627,0.1008,0.2627,0.2695,0.2891,0.2956,0.3025,0.3159,0.3623,0.435,0.4544,0.5143,0.5877,0.0,0.0,0.0,0.0,0.0,0.0,0.0,0.0,0.0,0.0,0.0,0.0,0.0,0.0,0.0,0.0,0.0,0.0,0.0,0.0,0.0,0.0,0.0,0.0,0.0,0.0,0.0,0.0,0.0,0.0,0.0,0.0,0.0,-0.8732,0.0,-0.9747,-0.9198,-0.9114,-0.8968,-0.8725,-0.8912,-0.8667,-0.8144,-0.783,-0.7684,0.0,0.0,0.0,0.0,0.0,0.0,0.0,-0.8607,-0.8421,-0.8141,-0.9914,-1.1091,-1.2356,-1.4955,-1.7474,0.0,0.0,-2.4013,-2.4354,-2.245,-2.1776,-2.1306,-2.0232,-1.8585,-1.7264,0.0,0.0,0.0,0.0,0.0,0.0,0.0,0.0,0.0,0.0,0.0,0.0,0.0,0.0,0.0,0.0,0.0,0.0,-0.9614,-0.8995,-0.8527,-0.8268,-0.7628,-0.6918,-0.6204,-0.522,-0.4441,0.0,-0.3241,-0.2557,-0.1725,-0.271,-0.1965,0.0202,0.1076,0.1949,0.2688,0.2755,0.2824,0.2963,0.3025,0.362,0.4613,0.5342,0.64,0.7526,0.0,0.0,0.0,0.0,0.0,0.0,0.0,0.0,0.0,0.0,0.0,0.0,0.0,0.0,0.0,0.0,0.0,0.0,0.0,0.0,0.0,0.0,0.0,0.0,0.0,0.0,0.0,0.0,0.0,0.0,0.0,0.0,0.0,-0.9432,0.0,-0.984,-0.9175,-0.8926,-0.8769,-0.8595,-0.8839,-0.8674,-0.8353,-0.8221,-0.8185,-0.8172,-0.8148,0.0,0.0,0.0,0.0,0.0,0.0,0.0,-1.0223,-1.113,-1.2338,-1.3803,-1.6116,0.0,0.0,-2.3021,0.0,-2.3751,-2.1575,-2.0613,-1.9778,-1.8032,-1.7024,0.0,0.0,0.0,0.0,0.0,0.0,0.0,0.0,0.0,0.0,0.0,0.0,0.0,0.0,0.0,0.0,0.0,0.0,-0.9298,-0.885,-0.8215,-0.7794,-0.758,-0.7149,-0.649,-0.5655,-0.4919,-0.4254,-0.3749,-0.3136,-0.2657,-0.2183,-0.1856,-0.0449,0.1583,0.0856,0.0995,0.1746,0.1612,0.1814,0.2153,0.2351,0.3215,0.4411,0.5411,0.6465,0.7587,0.0,0.0,0.0,0.0,0.0,0.0,0.0,0.0,0.0,0.0,0.0,0.0,0.0,0.0,0.0,0.0,0.0,0.0,0.0,0.0,0.0,0.0,0.0,0.0,0.0,0.0,0.0,0.0,0.0,0.0,0.0,0.0,0.0,-1.0343,0.0,-0.9821,-0.9168,-0.8817,-0.8609,-0.8544,-0.8857,-0.8777,-0.8487,-0.8788,-0.868,-0.8438,-0.8989,-0.9131,-0.9138,-0.9235,0.0,0.0,0.0,0.0,-1.2066,-1.2133,-1.3241,-1.4854,-1.6816,0.0,-2.0301,-2.2627,-2.293,0.0,-2.0217,-1.9028,-1.7669,-1.5137,-1.4994,0.0,0.0,0.0,0.0,0.0,0.0,0.0,0.0,0.0,0.0,0.0,0.0,0.0,0.0,0.0,0.0,0.0,0.0,-0.8767,-0.8121,-0.7628,-0.7252,-0.6933,-0.6712,-0.6159,-0.5171,-0.4625,-0.4135,-0.3699,-0.2865,-0.2683,-0.3056,-0.133,0.0249,0.1538,0.0512,0.026,0.0534,0.0334,0.0535,0.1008,0.1544,0.2613,0.388,0.4812,0.5935,0.712,0.0,0.0,0.0,0.0,0.0,0.0,0.0,0.0,0.0,0.0,0.0,0.0,0.0,0.0,0.0,0.0,0.0,0.0,-0.9064,0.0,0.0,-0.9075,-0.9262,0.0,0.0,0.0,0.0,0.0,0.0,0.0,0.0,0.0,0.0,-1.0553,0.0,0.0,-0.8607,-0.8557,-0.8467,-0.836,-0.8784,-0.8531,-0.8098,-0.8878,-0.878,-0.8462,-0.9442,-0.9816,-1.0066,-1.0863,-1.1256,0.0,0.0,0.0,-1.2068,-1.2787,-1.3737,-1.4962,0.0,0.0,-2.1448,0.0,-2.0911,-2.0006,0.0,0.0,-1.4872,0.0,0.0,0.0,0.0,0.0,0.0,0.0,0.0,0.0,0.0,0.0,0.0,0.0,0.0,0.0,0.0,0.0,0.0,0.0,-0.8559,-0.8092,-0.7628,-0.7198,-0.6933,-0.6879,-0.5996,-0.5226,-0.4625,-0.4015,-0.3408,-0.2858,-0.1906,-0.1915,-0.278,-0.2755,-0.2052,-0.0805,-0.0124,0.0126,-0.0,0.0065,-0.0066,-0.0336,0.0806,0.1945,0.3011,0.3407,0.4929,0.7055,0.0,0.0,0.0,0.0,0.0,0.0,0.0,0.0,0.0,0.0,0.0,0.0,0.0,0.0,0.0,-0.9977,-0.9786,-0.9494,-0.9113,-0.9134,-0.9396,-0.9837,-1.0098,-1.0225,0.0,0.0,0.0,0.0,0.0,0.0,0.0,-1.1034,-1.1041,0.0,0.0,0.0,0.0,0.0,-0.8534,-0.8255,-0.8759,-0.8936,-0.8877,-0.9266,-0.9643,-1.0025,-1.0404,-1.0821,-1.1236,-1.1556,-1.2087,-1.2497,-1.2355,0.0,0.0,0.0,-1.3146,-1.4111,-1.5746,-1.7567,-1.8869,0.0,-1.7531,-1.5981,-1.3545,0.0,-1.0478,-0.8788,0.0,0.0,0.0,0.0,0.0,0.0,0.0,0.0,0.0,0.0,0.0,0.0,0.0,0.0,0.0,0.0,0.0,0.0,-0.8454,-0.7991,-0.7203,-0.6431,-0.5996,-0.5996,-0.5226,-0.4567,-0.4015,-0.3738,-0.3297,-0.2691,-0.1738,-0.1515,-0.1911,-0.2628,-0.2279,-0.1202,-0.1433,-0.121,-0.0774,-0.1115,-0.113,-0.0874,-0.0067,0.094,0.1945,0.2878,0.4204,0.5855,0.0,0.0,0.0,0.0,0.0,0.0,0.0,0.0,0.0,0.0,0.0,0.0,0.0,0.0,0.0,0.0,-1.017,-0.9633,-0.9076,-0.9442,-0.9907,-1.0465,-1.0793,-1.0933,-1.0863,0.0,0.0,0.0,0.0,0.0,-1.0683,-1.0457,-1.0744,0.0,-1.0784,-1.0029,0.0,0.0,0.0,-0.8427,-0.9048,-0.9544,-0.9816,-1.0101,-1.0725,-1.1406,-1.1549,-1.1835,-1.2216,-1.2311,-1.2756,-1.3184,-1.2625,-1.275,0.0,0.0,0.0,-1.3234,0.0,0.0,-1.5993,-1.6455,-1.4501,-1.1888,0.0,0.0,-0.6354,0.0,0.0,0.0,0.0,0.0,0.0,0.0,0.0,0.0,0.0,0.0,0.0,0.0,0.0,0.0,0.0,0.0,0.0,0.0,-0.8275,-0.7648,-0.6613,-0.5832,-0.5281,-0.5117,-0.4567,-0.407,-0.3627,-0.3461,-0.313,-0.2691,-0.1962,-0.1684,-0.1685,-0.2437,-0.2295,-0.1573,-0.2467,-0.2332,-0.1516,-0.21,-0.193,-0.1264,-0.1005,-0.0269,0.0739,0.2213,0.3409,0.4527,0.0,0.0,0.0,0.0,0.0,0.0,0.0,0.0,0.0,0.0,0.0,0.0,0.0,-1.1428,-1.1365,-1.1498,-1.0534,-0.9755,-0.9377,-1.02,-1.08,-1.0982,-1.1178,0.0,-1.0982,0.0,0.0,0.0,0.0,0.0,-0.9724,-0.9083,-0.9341,-1.0194,-1.0494,-1.0017,-0.9036,0.0,0.0,0.0,-0.986,-1.0275,-1.0483,-1.1667,-1.1905,-1.1704,-1.2772,-1.2982,-1.2747,-1.3464,-1.3458,-1.3168,-1.3086,-1.2654,-1.2157,0.0,0.0,0.0,0.0,-1.3983,0.0,-1.5521,-1.2587,0.0,0.0,0.0,0.0,0.0,0.0,0.0,0.0,0.0,0.0,0.0,0.0,0.0,0.0,0.0,0.0,0.0,0.0,0.0,0.0,0.0,0.0,0.0,-0.767,-0.6869,-0.5732,-0.5618,-0.5289,-0.4574,-0.3959,-0.3627,-0.3624,-0.3021,-0.2747,-0.2691,-0.2635,-0.2639,-0.2647,-0.29,-0.2838,-0.2599,-0.2627,-0.2484,-0.2258,-0.2273,-0.2197,-0.1943,-0.2064,-0.1614,-0.0739,0.1008,0.2345,0.3602,0.0,0.0,0.0,0.0,0.0,0.0,0.0,0.0,0.0,0.0,0.0,0.0,0.0,-1.1677,-1.1677,-1.1747,-1.0954,-1.0492,-1.0516,-1.0505,-1.08,-1.149,-1.124,-1.1052,-1.0982,0.0,0.0,0.0,0.0,-0.8613,-0.8726,-0.8342,-0.8299,-0.874,-0.961,-0.967,-0.9154,-0.9577,0.0,0.0,0.0,0.0,0.0,-1.2421,0.0,0.0,0.0,0.0,-1.4427,-1.4536,-1.4288,-1.3747,-1.2941,-1.2308,-1.1693,-1.1019,-1.0917,-1.1059,0.0,0.0,0.0,-1.1121,-0.8995,-0.6145,-0.354,-0.188,-0.1288,0.0,0.0,0.0,0.0,0.0,0.0,0.0,0.0,0.0,0.0,0.0,0.0,0.0,0.0,0.0,0.0,0.0,0.0,0.0,0.0,-0.7144,-0.6183,-0.5401,-0.4791,-0.4187,-0.3411,-0.3053,-0.3062,-0.2892,-0.2779,-0.2779,-0.2719,-0.2691,-0.2695,-0.2159,-0.1873,-0.18,-0.1798,-0.1763,-0.1713,-0.1257,-0.0966,-0.0775,-0.0798,-0.0941,-0.0807,0.1547,0.2753,0.3478,0.0,0.0,0.0,0.0,0.0,0.0,0.0,0.0,0.0,0.0,0.0,0.0,0.0,0.0,-1.1988,-1.1864,-1.1303,-1.0961,-1.092,-1.0622,-1.0744,-1.1428,-1.1115,-1.0926,-1.0863,0.0,0.0,0.0,0.0,0.0,0.0,-0.737,-0.7422,-0.7782,-0.8735,-0.9087,0.0,0.0,0.0,-0.9621,0.0,0.0,-1.2578,0.0,0.0,0.0,0.0,0.0,0.0,0.0,-1.4601,-1.3995,-1.2797,-1.1788,-1.0906,-1.0208,-0.9926,-0.9883,-1.0128,0.0,0.0,0.0,0.0,-0.4845,-0.3203,0.0,-0.1649,0.0,0.0,0.0,0.0,0.0,0.0,0.0,0.0,0.0,0.0,0.0,0.0,0.0,0.0,0.0,0.0,0.0,0.0,0.0,0.0,0.0,-0.6226,-0.5374,-0.4508,-0.3744,-0.3023,-0.2719,-0.2781,-0.2842,-0.2845,-0.2785,-0.2723,-0.2695,-0.2695,-0.2077,-0.1572,-0.1236,-0.0637,-0.0584,-0.1047,-0.0438,-0.0128,-0.0,0.0199,0.0202,0.0403,0.2221,0.3027,0.3418,0.0,0.0,0.0,0.0,0.0,0.0,0.0,0.0,0.0,0.0,0.0,0.0,0.0,0.0,0.0,-1.2042,-1.1553,-1.1052,-1.0548,-1.0674,-1.0807,-1.0807,-1.0807,-1.0674,-1.0485,0.0,0.0,0.0,0.0,0.0,0.0,0.0,-0.6679,-0.7389,-0.7833,-0.8161,-0.8503,0.0,-0.968,-1.0264,0.0,-1.3008,-1.3398,0.0,0.0,0.0,-1.4912,-1.4628,0.0,-1.4674,0.0,0.0,0.0,-1.1142,-0.9821,-0.9688,-0.9323,-0.9083,0.0,0.0,0.0,0.0,0.0,0.0,-0.3855,0.0,0.0,0.0,0.0,0.0,0.0,0.0,0.0,0.0,0.0,0.0,0.0,0.0,0.0,0.0,0.0,0.0,0.0,0.0,0.0,0.0,-0.8441,-0.7332,-0.5785,-0.5445,-0.4629,-0.3135,-0.2863,-0.2697,-0.2695,-0.2871,-0.2876,-0.2649,-0.2703,-0.2645,-0.2593,-0.2535,-0.2027,-0.1127,0.0813,0.0925,-0.0227,0.0124,0.0253,0.031,0.0658,0.1547,0.2695,0.2831,0.3029,0.3424,0.0,0.0,0.0,0.0,0.0,0.0,0.0,0.0,0.0,0.0,0.0,0.0,0.0,0.0,-1.2613,-1.1926,-1.1615,-1.1351,-1.1212,-1.0604,-1.0364,-1.0807,-1.0371,-1.0117,-1.011,0.0,0.0,0.0,0.0,0.0,0.0,0.0,0.0,0.0,-0.7849,-0.8109,-0.8273,-0.9121,0.0,-1.0644,-1.2628,-1.387,0.0,0.0,0.0,0.0,0.0,-1.6271,-1.6081,0.0,-1.5613,-1.4596,0.0,0.0,-1.1216,-1.0424,-0.9872,-0.9514,-0.9432,0.0,0.0,0.0,0.0,0.0,0.0,0.0,0.0,0.0,0.0,0.0,0.0,0.0,0.0,0.0,0.0,0.0,0.0,0.0,0.0,0.0,0.0,0.0,0.0,0.0,0.0,0.0,-0.7995,-0.7101,-0.5916,-0.516,-0.4203,-0.3131,-0.3143,-0.297,-0.2615,-0.2675,-0.2441,-0.1915,-0.2444,-0.1932,-0.0464,0.093,0.1295,0.0901,0.2419,0.3325,0.3618,0.2402,0.1901,0.1861,0.2102,0.2285,0.2559,0.269,0.2825,0.3163,0.0,0.0,0.0,0.0,0.0,0.0,0.0,0.0,0.0,0.0,0.0,0.0,0.0,0.0,-1.2236,-1.1926,-1.1365,-1.1045,-1.0968,-1.0231,-0.9926,-1.0238,-0.9862,-0.9734,-0.9798,0.0,0.0,0.0,0.0,0.0,0.0,0.0,0.0,0.0,0.0,0.0,0.0,0.0,0.0,0.0,-1.3208,0.0,0.0,-1.6547,-1.6968,0.0,0.0,0.0,-1.6733,-1.6741,-1.5872,0.0,0.0,0.0,0.0,0.0,0.0,-1.0135,-0.9757,-0.9066,0.0,0.0,0.0,0.0,-0.7946,-0.8382,0.0,0.0,0.0,0.0,0.0,0.0,0.0,0.0,0.0,0.0,0.0,0.0,0.0,0.0,0.0,0.0,0.0,-0.9982,-0.9432,-0.852,-0.7992,-0.7026,-0.5589,-0.4706,-0.3964,-0.3299,-0.299,-0.2751,-0.2647,-0.102,-0.006,0.0176,-0.0635,-0.0346,0.0881,0.2475,0.3179,0.3204,0.3804,0.4609,0.5448,0.4249,0.3798,0.3843,0.3624,0.3551,0.3553,0.3489,0.3583,0.3888,0.0,0.0,0.0,0.0,0.0,0.0,0.0,0.0,0.0,0.0,0.0,0.0,0.0,0.0,0.0,0.0,-1.1052,-1.0428,-1.0244,-0.9798,-0.9548,-0.9484,-0.9484,-0.9484,-0.9548,0.0,0.0,0.0,0.0,0.0,0.0,0.0,0.0,0.0,0.0,0.0,0.0,0.0,0.0,-1.1002,-1.3528,-1.456,0.0,0.0,-1.684,-1.5984,-1.6411,-1.6587,-1.6612,-1.6771,-1.573,0.0,0.0,0.0,0.0,0.0,-1.1347,-1.089,-1.0214,-0.9789,-0.9434,0.0,0.0,0.0,-1.0214,-1.1143,-1.2435,0.0,0.0,0.0,0.0,0.0,0.0,0.0,0.0,0.0,0.0,0.0,0.0,0.0,0.0,0.0,-1.0996,-1.0644,-0.9922,-0.8663,-0.798,-0.6835,-0.5085,-0.4405,-0.391,-0.3532,-0.2662,-0.2353,-0.26,0.1049,0.2871,0.2734,0.1887,0.1589,0.1949,0.2899,0.4037,0.5283,0.4985,0.535,0.6047,0.5758,0.5654,0.5605,0.5029,0.4945,0.5077,0.477,0.4775,0.4983,-0.838,0.0,0.0,0.0,0.0,0.0,0.0,0.0,0.0,0.0,0.0,0.0,0.0,0.0,0.0,0.0,-1.0926,-1.0491,-0.9932,-0.9804,-0.9676,-0.9484,-0.9484,-0.9548,-0.974,-0.9456,0.0,0.0,0.0,0.0,0.0,0.0,0.0,0.0,0.0,0.0,0.0,0.0,0.0,-1.1279,-1.3003,0.0,-1.5451,-1.6505,-1.6864,-1.6711,-1.6793,-1.6623,-1.6375,-1.6272,-1.5833,-1.5296,0.0,0.0,0.0,-1.2562,0.0,0.0,0.0,0.0,0.0,0.0,0.0,0.0,-1.0628,-1.0554,-1.0963,0.0,0.0,0.0,0.0,0.0,0.0,0.0,0.0,0.0,0.0,0.0,0.0,0.0,0.0,0.0,-1.0866,-1.0517,-0.965,-0.8115,-0.6651,-0.556,-0.4882,-0.5019,-0.4643,-0.3516,-0.2935,-0.24,-0.198,0.0123,0.1846,0.307,0.2626,0.286,0.3719,0.4091,0.4528,0.5101,0.6209,0.678,0.6952,0.7414,0.6741,0.5265,0.5219,0.5209,0.5223,0.4869,0.4727,0.4742,-0.8348,0.0,0.0,0.0,0.0,0.0,0.0,0.0,0.0,0.0,0.0,0.0,0.0,0.0,0.0,0.0,0.0,0.0,0.0,-0.9676,-0.9612,-0.9484,-0.9414,-0.9472,-0.9536,-0.9403,0.0,0.0,0.0,0.0,0.0,0.0,0.0,0.0,0.0,0.0,0.0,0.0,-0.9627,-1.1094,-1.3081,0.0,-1.5482,-1.6462,-1.662,-1.6403,-1.6673,-1.6589,-1.6403,-1.6528,-1.6094,0.0,0.0,-1.505,-1.4575,0.0,-1.2514,-1.2242,0.0,0.0,0.0,-1.1403,0.0,0.0,0.0,-1.1679,-1.1874,-1.3334,-1.4072,-1.4974,-1.6444,0.0,0.0,0.0,0.0,0.0,0.0,0.0,0.0,0.0,0.0,0.0,-1.0744,-1.016,-0.9017,-0.7241,-0.5848,-0.4971,-0.4706,-0.457,-0.4143,-0.3364,-0.3097,-0.229,-0.0904,-0.0064,0.128,0.3227,0.3049,0.3329,0.4,0.4247,0.4935,0.6018,0.6836,0.7572,0.8102,0.8431,0.803,0.7035,0.6559,0.64,0.6346,0.5966,0.5576,0.5218,-0.8178,0.0,0.0,0.0,0.0,0.0,0.0,0.0,0.0,0.0,0.0,0.0,0.0,0.0,0.0,0.0,0.0,0.0,0.0,-1.0213,-0.9906,-0.9484,-0.9344,-0.9274,-0.9274,-0.9277,-0.9156,0.0,0.0,0.0,0.0,0.0,0.0,0.0,0.0,0.0,0.0,0.0,0.0,-1.0971,0.0,-1.4388,-1.5155,-1.6216,-1.621,-1.5694,-1.6167,-1.6245,-1.6132,-1.651,-1.598,-1.5169,-1.5309,-1.5181,0.0,0.0,0.0,0.0,0.0,0.0,0.0,0.0,0.0,-1.2772,0.0,0.0,0.0,-1.4375,-1.5087,0.0,0.0,0.0,0.0,0.0,0.0,0.0,0.0,0.0,0.0,0.0,0.0,0.0,0.0,-0.9631,-0.8303,-0.6658,-0.5444,-0.4694,-0.4444,-0.3759,-0.3343,-0.3195,-0.2786,-0.1762,-0.0,0.0202,0.1196,0.2864,0.3107,0.3427,0.3814,0.4153,0.5203,0.6782,0.7295,0.8055,0.9017,0.9081,0.9081,0.8888,0.7977,0.7652,0.7591,0.7113,0.6483,0.5814,-0.7957,-0.8022,0.0,0.0,0.0,0.0,0.0,0.0,0.0,0.0,0.0,0.0,0.0,0.0,0.0,0.0,0.0,0.0,-1.2963,0.0,-1.129,-0.9554,-0.9344,-0.9274,-0.9274,-0.8986,-0.8863,0.0,0.0,0.0,0.0,0.0,0.0,0.0,-0.8185,0.0,0.0,0.0,-1.0244,0.0,-1.2385,-1.3467,0.0,-1.5367,-1.5356,-1.5034,-1.5292,-1.5338,-1.5296,0.0,-1.4863,-1.4655,0.0,-1.4255,-1.4146,-1.2432,0.0,0.0,0.0,0.0,0.0,0.0,-1.2788,0.0,0.0,0.0,-1.3345,-1.3182,0.0,0.0,0.0,0.0,0.0,0.0,0.0,0.0,0.0,0.0,0.0,0.0,0.0,0.0,0.0,-0.8858,-0.7753,-0.6895,-0.5662,-0.4603,-0.3822,-0.3177,-0.2931,-0.3219,-0.1327,-0.0276,-0.0,0.0942,0.1544,0.1806,0.2673,0.336,0.3811,0.4494,0.529,0.6216,0.7819,0.8737,0.9017,0.9524,0.946,0.8952,0.8366,0.8102,0.8062,0.7395,0.6634,0.5829,-0.7729,-0.7722,0.0,0.0,0.0,0.0,0.0,0.0,0.0,0.0,0.0,0.0,0.0,0.0,0.0,0.0,0.0,-1.5052,0.0,0.0,-1.2713,-1.073,-1.0358,-0.9884,-0.9365,-0.8967,-0.877,-0.8646,-0.8517,0.0,0.0,0.0,0.0,0.0,-0.8598,0.0,-0.8628,0.0,-1.0827,0.0,0.0,0.0,0.0,-1.5006,-1.5114,-1.4936,-1.5147,-1.4919,-1.4569,0.0,-1.4463,0.0,0.0,0.0,0.0,0.0,0.0,0.0,0.0,0.0,0.0,0.0,0.0,0.0,-1.4004,0.0,-1.3658,0.0,0.0,0.0,0.0,0.0,0.0,0.0,-1.3586,0.0,0.0,0.0,0.0,0.0,0.0,0.0,0.0,0.0,0.0,0.0,-0.4973,-0.426,-0.3862,-0.2551,-0.1657,-0.1335,-0.0492,-0.0,-0.0,0.0472,0.1279,0.2559,0.2928,0.345,0.3916,0.4362,0.5301,0.6591,0.7477,0.8265,0.9017,0.9268,0.9204,0.8952,0.8431,0.8042,0.7792,0.7489,0.6597,0.5474,-0.8058,-0.7898,0.0,0.0,0.0,0.0,0.0,0.0,0.0,0.0,0.0,0.0,-1.249,-1.3818,0.0,0.0,-1.651,-1.6555,0.0,0.0,-1.4179,0.0,0.0,0.0,-0.9722,-0.9217,-0.8772,-0.8576,0.0,0.0,0.0,0.0,0.0,0.0,0.0,-0.8981,-0.8918,0.0,-1.0805,-1.1844,-1.2276,-1.289,-1.3636,-1.4638,-1.4838,-1.4721,-1.4848,-1.4489,-1.3943,-1.4094,-1.3798,0.0,-1.3281,0.0,0.0,0.0,0.0,0.0,-1.0151,0.0,0.0,0.0,0.0,0.0,0.0,0.0,0.0,0.0,0.0,0.0,0.0,0.0,0.0,0.0,0.0,-1.1608,0.0,0.0,0.0,0.0,0.0,0.0,0.0,0.0,0.0,-0.5138,-0.4372,-0.3713,-0.3078,-0.1941,-0.096,-0.0363,-0.036,-0.0353,-0.0273,-0.0,0.1017,0.2695,0.3032,0.3383,0.3734,0.4004,0.4835,0.614,0.6647,0.745,0.8291,0.8689,0.8753,0.8624,0.8301,0.7847,0.7339,0.7522,0.6722,0.5498,-0.9055,-0.8985,0.0,0.0,0.0,0.0,0.0,0.0,0.0,0.0,0.0,0.0,0.0,0.0,0.0,0.0,0.0,-2.0833,-1.7911,0.0,-1.5599,0.0,0.0,-1.0986,0.0,-0.965,-0.9069,-0.877,0.0,0.0,0.0,0.0,0.0,0.0,0.0,-0.8235,-0.77,-0.8705,-0.9662,-1.0557,-1.0791,-1.1676,-1.307,0.0,-1.4277,-1.4129,-1.4129,0.0,0.0,-1.2485,-1.2586,0.0,0.0,0.0,0.0,0.0,0.0,0.0,0.0,0.0,0.0,-1.2295,0.0,0.0,0.0,0.0,-1.497,0.0,0.0,0.0,0.0,0.0,-1.4326,-1.4289,-1.2104,0.0,0.0,0.0,0.0,0.0,0.0,0.0,0.0,0.0,0.0,-0.5048,-0.4182,-0.2852,-0.0885,-0.1346,-0.1565,-0.1253,-0.1224,-0.1181,-0.105,-0.007,0.0759,0.148,0.2621,0.3179,0.3155,0.354,0.3796,0.4049,0.5497,0.6289,0.6576,0.7957,0.8226,0.7772,0.8102,0.7657,0.6968,0.7562,0.7167,0.6254,-0.8927,-0.9572,0.0,0.0,0.0,0.0,0.0,-1.165,0.0,0.0,0.0,0.0,0.0,-1.787,-1.9063,0.0,0.0,-2.0824,-1.8961,-1.8337,0.0,0.0,0.0,-1.1757,0.0,0.0,0.0,0.0,0.0,0.0,0.0,0.0,0.0,0.0,0.0,-0.9047,0.0,0.0,0.0,0.0,0.0,-1.1801,-1.2233,0.0,0.0,-1.371,-1.371,-1.3185,0.0,-1.2111,-1.1657,-1.1156,-1.0882,-1.0679,-1.0597,-1.0591,-1.0533,0.0,0.0,0.0,-1.2879,-1.2893,0.0,0.0,0.0,0.0,0.0,0.0,0.0,0.0,0.0,0.0,-1.3943,-1.3003,-1.1396,-0.9911,0.0,0.0,0.0,0.0,0.0,0.0,0.0,0.0,0.0,-0.363,-0.2909,-0.1773,-0.0079,0.0079,-0.0622,-0.207,-0.2131,-0.2088,-0.2016,-0.1556,-0.0836,0.0138,0.061,0.1001,0.1387,0.2049,0.2576,0.3169,0.4156,0.4888,0.5477,0.6246,0.6469,0.6431,0.6849,0.6811,0.6622,0.7021,0.6602,0.5634,-0.9346,0.0,0.0,0.0,0.0,0.0,0.0,0.0,0.0,0.0,-1.568,0.0,-1.7469,0.0,-1.917,0.0,-2.0545,-2.0312,-1.8737,-1.8545,0.0,-1.5016,-1.3815,-1.311,0.0,0.0,0.0,0.0,0.0,-0.9395,0.0,0.0,0.0,0.0,0.0,-0.8482,-0.8709,0.0,-0.961,0.0,0.0,-1.1525,0.0,0.0,-1.2677,-1.2521,0.0,-1.215,-1.1409,-1.1186,-1.0775,-1.0375,-1.0243,-1.0036,-0.9956,-1.0337,-1.0289,-1.0349,-1.0834,-1.1963,0.0,-1.287,-1.3671,0.0,-1.4123,0.0,0.0,0.0,0.0,0.0,0.0,0.0,-1.3262,-1.2103,-1.061,-0.9091,0.0,-0.5389,0.0,0.0,0.0,0.0,0.0,0.0,-0.3044,-0.2889,-0.2107,-0.1041,0.0,0.0,-0.0234,-0.1086,-0.1771,-0.2047,-0.207,-0.2182,-0.1794,-0.0709,-0.0558,-0.0138,0.0476,0.0885,0.1354,0.1876,0.275,0.3404,0.3966,0.4803,0.5167,0.5283,0.5881,0.6017,0.6024,0.6755,0.6509,0.5642,-1.0204,0.0,0.0,0.0,-1.1218,0.0,0.0,0.0,-1.4599,0.0,-1.5705,-1.6716,-1.6826,-1.7867,-1.8601,-1.8773,-1.9841,-1.963,-1.7521,-1.8002,0.0,0.0,-1.4988,-1.485,-1.4321,0.0,0.0,0.0,0.0,0.0,0.0,0.0,0.0,0.0,-0.6755,0.0,-0.7023,-0.7023,-0.7668,-0.8851,-1.0212,-1.0732,-1.0795,-1.118,-1.1083,-1.0737,-1.1009,-1.0812,-1.0368,-0.9771,-0.9992,-1.0293,-0.9771,-1.0067,-1.0812,-1.1186,-1.1671,-1.186,-1.1076,-1.1886,-1.2855,-1.2211,0.0,0.0,0.0,0.0,-1.31,0.0,0.0,0.0,0.0,0.0,0.0,-1.1591,-0.9681,-0.7544,-0.5576,0.0,0.0,0.0,0.0,0.0,0.0,-0.2365,-0.2152,-0.2684,-0.1766,-0.052,0.0,0.0,-0.0316,0.1377,-0.0238,-0.1084,-0.1059,-0.197,-0.1944,-0.1019,-0.0801,-0.0359,0.028,0.014,0.0138,0.0269,0.1344,0.1842,0.2023,0.3524,0.4222,0.4386,0.5209,0.5355,0.5312,0.6751,0.6877,0.6413,-0.9999,-1.093,-1.1927,0.0,-1.2136,-1.2182,0.0,0.0,0.0,0.0,-1.7944,-1.876,-2.0048,-2.0012,-1.9975,-2.0062,-2.0324,0.0,0.0,0.0,0.0,-1.523,-1.4673,-1.4023,-1.3052,-1.2576,-1.191,-1.0942,0.0,0.0,-0.884,0.0,0.0,0.0,0.0,0.0,-0.7233,-0.7384,-0.8257,-0.9614,-0.9992,-1.0027,0.0,0.0,-0.9622,-0.9155,-1.0273,-1.0293,-0.9771,-0.962,-0.9387,-0.9155,-0.917,-0.9322,-0.9549,-0.9922,-1.0187,-1.0464,-1.1208,-1.1626,-1.1867,-1.213,-1.2473,-1.2789,0.0,0.0,0.0,0.0,0.0,0.0,0.0,0.0,0.0,-0.9601,-0.7727,-0.6101,0.0,0.0,0.0,-0.2124,0.0,-0.0462,-0.1392,-0.0693,-0.053,-0.1207,-0.0284,0.0,0.0,0.0,0.0,0.2601,0.1803,0.1014,0.0387,-0.0914,-0.1431,-0.1122,-0.1617,-0.1744,-0.1587,-0.1155,-0.0853,-0.0763,0.0069,0.0487,0.0698,0.1966,0.2589,0.2717,0.3862,0.4879,0.5787,0.6314,0.6539,0.6627,-1.0393,0.0,0.0,-1.3547,0.0,0.0,-1.4461,0.0,0.0,-1.7672,-1.8282,0.0,-1.9709,-1.9571,-1.945,-1.945,-1.8939,0.0,-1.6963,0.0,0.0,-1.4258,-1.4135,-1.3804,-1.3104,-1.26,0.0,-1.1036,0.0,0.0,-0.8559,0.0,0.0,0.0,0.0,-0.6478,-0.6817,-0.7342,-0.8347,-0.9549,-0.9877,0.0,0.0,-0.983,-0.9316,-0.8777,-0.9492,-0.9458,-0.9241,-0.9241,-0.9008,-0.8703,-0.8946,-0.9022,-0.9175,-0.9473,-0.9695,-0.9873,-1.0614,-1.1075,-1.1372,-1.1649,-1.1932,-1.2105,-1.2056,-1.1995,-1.1985,0.0,0.0,0.0,0.0,0.0,0.0,-0.7854,-0.6421,0.0,0.0,0.0,0.0,0.0,-0.0391,0.0,0.018,0.0559,0.0454,-0.0481,0.0279,0.0,0.0,0.0,0.0,0.2697,0.1845,0.1081,0.0547,-0.121,-0.1943,-0.1737,-0.2162,-0.2358,-0.2407,-0.2064,-0.1899,-0.1781,-0.1068,-0.0645,-0.0361,0.0563,0.1053,0.1277,0.2486,0.374,0.4812,0.538,0.6291,0.7307,-1.0984,0.0,0.0,0.0,0.0,0.0,0.0,-1.5678,0.0,-1.6993,0.0,-1.7946,-1.7604,-1.7644,-1.77,-1.7538,0.0,-1.5815,-1.4874,-1.4545,-1.3915,-1.2928,-1.3567,-1.3818,-1.3356,-1.2593,-1.1895,0.0,0.0,0.0,0.0,0.0,0.0,0.0,0.0,0.0,0.0,-0.7338,-0.8412,-0.9443,-1.0135,-1.0523,-1.0706,-1.0269,-0.9646,-0.9022,-0.8861,-0.878,-0.8703,-0.8703,-0.8703,-0.878,-0.8946,-0.9175,-0.9397,-0.9549,-0.9771,-0.9922,-0.9922,-1.0443,-1.0962,-1.0962,-1.0992,-1.1166,-1.1596,-1.107,-1.0698,-1.1471,-1.0906,-1.0337,0.0,0.0,0.0,0.0,0.0,0.0,0.0,0.0,0.0,0.0,0.0,0.0,0.1169,0.1391,0.1001,-0.0129,0.0,0.0,0.0,0.0,0.0,0.2197,0.0982,0.0,-0.0078,0.0,-0.288,-0.2406,-0.2481,-0.2529,-0.2623,-0.2682,-0.2677,-0.2548,-0.1964,-0.1547,-0.1277,-0.059,-0.022,0.0073,0.1212,0.2219,0.3072,0.411,0.5811,0.7667,-1.1481,0.0,0.0,0.0,0.0,-1.4294,-1.6227,-1.7141,-1.7862,-1.8366,-1.8473,-1.8145,-1.7127,-1.6625,-1.6034,-1.5372,-1.5115,0.0,0.0,0.0,0.0,-1.2802,-1.351,-1.3239,-1.1477,-1.1879,-1.152,0.0,0.0,0.0,0.0,0.0,0.0,0.0,0.0,0.0,-0.7115,-0.801,0.0,-1.1135,-1.1169,-1.1376,-1.1634,-1.1053,-1.0155,-0.9251,-0.9246,-0.9013,-0.8703,-0.8703,-0.8784,-0.9022,-0.917,-0.9397,-0.962,-0.9771,-0.9846,-0.9922,-0.9922,-0.9997,-1.0143,-1.0143,-1.0302,-1.0301,-0.9979,-0.9853,-0.9677,-0.9135,-0.8888,-0.8679,-0.8338,0.0,0.0,0.0,0.0,0.0,0.0,0.0,0.0,0.0,0.0,-0.2072,0.0,0.0954,0.0,0.0,0.0,0.0,0.0,0.0,0.0,0.0,0.1458,0.0,0.0,0.0,-0.2819,-0.2625,-0.307,-0.2994,-0.2622,-0.2633,-0.2631,-0.2548,-0.2332,-0.212,-0.2058,-0.1417,-0.075,-0.0225,-0.0,0.0755,0.1843,0.2723,0.3889,0.5178,0.0,0.0,0.0,0.0,0.0,0.0,0.0,-1.7105,0.0,-1.7437,-1.7125,-1.662,-1.5683,-1.546,-1.5115,-1.4706,-1.4196,-1.3769,-1.3691,-1.3105,-1.2522,-1.2026,-1.2363,-1.2006,-1.081,-1.0762,-1.0385,-0.9463,0.0,0.0,0.0,0.0,0.0,0.0,0.0,-0.6501,0.0,0.0,0.0,-1.1557,-1.1109,-1.1462,-1.2031,-1.0897,-1.0119,-0.9627,-0.9362,-0.917,-0.9013,-0.9013,-0.9094,-0.9175,-0.9397,-0.9549,-0.962,-0.9846,-0.969,-0.9458,-0.9458,-0.9458,-0.9458,-0.9458,-0.9545,-0.9586,-0.9468,-0.9085,-0.876,-0.8458,-0.8068,-0.7577,-0.7066,-0.6706,0.0,0.0,0.0,0.0,0.0,0.0,-0.4408,0.0,0.0,0.0,0.0,0.0,0.0,0.0,0.0,0.0,0.0,0.0,0.0,0.0,0.0,0.0,0.0,0.0,0.0,-0.3843,-0.407,-0.4118,-0.4065,-0.3683,-0.3632,-0.378,-0.2896,-0.2621,-0.2805,-0.2147,-0.1799,-0.1517,-0.1025,-0.0477,0.0081,0.0881,0.1545,0.2327,0.0,-1.2218,0.0,0.0,-1.4421,0.0,-1.563,-1.6019,-1.6159,-1.5941,-1.5547,-1.4951,-1.4203,-1.4196,-1.4203,-1.3951,-1.319,-1.2595,-1.2595,-1.1763,-1.1262,-1.1262,-1.1262,-1.1043,-1.04,-0.9856,-0.924,0.0,0.0,0.0,0.0,0.0,0.0,0.0,0.0,0.0,0.0,0.0,-0.9822,-1.1589,-1.12,-1.1483,-1.208,-1.088,-1.0204,-0.9942,-0.9535,-0.9397,-0.9397,-0.9397,-0.9397,-0.9397,-0.9549,-0.962,-0.9695,-0.969,-0.9306,-0.8846,-0.8694,-0.8613,-0.8537,-0.8537,-0.8537,-0.8584,-0.8751,-0.8271,-0.7816,-0.7894,-0.7348,-0.6616,-0.6067,-0.5606,0.0,0.0,0.0,0.0,0.0,0.0,0.0,0.0,0.0,0.0,-0.1478,0.0,0.0,0.0,0.0,0.0,0.0,0.0,0.0,0.0,0.0,-0.252,-0.3154,0.0,-0.5228,0.0,-0.5155,-0.5249,-0.5365,-0.4716,-0.4628,-0.4825,-0.3381,-0.2984,-0.3159,-0.2686,-0.2594,-0.2603,-0.1896,-0.166,-0.1608,-0.0762,-0.0511,-0.0,0.0,0.0,0.0,0.0,0.0,0.0,-1.3417,-1.3713,-1.4155,-1.5238,-1.5154,-1.4494,-1.3294,-1.3033,-1.2534,-1.1688,-1.1516,-1.1429,-1.1429,-1.1348,-1.1262,-1.1262,-1.1262,-1.0783,-0.9826,-0.9419,-0.8715,0.0,0.0,-0.6816,0.0,0.0,0.0,0.0,0.0,0.0,0.0,-0.9441,-1.0795,-1.227,-1.2469,-1.229,-1.2012,-1.1884,-1.1025,-0.9873,-0.9852,-0.9846,-0.9846,-0.9846,-0.9695,-0.9549,-0.962,-0.9695,-0.9765,-0.9231,-0.8765,-0.8304,-0.777,-0.7306,-0.6996,-0.6996,-0.6996,-0.7,-0.6791,-0.6707,-0.6626,-0.6504,-0.5954,-0.5316,-0.4829,-0.4886,-0.4955,0.0,0.0,0.0,0.0,0.0,-0.6036,-0.4927,0.0,0.0,0.0,-0.0861,0.0,0.0,0.0,0.0,0.0,0.0,0.0,-0.3307,0.0,-0.3565,-0.5403,-0.5728,-0.6012,-0.6237,-0.596,-0.56,-0.5147,-0.4965,-0.4762,-0.4597,-0.3542,-0.2893,-0.2674,-0.2593,-0.2632,-0.2691,-0.2602,-0.2636,-0.2601,-0.1732,-0.1419,-0.1186,0.0,0.0,0.0,0.0,0.0,0.0,0.0,-1.1946,-1.1887,-1.2279,-1.2486,-1.2284,-1.1494,-1.088,-1.0626,-1.0733,-1.0289,-1.0381,-1.1262,-1.0911,-1.0911,-1.1262,-1.1043,-1.0447,-0.9424,-0.8708,-0.7753,0.0,0.0,0.0,0.0,0.0,0.0,0.0,0.0,-0.8469,-0.9645,-0.997,-1.1044,-1.253,-1.1899,-1.1916,-1.202,-1.0913,-1.0063,-0.9498,-0.8971,-0.9079,-0.9382,-0.9382,-0.9539,-0.9695,-0.9387,-0.9155,-0.8865,-0.8294,-0.7622,-0.6995,-0.6763,-0.6523,-0.6342,-0.6251,-0.623,-0.623,-0.6153,-0.6012,-0.5712,-0.5401,-0.4696,-0.4183,-0.4333,-0.4227,-0.4157,0.0,0.0,0.0,0.0,0.0,0.0,-0.4569,0.0,-0.2294,0.0,0.0,0.0,0.0,0.0,0.0,0.0,0.0,0.0,-0.229,0.0,-0.4897,-0.5613,-0.6555,-0.7171,-0.7385,-0.7136,-0.6887,-0.6708,-0.5873,-0.4838,-0.37,-0.3849,-0.3357,-0.2601,-0.2601,-0.2636,-0.2696,-0.2733,-0.2762,-0.2788,-0.2471,-0.2329,-0.2268,-0.9996,0.0,-0.987,0.0,-1.0623,-1.0726,-1.1047,-1.0686,-1.0337,-1.0083,-1.0154,-1.0115,-1.0024,-0.9497,-0.9497,-1.0207,-0.9584,-0.9676,-1.0911,-1.0499,-1.0287,-1.0641,-1.0333,0.0,-0.8615,-0.7613,-0.6725,-0.5776,-0.5561,0.0,0.0,0.0,0.0,0.0,-0.7511,-0.861,-0.9809,-1.0149,-1.083,-1.1643,-1.09,-1.0757,-1.0881,-0.9622,-0.9061,-0.8907,-0.8286,-0.8389,-0.877,-0.877,-0.8922,-0.915,-0.9074,-0.8613,-0.8038,-0.7521,-0.6617,-0.582,-0.566,-0.558,-0.5382,-0.5292,-0.5254,-0.5334,-0.541,-0.5189,-0.482,-0.4538,-0.3919,-0.3577,-0.3638,-0.3419,-0.326,-0.3558,0.0,0.0,0.0,0.0,0.0,-0.3654,-0.2237,-0.1363,-0.1459,-0.0194,0.0,0.0,0.0,0.0,0.0,0.0,0.0,0.0,0.0,0.0,0.0,-0.7261,-0.7856,-0.8002,-0.7861,-0.7794,-0.7665,-0.6596,-0.5095,-0.336,-0.4065,-0.3718,-0.2575,-0.2575,-0.2621,-0.2696,-0.274,-0.2778,-0.2818,-0.2877,-0.2899,-0.2899,-0.9015,-0.8492,-0.8146,-0.9083,-0.9081,-0.9256,-0.9914,-0.9938,-0.9741,-0.9556,-0.8746,-0.846,-0.9148,-0.9235,-0.9497,-1.0207,-0.9584,-0.9497,-1.0294,-1.0098,-0.9644,0.0,0.0,-0.85,-0.7026,-0.632,-0.5562,-0.4703,0.0,0.0,-0.503,0.0,-0.5765,-0.5634,-0.7502,-0.8279,-0.8352,-1.0019,-1.0111,-0.9305,-0.9625,-0.9081,-0.8061,-0.8289,-0.8256,-0.8084,-0.808,-0.808,-0.808,-0.808,-0.7851,-0.7693,-0.8689,-0.8309,-0.7423,-0.6893,-0.6058,-0.5259,-0.47,-0.4221,-0.3854,-0.3673,-0.3709,-0.394,-0.4317,-0.4084,-0.3806,-0.3822,-0.3841,-0.3501,-0.2582,-0.2469,-0.2451,-0.2275,0.0,0.0,0.0,0.0,0.0,-0.2099,-0.1157,-0.106,-0.1734,-0.0313,0.0,0.0,0.0,0.0,0.0,0.0,0.0,-0.5431,-0.5138,0.0,-0.7438,-0.7792,-0.7863,-0.773,-0.807,-0.7929,-0.7459,-0.6838,-0.5574,-0.3939,-0.4218,-0.3682,-0.2512,-0.2512,-0.2583,-0.2692,-0.2694,-0.2767,-0.288,-0.2936,-0.2958,-0.2958,-0.773,-0.7598,-0.7582,-0.8226,-0.8393,-0.8517,-0.9176,-0.8725,-0.8374,-0.8754,-0.7949,-0.7492,-0.7753,-0.7749,-0.8105,0.0,-0.8193,-0.8225,0.0,-0.8904,-0.856,-0.8429,-0.8158,-0.7465,-0.6182,-0.5644,-0.5027,-0.4385,0.0,0.0,0.0,-0.5483,-0.5801,-0.5926,-0.6886,-0.7516,-0.7994,-0.8519,-0.8519,-0.8229,-0.811,-0.804,-0.7959,-0.7348,-0.7053,-0.6927,-0.6553,-0.6472,-0.6615,-0.6615,-0.6538,-0.6542,-0.7176,-0.6707,-0.5892,-0.549,-0.4896,-0.4403,-0.424,-0.4159,-0.395,-0.3771,-0.3681,-0.3423,-0.2857,-0.2634,-0.2252,-0.1409,-0.2119,-0.2823,-0.2489,-0.2501,-0.2496,-0.244,-0.2707,0.0,0.0,0.0,0.0,-0.0787,0.048,0.0865,0.0,-0.0262,0.0,0.0,0.0,0.0,0.0,0.0,0.0,0.0,-0.6098,0.0,-0.7882,-0.8714,-0.9066,-0.8915,-0.8596,-0.785,-0.673,-0.6429,-0.5345,-0.3836,-0.411,-0.3591,-0.2455,-0.2538,-0.2595,-0.2639,-0.2722,-0.2778,-0.2819,-0.2879,-0.2901,-0.2997,-0.6836,-0.6936,-0.7036,-0.7338,-0.7437,-0.7505,-0.7906,-0.7436,-0.7185,-0.7742,-0.7268,-0.6874,-0.7051,-0.7139,0.0,-0.8109,-0.7492,-0.7512,-0.8547,-0.8131,-0.7681,-0.7345,-0.7088,-0.6441,-0.5366,0.0,0.0,-0.4122,-0.4442,-0.4565,-0.4662,-0.4984,-0.5277,-0.545,-0.6071,-0.6599,-0.7031,-0.7379,-0.7348,-0.7014,-0.7115,-0.6983,-0.6739,-0.6503,-0.6412,-0.6335,-0.5637,-0.5476,-0.5544,-0.5544,-0.5547,-0.5631,-0.5879,-0.5118,-0.4143,-0.4688,-0.4428,-0.4032,-0.4165,-0.3822,-0.3367,-0.3136,-0.3371,-0.3195,-0.1543,-0.1169,-0.0941,-0.0157,-0.0858,-0.1632,-0.1962,-0.2029,-0.2023,-0.2042,-0.2278,-0.2033,-0.0696,0.0,0.0,0.0,0.0,0.0,0.0,-0.0264,-0.073,0.0,0.0,0.0,0.0,0.0,0.0,-0.515,-0.7021,0.0,-0.9075,-0.9444,-0.9421,-0.914,-0.8348,-0.7456,-0.649,-0.6199,-0.5375,-0.4137,-0.4428,-0.3847,-0.2729,-0.2841,-0.2835,-0.2643,-0.2719,-0.2777,-0.2824,-0.2884,-0.2892,-0.3066,-0.6337,-0.6337,0.0,0.0,-0.6437,0.0,-0.6437,-0.6244,-0.6283,-0.675,-0.6609,-0.6618,-0.7051,-0.7139,-0.7404,-0.8021,0.0,0.0,0.0,-0.7673,-0.7019,-0.5904,-0.5843,-0.5442,-0.453,-0.4051,-0.3856,-0.3952,-0.4054,-0.4144,-0.4129,-0.4218,-0.4306,-0.43,-0.5188,-0.5633,-0.563,-0.6508,-0.6349,-0.5542,-0.6282,-0.582,-0.4718,-0.5644,-0.6064,-0.5977,-0.5176,-0.4781,-0.4623,-0.4623,-0.4628,-0.4636,-0.4643,-0.3277,-0.2116,-0.4151,-0.4309,-0.395,-0.4194,-0.3345,-0.2175,-0.1614,-0.2509,-0.2889,-0.053,-0.0,-0.0,-0.0,-0.0,-0.0229,-0.1095,-0.1234,-0.1148,-0.0939,-0.1569,-0.1321,0.0758,0.0,0.0,0.0,0.0,0.0,0.0,-0.0323,-0.1309,0.0,0.0,0.0,0.0,0.0,-0.3971,-0.7791,-0.804,-0.8973,-1.0701,-0.9857,-0.9136,-0.857,-0.7692,-0.7068,-0.6679,-0.6252,-0.55,-0.4541,-0.4848,-0.4355,-0.3244,-0.3333,-0.3224,-0.286,-0.278,-0.2856,-0.297,-0.3029,-0.3016,-0.3168,0.0,0.0,-0.5937,-0.6337,-0.6437,-0.6437,-0.6437,-0.6603,-0.6759,-0.6759,-0.6971,-0.7182,-0.7064,-0.7139,-0.7139,-0.7316,-0.7128,-0.6949,-0.6838,-0.6789,-0.6461,-0.5689,-0.5257,-0.4867,-0.4589,-0.3799,-0.307,-0.2438,-0.262,-0.2675,-0.2688,-0.3767,-0.4308,-0.4306,-0.4574,-0.4663,-0.4663,-0.4839,-0.4825,-0.4621,-0.4615,-0.3914,-0.2824,-0.2921,-0.334,-0.3839,-0.3602,-0.2504,-0.1174,-0.1174,-0.1173,-0.1176,-0.1038,-0.0653,-0.058,-0.2203,-0.2509,-0.2662,-0.3954,-0.4097,-0.2818,0.1367,0.0788,-0.0775,-0.0152,-0.0,-0.0,-0.0,-0.0,-0.0078,-0.0235,-0.0313,0.0312,0.2278,0.2634,0.2594,0.2347,0.4463,0.0,0.0,0.4206,0.3445,0.1371,0.0549,-0.041,0.0,0.0,0.0,0.0,-0.188,-0.3536,-0.6973,-0.8486,-0.9452,-0.9863,-0.9698,-0.9355,-0.8728,-0.8203,-0.7521,-0.6675,-0.5988,-0.5138,-0.4141,-0.4002,-0.3743,-0.3461,-0.3542,-0.3867,-0.4199,-0.3681,-0.3503,-0.3592,-0.3119,-0.341,-0.406,-0.5135,-0.5236,-0.5334,-0.5636,-0.5634,-0.5634,-0.5634,-0.6041,-0.6335,-0.6463,-0.6855,-0.7154,-0.7255,-0.6917,-0.6587,-0.6521,-0.6797,-0.6827,-0.6593,-0.6512,-0.6089,-0.5251,-0.4857,-0.447,-0.3925,-0.3139,-0.2169,-0.1009,-0.1131,-0.1154,-0.1254,-0.1972,-0.2689,-0.3406,-0.4037,-0.3859,-0.3136,-0.2777,-0.2583,-0.2557,-0.2444,-0.1959,-0.132,-0.0652,-0.0559,-0.0782,-0.0782,-0.0078,0.094,0.1568,0.1815,0.1834,0.1939,0.1992,0.1952,0.1162,0.0507,-0.0259,-0.1099,-0.1418,-0.0658,0.2901,0.222,0.0704,0.1081,0.0856,0.0471,0.0079,-0.0,-0.0,-0.0,-0.0,0.1086,0.4406,0.487,0.4616,0.3948,0.4709,0.0,0.4146,0.4199,0.3464,0.1401,0.098,0.0278,-0.0892,0.0,0.0,-0.1257,-0.216,-0.4056,-0.7009,-0.816,-0.9122,-0.9768,-0.9308,-0.8659,-0.7912,-0.7451,-0.6798,-0.5947,-0.5282,-0.4686,-0.4164,-0.4074,-0.3831,-0.3574,-0.3718,-0.4068,-0.4365,-0.3998,-0.4096,-0.4395,-0.4032,-0.4223,-0.4676,-0.4832,-0.4824,-0.482,-0.4832,-0.4834,-0.4834,-0.4834,-0.5268,-0.5799,-0.6171,-0.6543,-0.6936,-0.7187,-0.6517,-0.6039,-0.5754,-0.6248,-0.6521,-0.6376,-0.6231,-0.5778,-0.4729,-0.4553,-0.4075,-0.3217,-0.2519,-0.1451,-0.0,-0.0,-0.0,-0.0,-0.0,-0.0628,-0.188,-0.2949,-0.2854,-0.1692,-0.0799,-0.0263,-0.0086,0.0173,0.0337,0.0487,0.1379,0.2,0.2272,0.2195,0.2273,0.2431,0.3458,0.3905,0.3972,0.3984,0.411,0.4237,0.4257,0.3437,0.252,0.2551,0.2417,0.261,0.3506,0.2526,0.1575,0.2361,0.1965,0.1257,0.055,0.0155,-0.0,-0.0,0.0232,0.1531,0.5085,0.5322,0.5038,0.5093,0.0,0.4873,0.3664,0.4084,0.36,0.1342,0.1203,0.099,0.021,-0.0144,-0.0369,0.0,-0.2151,-0.4287,-0.664,-0.7323,-0.8182,-0.9355,-0.8429,-0.7555,-0.6728,-0.6272,-0.5745,-0.5087,-0.4553,-0.4287,-0.4228,-0.428,-0.4116,-0.379,-0.3964,-0.4169,-0.434,-0.4353,-0.4642,-0.5092,-0.505,-0.5043,-0.5192,-0.4828,-0.4781,-0.4751,-0.4822,-0.4834,-0.4834,-0.4834,-0.5622,-0.6275,-0.6182,-0.6908,-0.7233,-0.6551,-0.6248,-0.5808,-0.5164,-0.5165,-0.5064,-0.4959,-0.4846,-0.4695,-0.4518,-0.3959,-0.3604,-0.3686,-0.2884,-0.1641,-0.0,-0.0,-0.0,-0.0,-0.0,-0.009,-0.0358,0.0176,-0.0087,-0.0959,-0.0086,0.1016,0.2281,0.3381,0.3827,0.3818,0.3893,0.3995,0.3992,0.3604,0.3765,0.416,0.3851,0.3779,0.3878,0.3877,0.3975,0.4071,0.4222,0.4124,0.3995,0.4008,0.4316,0.4344,0.3435,0.2585,0.2087,0.2448,0.2438,0.2281,0.2123,0.1018,-0.0,-0.0,0.1175,0.2254,0.2671,0.3111,0.3575,0.4041,0.0,0.326,0.3179,0.2907,0.2548,0.2177,0.2219,0.2134,0.1899,0.1941,0.1474,0.0302,-0.0076,-0.1284,-0.3529,-0.5693,-0.6813,-0.6765,-0.6459,-0.6226,-0.6067,-0.6005,-0.5609,-0.5087,-0.468,-0.4284,-0.3897,-0.3666,-0.3768,-0.4085,-0.4561,-0.5063,-0.563,-0.5402,-0.5532,-0.5697,-0.4921,-0.5009,-0.5591,-0.3472,-0.4208,-0.4745,-0.4785,-0.4734,-0.4866,-0.5163,-0.5899,-0.6492,-0.6569,-0.7273,-0.7338,-0.6377,-0.5852,-0.5253,-0.4478,-0.3993,-0.3782,-0.366,-0.4168,-0.4299,-0.3976,-0.357,-0.3292,-0.3136,-0.2733,-0.2126,-0.1322,-0.0422,-0.0,-0.0,-0.0,-0.0,-0.0,0.0444,0.0703,0.0955,0.1375,0.2209,0.3194,0.3783,0.4231,0.4549,0.4463,0.4477,0.4543,0.4077,0.4155,0.447,0.4235,0.4227,0.4313,0.4463,0.4656,0.4787,0.4777,0.4541,0.437,0.4548,0.4781,0.4815,0.403,0.3491,0.2981,0.2605,0.2514,0.2523,0.2479,0.1904,0.1104,0.016,0.1348,0.2193,0.1158,0.2262,0.0,0.0,0.3099,0.309,0.3489,0.3095,0.2868,0.3147,0.3173,0.318,0.3289,0.318,0.2813,0.2225,0.1921,0.1068,-0.0301,-0.3724,-0.5587,-0.5575,-0.5505,-0.5272,-0.4878,-0.4953,-0.4722,-0.4188,-0.404,-0.3858,-0.3655,-0.3489,-0.3632,-0.3865,-0.4358,-0.501,-0.5694,-0.5761,-0.5922,-0.6089,-0.5578,-0.5603,-0.573,-0.1948,-0.3068,-0.4263,-0.4569,-0.4745,-0.5001,-0.5196,-0.5869,-0.6305,-0.6505,-0.6927,-0.6905,-0.5958,-0.525,-0.4555,-0.3767,-0.323,-0.2875,-0.2875,-0.3663,-0.3876,-0.3383,-0.3291,-0.2995,-0.2511,-0.2476,-0.2507,-0.252,-0.1241,-0.0422,-0.0,-0.0,-0.0,-0.0,-0.0,0.087,0.2226,0.2385,0.2943,0.3555,0.3722,0.417,0.4666,0.4826,0.5012,0.5012,0.4623,0.4545,0.4701,0.457,0.4691,0.4819,0.5086,0.5377,0.5526,0.5404,0.5004,0.4612,0.4998,0.5157,0.5104,0.4557,0.4335,0.3893,0.2762,0.2522,0.2546,0.2514,0.2329,0.1914,0.0811,0.1518,0.1882,0.0778,0.0,0.0,0.0,0.3182,0.3372,0.3858,0.3624,0.353,0.3792,0.3797,0.3911,0.4058,0.3873,0.3812,0.3902,0.3517,0.2858,0.1961,-0.1858,-0.3986,-0.4209,-0.4411,-0.4228,-0.3722,-0.3875,-0.379,-0.3401,-0.3469,-0.3499,-0.3501,-0.3522,-0.3567,-0.3628,-0.4102,-0.4658,-0.5237,-0.558,-0.5832,-0.6116,-0.5993,-0.5855,-0.5689,-0.0764,-0.1408,-0.2794,-0.4271,-0.5032,-0.5196,-0.4508,-0.5275,-0.5737,-0.5024,-0.5257,-0.523,-0.4559,-0.4131,-0.3678,-0.3053,-0.2963,-0.2875,-0.2875,-0.2896,-0.2943,-0.2856,-0.274,-0.2648,-0.2512,-0.2515,-0.2466,-0.252,-0.2361,-0.1485,-0.0,-0.0,-0.0,-0.0,-0.0,0.0492,0.1471,0.2156,0.2843,0.3465,0.4093,0.4716,0.5335,0.596,0.619,0.6103,0.5637,0.5482,0.55,0.5217,0.5186,0.5219,0.5408,0.5532,0.5529,0.5407,0.5376,0.541,0.5593,0.5971,0.5911,0.4484,0.4432,0.438,0.2852,0.2553,0.2595,0.2518,0.1869,0.1543,0.22,0.1838,0.1559,0.2207,0.0,0.0,0.3597,0.3493,0.3583,0.4005,0.407,0.3963,0.3786,0.3861,0.3919,0.4065,0.4156,0.4187,0.4377,0.4304,0.3637,0.2339,-0.0215,-0.1586,-0.168,-0.2488,-0.2865,-0.2799,-0.3087,-0.3345,-0.3499,-0.3574,-0.3574,-0.3578,-0.3583,-0.362,-0.3632,-0.3951,-0.4209,-0.4317,-0.4896,-0.5181,-0.5236,-0.5167,-0.5315,-0.5344,-0.1779,-0.1749,-0.2182,-0.3482,-0.415,-0.443,-0.452,-0.4937,-0.5214,-0.5149,-0.5326,-0.5174,-0.4294,-0.4131,-0.3796,-0.3021,-0.2894,-0.2875,-0.2875,-0.2853,-0.2805,-0.273,-0.2646,-0.2591,-0.2567,-0.253,-0.246,-0.252,-0.2483,-0.2189,-0.1514,-0.0498,-0.0,-0.0,-0.0,0.0165,0.065,0.2737,0.3655,0.3754,0.4616,0.5321,0.5948,0.6183,0.6338,0.6271,0.5887,0.5756,0.5778,0.5749,0.5847,0.5913,0.613,0.6298,0.6401,0.6348,0.637,0.6439,0.6571,0.652,0.6119,0.4913,0.4657,0.4408,0.2907,0.2555,0.2556,0.2516,0.2254,0.1841,0.1055,0.0719,0.1175,0.3337,0.0,0.3291,0.3349,0.3709,0.4134,0.4686,0.4616,0.4671,0.4902,0.4938,0.4997,0.5144,0.5273,0.5412,0.5547,0.4932,0.4334,0.3774,0.2114,0.0565,-0.0826,-0.1656,-0.1944,-0.1683,-0.1812,-0.2071,-0.2314,-0.2501,-0.2978,-0.3749,-0.3703,-0.3718,-0.3724,-0.3891,-0.3736,-0.3566,-0.4432,-0.5064,-0.5497,-0.525,-0.4308,-0.3049,-0.2664,-0.2447,-0.2241,-0.3138,-0.3711,-0.4095,-0.4186,-0.4522,-0.471,-0.4749,-0.4769,-0.4548,-0.3856,-0.3801,-0.3658,-0.3054,-0.2906,-0.2875,-0.2875,-0.2875,-0.2828,-0.2725,-0.2681,-0.265,-0.2629,-0.2589,-0.2507,-0.2465,-0.1858,-0.1624,-0.1664,-0.0655,0.0163,0.0577,0.0577,0.0735,0.1207,0.3216,0.398,0.3992,0.4774,0.5479,0.6106,0.6261,0.6288,0.6342,0.6118,0.626,0.6485,0.6386,0.6583,0.6826,0.6858,0.6878,0.6929,0.6929,0.6929,0.6949,0.7048,0.6721,0.6171,0.5475,0.5088,0.463,0.3343,0.257,0.2074,0.1785,0.2171,0.2157,0.0811,0.0798,0.1569,0.3694,0.3795,0.3613,0.3589,0.4088,0.4642,0.5283,0.527,0.5378,0.5671,0.5657,0.5718,0.5864,0.5969,0.6098,0.6251,0.5323,0.4737,0.4736,0.3581,0.1971,-0.0,-0.0988,-0.1413,-0.115,-0.0894,-0.0912,-0.1071,-0.1245,-0.1804,-0.2592,-0.3062,-0.3219,-0.3222,-0.3193,-0.3025,-0.2772,-0.3359,-0.3709,-0.3935,-0.3793,-0.2726,-0.1237,-0.2886,-0.3141,-0.3317,-0.3317,-0.3983,-0.4279,-0.3525,-0.3934,-0.413,-0.333,-0.3177,-0.314,-0.3139,-0.3031,-0.2959,-0.2958,-0.2906,-0.2875,-0.2875,-0.2875,-0.2847,-0.2786,-0.2783,-0.2755,-0.2609,-0.2608,-0.2524,-0.244,-0.042,0.0415,-0.0,-0.0244,0.0401,0.1882,0.1882,0.2433,0.3299,0.3299,0.361,0.4157,0.4545,0.509,0.5637,0.6106,0.6349,0.6471,0.6474,0.6975,0.7635,0.7048,0.735,0.7881,0.7267,0.7044,0.6929,0.6929,0.6929,0.6929,0.6929,0.6583,0.6236,0.6064,0.5624,0.5119,0.4308,0.2601,0.1058,0.0163,0.1465,0.2525,0.203,0.2471,0.2982,0.3299,0.3219,0.3452,0.4545,0.4701,0.5043,0.5897,0.603,0.5969,0.5817,0.5803,0.5867,0.6017,0.603,0.6098,0.6254,0.5476,0.5004,0.5004,0.3906,0.2572,0.1133,-0.0503,-0.1296,-0.1288,-0.0454,-0.0,-0.0,-0.0,-0.0,-0.0079,-0.1333,-0.1882,-0.1882,-0.1883,-0.1855,-0.185,-0.143,-0.0777,-0.0,-0.0358,-0.0459,-0.0285,-0.2877,-0.2963,-0.3051,-0.3051,-0.3341,-0.3413,-0.3179,-0.3416,-0.3414,-0.3172,-0.3188,-0.3187,-0.3144,-0.307,-0.3006,-0.2962,-0.2906,-0.2875,-0.2875,-0.2875,-0.2865,-0.2847,-0.2807,-0.2775,-0.2842,-0.2034,-0.1185,-0.0086,0.025,0.0748,0.1361,0.1071,0.1213,0.1768,0.2816,0.3351,0.3694,0.4084,0.4318,0.4474,0.5093,0.5404,0.5637,0.6106,0.6288,0.6349,0.6559,0.6756,0.6838,0.7042,0.7097,0.7207,0.7095,0.7112,0.7078,0.7078,0.7007,0.6843,0.6586,0.627,0.5915,0.5502,0.5032,0.4219,0.2841,0.2005,0.1428,0.1032,0.0874,0.1191,0.2538,0.3156,0.3692,0.4162,0.4162,0.4394,0.5249,0.5326,0.5544,0.612,0.6095,0.6013,0.5966,0.5962,0.5979,0.6027,0.6507,0.6714,0.6479,0.622,0.5854,0.5401,0.4363,0.3275,0.209,-0.0751,-0.2166,-0.2124,-0.1851,-0.117,-0.0,-0.0,0.0628,0.165,0.0078,-0.0555,-0.0564,-0.0573,-0.0587,-0.0431,0.105,0.1774,0.2062,0.1883,0.1932,0.2094,-0.2784,-0.2875,-0.2875,-0.2875,-0.2952,-0.3003,-0.3059,-0.3075,-0.3157,-0.3144,-0.3174,-0.3183,-0.3147,-0.3089,-0.3027,-0.2966,-0.2907,-0.2875,-0.2875,-0.2875,-0.2694,-0.2334,-0.2661,-0.2819,-0.2907,-0.226,-0.1129,0.0528,0.1445,0.2106,0.2741,0.2501,0.2458,0.2517,0.3415,0.3875,0.3822,0.4175,0.4394,0.4548,0.5168,0.5479,0.5637,0.6106,0.6295,0.6376,0.6614,0.6805,0.6937,0.7028,0.7,0.6943,0.7031,0.7095,0.7129,0.7071,0.6824,0.6573,0.626,0.575,0.5219,0.4949,0.4606,0.4174,0.3079,0.2393,0.1882,0.1256,0.102,0.1334,0.2433,0.3141,0.3692,0.4238,0.4394,0.4688,0.518,0.5402,0.5711,0.6093,0.6088,0.6054,0.6115,0.6122,0.6146,0.62,0.6677,0.6774,0.6548,0.6537,0.6305,0.5867,0.5166,0.433,0.3482,0.0937,-0.1084,-0.2463,-0.25,-0.1965,-0.0943,-0.0317,0.0956,0.2633,0.1514,0.0646,0.0083,0.1244,0.1692,0.1829,0.2823,0.3118,0.3051,0.332,0.3406,0.3241,-0.2334,-0.2694,-0.2784,-0.2784,-0.2741,-0.2777,-0.2958,-0.2918,-0.2979,-0.3033,-0.304,-0.304,-0.304,-0.2988,-0.2929,-0.287,-0.2906,-0.2875,-0.2875,-0.2875,-0.2513,-0.1524,-0.2334,-0.2873,-0.2873,-0.2694,-0.1796,-0.0,0.2462,0.3707,0.3802,0.3958,0.382,0.3655,0.3818,0.3895,0.3881,0.3799,0.3997,0.446,0.4849,0.524,0.5637,0.6106,0.6349,0.6491,0.6647,0.7112,0.7552,0.7045,0.6939,0.6949,0.6949,0.7027,0.7007,0.688,0.6566,0.6181,0.6068,0.5189,0.4369,0.4306,0.4482,0.4592,0.4359,0.3427,0.2198,0.1178,0.1805,0.2435,0.2128,0.2596,0.3221,0.3694,0.4157,0.4506,0.4787,0.5139,0.5585,0.5972,0.6037,0.6091,0.6247,0.6274,0.6346,0.6502,0.6582,0.6579,0.6592,0.6659,0.6586,0.644,0.6197,0.5937,0.5411,0.3966,0.1445,-0.2135,-0.2214,-0.2294,-0.2217,-0.0647,0.1061,0.2862,0.2697,0.1654,0.0421,0.3057,0.4206,0.428,0.3836,0.3619,0.3506,0.4131,0.4058,0.3633,-0.0538,-0.1256,-0.1705,-0.1705,-0.1734,-0.1749,-0.1721,-0.1864,-0.1911,-0.1824,-0.192,-0.192,-0.192,-0.198,-0.1941,-0.2083,-0.2611,-0.2875,-0.2875,-0.2875,-0.2693,-0.2239,-0.2332,-0.2333,-0.233,-0.1256,-0.0449,-0.0,0.0614,0.1907,0.3978,0.3902,0.3902,0.398,0.3899,0.3859,0.3791,0.3771,0.3997,0.446,0.4849,0.524,0.5637,0.6106,0.6349,0.6491,0.6647,0.6781,0.6888,0.6878,0.7004,0.7095,0.7095,0.7041,0.6883,0.6506,0.6257,0.5855,0.5183,0.4965,0.4772,0.4625,0.4831,0.4733,0.3489,0.2915,0.2603,0.225,0.2385,0.2617,0.3043,0.3057,0.3238,0.3778,0.4202,0.453,0.4892,0.5194,0.5623,0.6196,0.6105,0.6091,0.6247,0.6363,0.6539,0.681,0.713,0.736,0.7403,0.7698,0.7935,0.7979,0.7963,0.8145,0.8684,0.6597,0.403,0.0988,0.0083,-0.0414,-0.0414,-0.0083,0.1085,0.2841,0.3178,0.2793,0.1812,0.2405,0.3309,0.4281,0.4455,0.46,0.4776,0.4954,0.4799,0.439,-0.0,-0.0359,-0.0718,-0.0718,-0.0725,-0.0727,-0.072,-0.0823,-0.0837,-0.0751,-0.0758,-0.0855,-0.0847,-0.1221,-0.1763,-0.234,-0.2694,-0.2875,-0.2875,-0.332,-0.3317,-0.2867,-0.3047,-0.3227,-0.3227,-0.2537,-0.145,-0.0,-0.0,0.0684,0.2138,0.2674,0.3287,0.398,0.3899,0.3873,0.3826,0.3781,0.3997,0.4309,0.4465,0.4776,0.5087,0.5634,0.5871,0.6086,0.6562,0.6749,0.681,0.6817,0.6919,0.7041,0.7041,0.6814,0.657,0.6248,0.5791,0.5181,0.4565,0.4544,0.4627,0.4444,0.47,0.4831,0.4002,0.3857,0.373,0.3167,0.3164,0.3265,0.3345,0.3379,0.3489,0.3818,0.4336,0.4737,0.486,0.5324,0.5836,0.6142,0.6142,0.6227,0.6447,0.6536,0.6678,0.6912,0.7105,0.7344,0.7595,0.8106,0.8516,0.8759,0.9313,0.9769,1.0316,0.8434,0.686,0.5395,0.2358,0.1173,0.1764,0.1529,0.2135,0.3246,0.3249,0.3117,0.2732,0.2707,0.3258,0.4127,0.4574,0.4901,0.508,0.5259,0.5207,0.491,-0.0,-0.0,-0.0,-0.0,-0.0,-0.0,-0.0,-0.0,-0.0,-0.0,-0.0,-0.0094,-0.0463,-0.103,-0.177,-0.2793,-0.2963,-0.3053,-0.3053,-0.3942,-0.421,-0.3674,-0.4121,-0.4391,-0.4395,-0.4491,-0.3206,-0.0358,-0.0087,-0.0,-0.0,0.1071,0.2359,0.3714,0.3957,0.4038,0.4112,0.3953,0.3999,0.4155,0.4079,0.4153,0.4462,0.4929,0.5328,0.563,0.6321,0.6729,0.6946,0.6817,0.6776,0.6791,0.6791,0.65,0.6099,0.5901,0.5272,0.4559,0.4168,0.4243,0.4435,0.4303,0.4668,0.5199,0.5265,0.5141,0.476,0.3952,0.4068,0.4204,0.3898,0.3882,0.4008,0.4258,0.4713,0.5031,0.4971,0.567,0.6197,0.6249,0.6395,0.6603,0.6712,0.6739,0.6803,0.6953,0.6966,0.7221,0.7729,0.8329,0.8852,0.9363,1.0413,1.1002,1.1293,1.0253,0.9738,0.9639,0.5371,0.3456,0.3823,0.3466,0.3408,0.3756,0.3322,0.3184,0.3329,0.3353,0.3542,0.3877,0.4506,0.4831,0.5011,0.5511,0.5641,0.5522,-0.0,-0.0,-0.0,-0.0,-0.0,-0.0,-0.0,-0.0,-0.0,-0.0,-0.0,-0.0638,-0.2312,-0.1827,-0.1806,-0.2785,-0.3406,-0.376,-0.376,-0.4476,-0.501,-0.5104,-0.4837,-0.4748,-0.4924,-0.4669,-0.3663,-0.188,-0.0635,-0.0,-0.0,0.0167,0.1309,0.3228,0.4099,0.4648,0.4792,0.4316,0.4311,0.4545,0.4077,0.4075,0.4384,0.4462,0.5066,0.5756,0.5856,0.6449,0.7109,0.7088,0.6828,0.6492,0.6492,0.599,0.5474,0.504,0.4634,0.4168,0.3816,0.4345,0.4989,0.517,0.5935,0.6632,0.6613,0.5678,0.4799,0.4706,0.4999,0.542,0.5714,0.5245,0.5108,0.5667,0.5412,0.522,0.5476,0.6259,0.6874,0.7246,0.7435,0.7371,0.6881,0.6898,0.6956,0.7102,0.7112,0.746,0.8424,0.8511,0.9196,1.0469,1.1401,1.2014,1.248,1.2886,1.2632,1.1895,1.059,0.8147,0.4782,0.4714,0.4281,0.366,0.3926,0.3974,0.368,0.3604,0.3617,0.3777,0.4505,0.4838,0.5135,0.5994,0.6583,0.6913,-0.0,-0.0,-0.0,-0.0,-0.0,-0.0,-0.0,-0.0,-0.0,-0.0,-0.0,-0.073,-0.2645,-0.3162,-0.3499,-0.3676,-0.4208,-0.4474,-0.4474,-0.5188,-0.5547,-0.5371,-0.528,-0.5188,-0.501,-0.4719,-0.4191,-0.3377,-0.2732,-0.1615,-0.0,0.0924,0.204,0.3114,0.4025,0.4626,0.4927,0.4387,0.4155,0.4153,0.3528,0.3294,0.337,0.368,0.4159,0.47,0.5256,0.5684,0.6034,0.6126,0.6088,0.5976,0.5976,0.5553,0.5047,0.4704,0.4333,0.3876,0.3449,0.4276,0.5229,0.5177,0.6246,0.7396,0.7396,0.7229,0.6883,0.6165,0.6349,0.6571,0.669,0.6526,0.6285,0.6139,0.6055,0.5863,0.5668,0.6802,0.7873,0.8483,0.8355,0.8062,0.7469,0.7302,0.72,0.7265,0.735,0.7629,0.8255,0.8694,0.927,1.0038,1.1241,1.21,1.2534,1.2869,1.2863,1.2687,1.1735,0.9904,0.7281,0.6495,0.5654,0.4818,0.4499,0.3989,0.3602,0.335,0.3247,0.3276,0.3956,0.4799,0.5812,0.6572,0.7039,0.7238]},{"header":{"parameterUnit":"m.s-1","parameterCategory":1,"la1":30.6,"la2":28.766,"lo1":-90.7593,"lo2":-88.6598,"dy":0.0162,"dx":0.0183,"nx":116,"ny":114,"refTime":"2023-07-11T12:00:00:Z","depth":0,"parameterNumber":3,"parameterNumberName":"V-component_of_WINDS"},"data":[0.0,0.0,0.0,0.0,0.0,0.0,0.0,0.0,0.0,0.0,0.0,0.0,0.0,0.0,0.0,0.0,0.0,0.0,0.0,0.0,0.0,0.0,0.0,0.0,0.0,0.0,0.0,0.0,0.0,0.0,0.0,0.0,0.0,0.0,0.0,0.0,0.0,0.0,0.0,0.0,0.0,0.0,0.0,0.0,0.0,0.0,0.0,0.0,0.0,0.0,0.0,0.0,0.0,0.0,0.0,0.0,0.0,0.0,0.0,0.0,0.0,0.0,0.0,0.0,0.0,0.0,0.0,0.0,0.0,0.0,0.0,0.0,0.0,0.0,0.0,0.0,0.0,0.0,0.0,0.0,0.0,0.0,0.0,0.0,0.0,0.0,0.0,0.0,0.0,0.0,0.0,0.0,0.0,0.0,0.0,0.0,0.0,0.0,0.0,0.0,0.0,0.0,0.0,0.0,0.0,0.0,0.0,0.0,0.0,0.0,0.0,0.0,0.0,0.0,0.0,0.0,0.0,0.0,0.0,0.0,0.0,0.0,0.0,0.0,0.0,0.0,0.0,0.0,0.0,0.0,0.0,0.0,0.0,0.0,0.0,0.0,0.0,0.0,0.0,0.0,0.0,0.0,0.0,0.0,0.0,0.0,0.0,0.0,0.0,0.0,0.0,0.0,0.0,0.0,0.0,0.0,0.0,0.0,0.0,0.0,0.0,0.0,0.0,0.0,0.0,0.0,0.0,0.0,0.0,0.0,0.0,0.0,0.0,0.0,0.0,0.0,0.0,0.0,0.0,0.0,0.0,0.0,0.0,0.0,0.0,0.0,0.0,0.0,0.0,0.0,0.0,0.0,0.0,0.0,0.0,0.0,0.0,0.0,0.0,0.0,0.0,0.0,0.0,0.0,0.0,0.0,0.0,0.0,0.0,0.0,0.0,0.0,0.0,0.0,0.0,0.0,0.0,0.0,0.0,0.0,0.0,0.0,0.0,0.0,0.0,0.0,0.0,0.0,0.0,0.0,0.0,0.0,0.0,0.0,0.0,0.0,0.0,0.0,0.0,0.0,0.0,0.0,0.0,0.0,0.0,0.0,0.0,0.0,0.0,0.0,0.0,0.0,0.0,0.0,0.0,0.0,0.0,0.0,0.0,0.0,0.0,0.0,0.0,0.0,0.0,0.0,0.0,0.0,0.0,0.0,0.0,0.0,0.0,0.0,0.0,0.0,0.0,0.0,0.0,0.0,0.0,0.0,0.0,0.0,0.0,0.0,0.0,0.0,0.0,0.0,0.0,0.0,0.0,0.0,0.0,0.0,0.0,0.0,0.0,0.0,0.0,0.0,0.0,0.0,0.0,0.0,0.0,0.0,0.0,0.0,0.0,0.0,0.0,0.0,0.0,0.0,0.0,0.0,0.0,0.0,0.0,0.0,0.0,0.0,0.0,0.0,0.0,0.0,0.0,0.0,0.0,0.0,0.0,0.0,0.0,0.0,0.0,0.0,0.0,0.0,0.0,0.0,0.0,0.0,0.0,0.0,0.0,0.0,0.0,0.0,0.0,0.0,0.0,0.0,0.0,0.0,0.0,0.0,0.0,0.0,0.0,0.0,0.0,0.0,0.0,0.0,0.0,0.0,0.0,0.0,0.0,0.0,0.0,0.0,0.0,0.0,0.0,0.0,0.0,0.0,0.0,0.0,0.0,0.0,0.0,0.0,0.0,0.0,0.0,0.0,0.0,0.0,0.0,0.0,0.0,0.0,0.0,0.0,0.0,0.0,0.0,0.0,0.0,0.0,0.0,0.0,0.0,0.0,0.0,0.0,0.0,0.0,0.0,0.0,0.0,0.0,0.0,0.0,0.0,0.0,0.0,0.0,0.0,0.0,0.0,0.0,0.0,0.0,0.0,0.0,0.0,0.0,0.0,0.0,0.0,0.0,0.0,0.0,0.0,0.0,0.0,0.0,0.0,0.0,0.0,0.0,0.0,0.0,0.0,0.0,0.0,0.0,0.0,0.0,0.0,0.0,0.0,0.0,0.0,0.0,0.0,0.0,0.0,0.0,0.0,0.0,0.0,0.0,0.0,0.0,0.0,0.0,0.0,0.0,0.0,0.0,0.0,0.0,0.0,0.0,0.0,0.0,0.0,0.0,0.0,0.0,0.0,0.0,0.0,0.0,0.0,0.0,0.0,0.0,0.0,0.0,0.0,0.0,0.0,0.0,0.0,0.0,0.0,0.0,0.0,0.0,0.0,0.0,0.0,0.0,0.0,0.0,0.0,0.0,0.0,0.0,0.0,0.0,0.0,0.0,0.0,0.0,0.0,0.0,0.0,0.0,0.0,0.0,0.0,0.0,0.0,0.0,0.0,0.0,0.0,0.0,0.0,0.0,0.0,0.0,0.0,0.0,0.0,0.0,0.0,0.0,0.0,0.0,0.0,0.0,0.0,0.0,0.0,0.0,0.0,0.0,0.0,0.0,0.0,0.0,0.0,0.0,0.0,0.0,0.0,0.0,0.0,0.0,0.0,0.0,0.0,0.0,0.0,0.0,0.0,0.0,0.0,0.0,0.0,0.0,0.0,0.0,0.0,0.0,0.0,0.0,0.0,0.0,0.0,0.0,0.0,0.0,0.0,0.0,0.0,0.0,0.0,0.0,0.0,0.0,0.0,0.0,0.0,0.0,0.0,0.0,0.0,0.0,0.0,0.0,0.0,0.0,0.0,0.0,0.0,0.0,0.0,0.0,0.0,0.0,0.0,0.0,0.0,0.0,0.0,0.0,0.0,0.0,0.0,0.0,0.0,0.0,0.0,0.0,0.0,0.0,0.0,0.0,0.0,0.0,0.0,0.0,0.0,0.0,0.0,0.0,0.0,0.0,0.0,0.0,0.0,0.0,0.0,0.0,0.0,0.0,0.0,0.0,0.0,0.0,0.0,0.0,0.0,0.0,0.0,0.0,0.0,0.0,0.0,0.0,0.0,0.0,0.0,0.0,0.0,0.0,0.0,0.0,0.0,0.0,0.0,0.0,0.0,0.0,0.0,0.0,0.0,0.0,0.0,0.0,0.0,0.0,0.0,0.0,0.0,0.0,0.0,0.0,0.0,0.0,0.0,0.0,0.0,0.0,0.0,0.0,0.0,0.0,0.0,0.0,0.0,0.0,0.0,0.0,0.0,0.0,0.0,0.0,0.0,0.0,0.0,0.0,0.0,0.0,0.0,0.0,0.0,0.0,0.0,0.0,0.0,0.0,0.0,0.0,0.0,0.0,0.0,0.0,0.0,0.0,0.0,0.0,0.0,0.0,0.0,0.0,0.0,0.0,0.0,0.0,0.0,0.0,0.0,0.0,0.0,0.0,0.0,0.0,0.0,0.0,0.0,0.0,0.0,0.0,0.0,0.0,0.0,0.0,0.0,0.0,0.0,0.0,0.0,0.0,0.0,0.0,0.0,0.0,0.0,0.0,0.0,0.0,0.0,0.0,0.0,0.0,0.0,0.0,0.0,0.0,0.0,0.0,0.0,0.0,0.0,0.0,0.0,0.0,0.0,0.0,0.0,0.0,0.0,0.0,0.0,0.0,0.0,0.0,0.0,0.0,0.0,0.0,0.0,0.0,0.0,0.0,0.0,0.0,0.0,0.0,0.0,0.0,0.0,0.0,0.0,0.0,0.0,0.0,0.0,0.0,0.0,0.0,0.0,0.0,0.0,0.0,0.0,0.0,0.0,0.0,0.0,0.0,0.0,0.0,0.0,0.0,0.0,0.0,0.0,0.0,0.0,0.0,0.0,0.0,0.0,0.0,0.0,0.0,0.0,0.0,0.0,0.0,0.0,0.0,0.0,0.0,0.0,0.0,0.0,0.0,0.0,0.0,0.0,0.0,0.0,0.0,0.0,0.0,0.0,0.0,0.0,0.0,0.0,0.0,0.0,0.0,0.0,0.0,0.0,0.0,0.0,0.0,0.0,0.0,0.0,0.0,0.0,0.0,0.0,0.0,0.0,0.0,0.0,0.0,0.0,0.0,0.0,0.0,0.0,0.0,0.0,0.0,0.0,0.0,0.0,0.0,0.0,0.0,0.0,0.0,0.0,0.0,0.0,0.0,0.0,0.0,0.0,0.0,0.0,0.0,0.0,0.0,0.0,0.0,0.0,0.0,0.0,0.0,0.0,0.0,0.0,0.0,0.0,0.0,0.0,0.0,0.0,0.0,0.0,0.0,0.0,0.0,0.0,0.0,0.0,0.0,0.0,0.0,0.0,0.0,0.0,0.0,0.0,0.0,0.0,0.0,0.0,0.0,0.0,0.0,0.0,0.0,0.0,0.0,0.0,0.0,0.0,0.0,0.0,0.0,0.0,0.0,0.0,0.0,0.0,0.0,0.0,0.0,0.0,0.0,0.0,0.0,0.0,0.0,0.0,0.0,0.0,0.0,0.0,0.0,0.0,0.0,0.0,0.0,0.0,0.0,0.0,0.0,0.0,0.0,0.0,0.0,0.0,0.0,0.0,0.0,0.0,0.0,0.0,0.0,0.0,0.0,0.0,0.0,0.0,0.0,0.0,0.0,0.0,0.0,0.0,0.0,0.0,0.0,0.0,0.0,0.0,0.0,0.0,0.0,0.0,0.0,0.0,0.0,0.0,0.0,0.0,0.0,0.0,0.0,0.0,0.0,0.0,0.0,0.0,0.0,0.0,0.0,0.0,0.0,0.0,0.0,0.0,0.0,0.0,0.0,0.0,0.0,0.0,0.0,0.0,0.0,0.0,0.0,0.0,0.0,0.0,0.0,0.0,0.0,0.0,0.0,0.0,0.0,0.0,0.0,0.0,0.0,0.0,0.0,0.0,0.0,0.0,0.0,0.0,0.0,0.0,0.0,0.0,0.0,0.0,0.0,0.0,0.0,0.0,0.0,0.0,0.0,0.0,0.0,0.0,0.0,0.0,0.0,0.0,0.0,0.0,0.0,0.0,0.0,0.0,0.0,0.0,0.0,0.0,0.0,0.0,0.0,0.0,0.0,0.0,0.0,0.0,0.0,0.0,0.0,0.0,0.0,0.0,0.0,0.0,0.0,0.0,0.0,0.0,0.0,0.0,0.0,0.0,0.0,0.0,0.0,0.0,0.0,0.0,0.0,0.0,0.0,0.0,0.0,0.0,0.0,0.0,0.0,0.0,0.0,0.0,0.0,0.0,0.0,0.0,0.0,0.0,0.0,0.0,0.0,0.0,0.0,0.0,0.0,0.0,0.0,0.0,0.0,0.0,0.0,0.0,0.0,0.0,0.0,0.0,0.0,0.0,0.0,0.0,0.0,0.0,0.0,0.0,0.0,0.0,0.0,0.0,0.0,0.0,0.0,0.0,0.0,0.0,0.0,0.0,0.0,0.0,0.0,0.0,0.0,0.0,0.0,0.0,0.0,0.0,0.0,0.0,0.0,0.0,0.0,0.0,0.0,0.0,0.0,0.0,0.0,0.0,0.0,0.0,0.0,0.0,0.0,0.0,0.0,0.0,0.0,0.0,0.0,0.0,0.0,0.0,0.0,0.0,0.0,0.0,0.0,0.0,0.0,0.0,0.0,0.0,0.0,0.0,0.0,0.0,0.0,0.0,0.0,0.0,0.0,0.0,0.0,0.0,0.0,0.0,0.0,0.0,0.0,0.0,0.0,0.0,0.0,0.0,0.0,0.0,0.0,0.0,0.0,0.0,0.0,0.0,0.0,0.0,0.0,0.0,0.0,0.0,0.0,0.0,0.0,0.0,0.0,0.0,0.0,0.0,0.0,0.0,0.0,0.0,0.0,0.0,0.0,0.0,0.0,0.0,0.0,0.0,0.0,0.0,0.0,0.0,0.0,0.0,0.0,0.0,0.0,0.0,0.0,0.0,0.0,0.0,0.0,0.0,0.0,0.0,0.0,0.0,0.0,0.0,0.0,0.0,0.0,0.0,0.0,0.0,0.0,0.0,0.0,0.0,0.0,0.0,0.0,0.0,0.0,0.0,0.0,0.0,0.0,0.0,0.0,0.0,0.0,0.0,0.0,0.0,0.0,0.0,0.0,0.0,0.0,0.0,0.0,0.0,0.0,0.0,0.0,0.0,0.0,0.0,0.0,0.0,0.0,0.0,0.0,-1.8734,0.0,0.0,0.0,0.0,0.0,0.0,0.0,0.0,0.0,0.0,0.0,0.0,0.0,0.0,0.0,0.0,0.0,0.0,0.0,0.0,0.0,0.0,0.0,0.0,0.0,0.0,0.0,0.0,0.0,0.0,0.0,0.0,0.0,0.0,0.0,0.0,0.0,0.0,0.0,0.0,0.0,0.0,0.0,0.0,0.0,0.0,0.0,0.0,0.0,0.0,0.0,0.0,0.0,0.0,0.0,0.0,0.0,0.0,0.0,0.0,0.0,0.0,0.0,0.0,0.0,0.0,0.0,0.0,0.0,0.0,0.0,0.0,0.0,0.0,0.0,0.0,0.0,0.0,0.0,0.0,0.0,0.0,0.0,0.0,0.0,0.0,0.0,0.0,0.0,0.0,0.0,0.0,0.0,0.0,0.0,0.0,0.0,0.0,0.0,0.0,0.0,0.0,0.0,0.0,0.0,0.0,0.0,0.0,0.0,0.0,0.0,0.0,0.0,0.0,0.0,0.0,-1.903,0.0,0.0,0.0,0.0,0.0,0.0,0.0,0.0,0.0,0.0,0.0,0.0,0.0,0.0,0.0,0.0,0.0,0.0,0.0,0.0,0.0,0.0,0.0,0.0,0.0,0.0,0.0,0.0,0.0,0.0,0.0,0.0,0.0,0.0,0.0,0.0,0.0,0.0,0.0,0.0,0.0,0.0,0.0,0.0,0.0,0.0,0.0,0.0,0.0,0.0,0.0,0.0,0.0,0.0,0.0,0.0,0.0,0.0,0.0,0.0,0.0,0.0,0.0,0.0,0.0,0.0,0.0,0.0,0.0,0.0,0.0,0.0,0.0,0.0,0.0,0.0,0.0,0.0,0.0,0.0,0.0,0.0,0.0,0.0,0.0,0.0,0.0,0.0,0.0,0.0,0.0,0.0,0.0,0.0,0.0,0.0,0.0,0.0,0.0,0.0,0.0,0.0,0.0,0.0,0.0,0.0,0.0,0.0,-2.069,-2.1045,-2.1547,-2.1055,-2.0803,-2.0813,-2.0496,-1.9707,-1.8678,-1.9371,0.0,0.0,0.0,0.0,0.0,0.0,0.0,0.0,0.0,0.0,0.0,0.0,0.0,0.0,0.0,0.0,0.0,0.0,0.0,0.0,0.0,0.0,0.0,0.0,0.0,0.0,0.0,0.0,0.0,0.0,0.0,0.0,0.0,0.0,0.0,0.0,0.0,0.0,0.0,0.0,0.0,0.0,0.0,0.0,0.0,0.0,0.0,0.0,0.0,0.0,0.0,0.0,0.0,0.0,0.0,0.0,0.0,0.0,0.0,0.0,0.0,0.0,0.0,0.0,0.0,0.0,0.0,0.0,0.0,0.0,0.0,0.0,0.0,0.0,0.0,0.0,0.0,0.0,0.0,0.0,0.0,0.0,0.0,0.0,0.0,0.0,-2.4306,-2.3979,0.0,0.0,0.0,0.0,0.0,0.0,0.0,0.0,0.0,0.0,0.0,0.0,0.0,-2.0786,-2.0995,-2.0889,-2.0826,-2.0872,-2.1786,-2.2096,-2.1858,-2.2236,-2.2413,-2.2368,-2.1764,0.0,-1.9352,-1.8096,0.0,0.0,0.0,0.0,0.0,0.0,0.0,0.0,0.0,0.0,0.0,0.0,0.0,0.0,0.0,0.0,0.0,0.0,0.0,0.0,0.0,0.0,0.0,0.0,0.0,0.0,0.0,0.0,0.0,0.0,0.0,0.0,0.0,0.0,0.0,0.0,0.0,0.0,0.0,0.0,0.0,0.0,0.0,0.0,0.0,0.0,0.0,0.0,0.0,0.0,0.0,0.0,0.0,0.0,0.0,0.0,0.0,0.0,0.0,0.0,0.0,0.0,0.0,0.0,0.0,0.0,0.0,0.0,0.0,0.0,0.0,0.0,0.0,0.0,0.0,0.0,0.0,0.0,0.0,0.0,0.0,0.0,0.0,0.0,0.0,-2.3878,-2.3909,-2.3473,-2.3768,-2.362,0.0,0.0,0.0,0.0,0.0,0.0,0.0,0.0,0.0,-2.0049,-2.0968,-2.1671,-2.2106,-2.2178,-2.2235,-2.2306,-2.2584,-2.272,-2.269,-2.2425,-2.2354,-2.2388,-2.1644,-2.0963,-2.0339,-1.9485,-1.9316,-1.9507,0.0,0.0,0.0,0.0,-1.774,-1.7263,0.0,0.0,0.0,0.0,0.0,0.0,0.0,0.0,0.0,0.0,0.0,0.0,0.0,0.0,0.0,0.0,0.0,0.0,0.0,0.0,0.0,0.0,0.0,0.0,0.0,0.0,0.0,0.0,0.0,0.0,0.0,0.0,0.0,0.0,0.0,0.0,0.0,0.0,0.0,0.0,0.0,0.0,0.0,0.0,0.0,0.0,0.0,0.0,0.0,0.0,0.0,0.0,0.0,0.0,0.0,0.0,0.0,0.0,0.0,0.0,0.0,0.0,0.0,0.0,0.0,0.0,0.0,0.0,0.0,0.0,0.0,0.0,0.0,0.0,0.0,0.0,0.0,-2.3336,-2.325,-2.2775,-2.3074,-2.2877,0.0,0.0,0.0,0.0,0.0,0.0,-1.7785,-1.9239,-2.0415,-2.1042,-2.1678,-2.2305,-2.2944,-2.2922,-2.3053,-2.3255,-2.2903,-2.2867,-2.3087,-2.2424,-2.2102,-2.2015,-2.1412,-2.1069,-2.0864,-2.0639,-2.0028,-1.9332,-1.9508,-1.9284,-1.8791,-1.8883,-1.853,-1.8112,0.0,0.0,0.0,0.0,0.0,0.0,0.0,0.0,0.0,0.0,0.0,0.0,0.0,0.0,0.0,0.0,0.0,0.0,0.0,0.0,0.0,0.0,0.0,0.0,0.0,0.0,0.0,0.0,0.0,0.0,0.0,0.0,0.0,0.0,0.0,0.0,0.0,0.0,0.0,0.0,0.0,0.0,0.0,0.0,0.0,0.0,0.0,0.0,0.0,0.0,0.0,0.0,0.0,0.0,0.0,0.0,0.0,0.0,0.0,0.0,0.0,0.0,0.0,0.0,0.0,0.0,0.0,0.0,0.0,0.0,0.0,0.0,0.0,0.0,0.0,0.0,0.0,0.0,0.0,-2.1454,-2.1929,0.0,0.0,0.0,0.0,-2.1342,-2.1212,-2.056,-1.9359,-2.0168,-2.0921,-2.1447,-2.1865,-2.242,-2.3096,-2.2657,-2.2614,-2.2929,-2.2461,-2.2393,-2.2623,-2.2592,-2.2217,-2.1643,-2.1596,-2.1221,-2.0577,-2.0212,-1.9858,-1.9574,-1.9573,-1.95,-1.9332,-1.9011,-1.8846,-1.8741,0.0,0.0,0.0,0.0,0.0,0.0,0.0,0.0,0.0,0.0,0.0,0.0,0.0,0.0,0.0,0.0,0.0,0.0,0.0,0.0,0.0,0.0,0.0,0.0,0.0,0.0,0.0,0.0,0.0,0.0,0.0,0.0,0.0,0.0,0.0,0.0,0.0,0.0,0.0,0.0,0.0,0.0,0.0,0.0,0.0,0.0,0.0,0.0,0.0,0.0,0.0,0.0,0.0,0.0,0.0,0.0,0.0,0.0,0.0,0.0,0.0,0.0,0.0,0.0,0.0,0.0,0.0,0.0,0.0,0.0,0.0,0.0,0.0,0.0,0.0,0.0,0.0,0.0,0.0,-2.1657,-2.2072,0.0,-2.2449,-2.2236,-2.1812,-2.1034,-2.1284,-2.1069,-2.0251,-2.108,-2.1798,-2.2252,-2.2004,-2.2217,-2.2975,-2.2413,-2.233,-2.2709,-2.2243,-2.2134,-2.2327,-2.1779,-2.1446,-2.134,-2.1023,-2.0866,-2.0795,-2.0646,-2.0509,-2.0369,-2.0273,-2.0181,-2.0025,-1.9863,-1.9797,-1.9747,0.0,0.0,0.0,0.0,0.0,0.0,0.0,0.0,0.0,0.0,0.0,0.0,0.0,0.0,0.0,0.0,0.0,0.0,0.0,0.0,0.0,0.0,0.0,0.0,0.0,0.0,0.0,0.0,0.0,0.0,0.0,0.0,0.0,0.0,0.0,0.0,0.0,0.0,0.0,0.0,0.0,0.0,-2.8671,0.0,0.0,0.0,0.0,0.0,0.0,0.0,0.0,0.0,0.0,0.0,0.0,0.0,0.0,0.0,0.0,0.0,0.0,0.0,0.0,0.0,0.0,0.0,0.0,0.0,0.0,0.0,0.0,0.0,0.0,0.0,0.0,0.0,0.0,0.0,-2.2637,-2.2469,-2.2748,-2.2909,-2.2755,-2.2647,-2.2424,-2.2107,-2.2287,-2.228,-2.1915,-2.2205,-2.2549,-2.2876,-2.2203,-2.2099,-2.2647,-2.2118,-2.2024,-2.2352,-2.1961,-2.1875,-2.2069,-2.1392,-2.1214,-2.1402,-2.1007,-2.0991,-2.1245,-2.1245,-2.1214,-2.1166,-2.0681,-2.0441,-2.0327,-2.0146,-2.0096,-2.0115,0.0,0.0,0.0,0.0,0.0,0.0,0.0,0.0,0.0,0.0,0.0,0.0,0.0,0.0,0.0,0.0,0.0,0.0,0.0,0.0,0.0,0.0,0.0,0.0,0.0,0.0,0.0,0.0,0.0,0.0,0.0,0.0,0.0,0.0,0.0,0.0,0.0,0.0,0.0,0.0,0.0,0.0,-2.968,0.0,0.0,0.0,0.0,0.0,0.0,0.0,0.0,0.0,0.0,0.0,0.0,0.0,0.0,0.0,0.0,0.0,0.0,0.0,0.0,0.0,0.0,0.0,0.0,0.0,0.0,0.0,0.0,0.0,0.0,0.0,0.0,0.0,-2.2226,-2.3208,-2.4044,-2.3756,-2.383,-2.3963,-2.4164,-2.4111,-2.43,-2.4736,-2.4461,-2.4287,-2.4271,-2.3366,-2.2983,-2.3268,-2.2424,-2.2041,-2.2202,-2.1792,-2.1695,-2.1895,-2.1632,-2.1645,-2.1882,-2.1645,-2.1645,-2.1899,-2.1615,-2.1645,-2.1899,-2.1899,-2.1948,-2.1893,-2.0782,-2.0348,-2.028,-1.9874,-1.9762,-1.9797,0.0,0.0,0.0,0.0,0.0,0.0,0.0,0.0,0.0,0.0,0.0,0.0,0.0,0.0,0.0,0.0,0.0,0.0,0.0,0.0,0.0,0.0,0.0,0.0,0.0,0.0,0.0,0.0,0.0,0.0,0.0,0.0,0.0,0.0,0.0,0.0,0.0,0.0,0.0,0.0,0.0,0.0,-3.0136,0.0,0.0,0.0,0.0,0.0,0.0,0.0,0.0,0.0,0.0,0.0,0.0,0.0,0.0,0.0,0.0,0.0,0.0,0.0,0.0,0.0,0.0,0.0,0.0,0.0,0.0,0.0,0.0,0.0,0.0,0.0,0.0,-2.4553,-2.3992,-2.4253,-2.4537,-2.4687,-2.3912,-2.3535,-2.3945,-2.3869,-2.3856,-2.4006,-2.3881,-2.3723,-2.3579,-2.2554,-2.2201,-2.2754,-2.1804,-2.16,-2.2271,-2.1682,-2.1453,-2.1615,-2.1727,-2.1823,-2.1899,-2.1823,-2.1823,-2.1899,-2.1615,-2.1645,-2.1899,-2.1899,-2.2044,-2.2158,-2.1658,-2.1291,-2.1007,-2.086,-2.0662,-2.0512,0.0,0.0,0.0,0.0,0.0,0.0,0.0,0.0,0.0,0.0,0.0,0.0,0.0,0.0,0.0,0.0,0.0,0.0,0.0,0.0,0.0,0.0,0.0,0.0,0.0,0.0,0.0,0.0,0.0,0.0,0.0,0.0,0.0,0.0,0.0,0.0,0.0,0.0,0.0,0.0,0.0,0.0,-3.0366,-3.0481,-3.106,-3.1814,-3.1835,-3.2458,-3.3252,-3.3252,0.0,0.0,0.0,0.0,0.0,0.0,0.0,0.0,0.0,0.0,0.0,0.0,0.0,0.0,0.0,0.0,0.0,0.0,0.0,0.0,0.0,0.0,0.0,0.0,-2.6239,-2.6613,-2.6717,-2.6176,-2.5811,-2.5764,-2.4766,-2.4225,-2.4601,-2.4329,-2.4207,-2.4493,-2.4185,-2.401,-2.3957,-2.2764,-2.2385,-2.3106,-2.1908,-2.1616,-2.246,-2.1702,-2.1444,-2.1748,-2.1853,-2.2015,-2.2215,-2.1998,-2.1986,0.0,-2.1794,-2.1811,-2.2061,-2.2061,-2.2163,0.0,0.0,0.0,0.0,0.0,-2.0761,-2.0662,0.0,0.0,0.0,0.0,0.0,0.0,0.0,0.0,0.0,0.0,0.0,0.0,0.0,0.0,0.0,0.0,0.0,0.0,0.0,0.0,0.0,0.0,0.0,0.0,0.0,0.0,0.0,0.0,0.0,0.0,0.0,0.0,0.0,0.0,0.0,0.0,0.0,0.0,0.0,0.0,0.0,0.0,-3.0443,-3.0619,-3.1236,-3.1972,-3.1961,-3.2629,-3.3531,-3.3629,0.0,0.0,0.0,0.0,0.0,0.0,0.0,0.0,0.0,0.0,0.0,0.0,0.0,0.0,0.0,0.0,0.0,0.0,0.0,0.0,0.0,0.0,0.0,0.0,-2.8796,-2.9289,-2.9699,-2.8595,-2.7508,-2.6851,-2.5929,-2.541,-2.5566,-2.501,-2.4827,-2.5273,-2.4844,-2.4572,-2.4695,0.0,0.0,0.0,0.0,-2.2013,-2.2811,-2.187,-2.1666,-2.2153,-2.2027,-2.2215,-2.2685,-2.2215,-2.2186,-2.2497,-2.213,-2.2147,-2.2377,-2.2349,-2.2338,-2.231,-2.1794,-2.1507,-2.1276,-2.0628,-2.0475,-2.0561,0.0,0.0,0.0,0.0,0.0,0.0,0.0,0.0,0.0,0.0,0.0,0.0,0.0,0.0,0.0,0.0,0.0,0.0,0.0,0.0,0.0,0.0,0.0,0.0,0.0,0.0,0.0,0.0,0.0,0.0,0.0,0.0,0.0,0.0,0.0,0.0,0.0,0.0,0.0,0.0,0.0,0.0,-3.0652,-3.0687,-3.166,-3.3005,-3.3018,-3.4039,-3.5493,-3.6198,-3.6088,-3.5701,-3.6091,0.0,0.0,0.0,0.0,0.0,0.0,0.0,0.0,0.0,0.0,0.0,0.0,0.0,0.0,0.0,0.0,0.0,0.0,0.0,0.0,-2.9989,-3.0495,-3.0967,-3.1308,-3.0009,-2.8614,-2.7537,-2.6404,-2.5458,-2.4869,-2.462,-2.4223,-2.3614,-2.3997,-2.3997,-2.3398,-2.3358,-2.3422,-2.3575,-2.2852,-2.285,-2.3665,-2.2575,-2.2203,-2.2588,0.0,0.0,-2.2685,-2.2588,-2.2605,-2.2659,-2.2561,-2.2668,-2.2859,-2.2685,-2.2605,-2.2552,-2.1945,-2.1648,-2.1556,-2.1119,-2.0973,-2.0957,0.0,0.0,0.0,0.0,0.0,0.0,0.0,0.0,0.0,0.0,0.0,0.0,0.0,0.0,0.0,0.0,0.0,0.0,0.0,0.0,0.0,0.0,0.0,0.0,0.0,0.0,0.0,0.0,0.0,0.0,0.0,0.0,0.0,0.0,0.0,0.0,0.0,0.0,0.0,0.0,0.0,0.0,-3.0477,-3.0671,-3.1767,-3.3208,-3.32,-3.4288,-3.5827,-3.6676,-3.6956,-3.6947,-3.6913,-3.6952,-3.6492,0.0,0.0,0.0,0.0,0.0,0.0,0.0,0.0,0.0,0.0,0.0,0.0,0.0,0.0,-3.0289,0.0,0.0,-3.1991,-3.2315,-3.2511,-3.2511,-3.2144,-3.1198,-2.9924,-2.8287,-2.6811,-2.5949,-2.5891,-2.5514,-2.527,-2.5308,-2.5365,-2.5269,-2.4964,-2.482,-2.4699,-2.4592,-2.3989,-2.3804,-2.4095,-2.2951,-2.2537,-2.2893,-2.2537,-2.2563,-2.2944,-2.2816,-2.2764,-2.279,-2.2738,-2.2764,-2.285,-2.2721,-2.2444,-2.2048,-2.1519,-2.1292,-2.1156,-2.0475,-2.0347,-2.0543,0.0,0.0,0.0,0.0,0.0,0.0,0.0,0.0,0.0,0.0,0.0,0.0,0.0,0.0,0.0,0.0,0.0,0.0,0.0,0.0,0.0,0.0,0.0,0.0,0.0,0.0,0.0,0.0,0.0,0.0,0.0,0.0,0.0,0.0,0.0,0.0,0.0,0.0,0.0,0.0,0.0,0.0,-3.0119,-3.047,-3.1629,-3.3035,-3.3053,-3.3994,-3.5402,-3.6373,-3.707,-3.7486,-3.7193,-3.8039,-3.8394,-3.4646,-3.5483,0.0,0.0,0.0,0.0,0.0,0.0,0.0,0.0,0.0,-3.1293,-3.1575,-3.2403,-3.2828,-3.1982,-3.3441,-3.4772,-3.4749,-3.4695,-3.4293,-3.3318,-3.2576,-3.1469,-2.9656,-2.8082,-2.7262,-2.7554,-2.7023,-2.6856,-2.727,-2.7014,-2.6739,-2.662,-2.6273,-2.5924,-2.5613,-2.4854,-2.4461,-2.4406,-2.3214,-2.2807,-2.3126,-2.2773,-2.2798,-2.3217,-2.2995,-2.2944,-2.2952,-2.2902,-2.2868,-2.2799,-2.2669,-2.221,-2.1529,-2.0918,-2.0591,-2.0408,-1.958,-1.9528,-1.9851,0.0,0.0,0.0,0.0,0.0,0.0,0.0,0.0,0.0,0.0,0.0,0.0,0.0,0.0,0.0,0.0,0.0,0.0,0.0,0.0,0.0,0.0,0.0,0.0,0.0,0.0,0.0,0.0,0.0,0.0,0.0,0.0,0.0,0.0,0.0,0.0,0.0,0.0,0.0,0.0,0.0,0.0,-2.9683,-2.9851,-3.1123,-3.2851,-3.2906,-3.3539,-3.4593,-3.617,-3.6335,-3.6218,-3.8273,-3.8562,-3.7768,-3.5734,0.0,-3.4218,-3.1317,-3.1987,-3.3788,-3.4935,-3.5295,-3.5907,0.0,0.0,-3.5882,-3.5696,-3.5991,-3.5963,-3.4929,-3.5842,-3.6827,-3.6985,-3.6978,-3.6696,-3.5974,-3.4658,-3.34,-3.2514,-3.1525,-3.0356,-2.9017,-2.8819,-2.8172,-2.6735,-2.7207,-2.6951,-2.5562,-2.6038,-2.6036,-2.5278,-2.4478,-2.4283,-2.4739,-2.3684,-2.3171,-2.3265,-2.2985,-2.301,-2.3289,-2.3265,-2.3241,-2.3265,-2.3435,-2.3365,-2.3116,-2.2557,-2.2192,-2.1791,-2.0381,-1.969,-1.9452,-1.9273,-1.9248,-1.9273,0.0,0.0,0.0,0.0,0.0,0.0,0.0,0.0,0.0,0.0,0.0,0.0,0.0,0.0,0.0,0.0,0.0,0.0,0.0,0.0,0.0,0.0,0.0,0.0,0.0,0.0,0.0,0.0,0.0,0.0,0.0,0.0,0.0,0.0,0.0,0.0,0.0,0.0,0.0,0.0,0.0,0.0,-2.8479,-2.8849,-2.9762,-3.0974,-3.1664,-3.2726,0.0,0.0,-3.5709,-3.6012,-3.7116,-3.7242,-3.6577,-3.4452,-3.4706,0.0,-3.5676,-3.5574,-3.5882,-3.7592,-3.8063,-3.837,-3.9282,-3.8452,-3.7556,-3.7721,-3.8252,-3.8374,-3.7354,-3.806,-3.8761,0.0,-3.8329,-3.7736,-3.6779,-3.5821,-3.4925,-3.415,-3.4339,-3.3505,-3.0908,-3.0338,-2.9795,-2.9101,-2.8858,-2.8501,-2.7954,-2.8214,-2.778,-2.6449,-2.6066,-2.5498,-2.4763,-2.4034,-2.3681,-2.3692,-2.3486,-2.3394,-2.3476,-2.3508,-2.358,-2.3631,-2.3226,-2.3007,-2.283,-2.2016,-2.1611,-2.1452,-2.0578,-1.99,-1.9334,-1.8771,-1.8743,-1.8974,0.0,0.0,0.0,0.0,0.0,0.0,0.0,0.0,0.0,0.0,0.0,0.0,0.0,0.0,0.0,0.0,0.0,0.0,0.0,0.0,0.0,0.0,0.0,0.0,0.0,0.0,0.0,0.0,0.0,0.0,0.0,0.0,0.0,0.0,0.0,0.0,0.0,0.0,0.0,0.0,0.0,0.0,-2.7666,-2.7887,-2.8748,-3.0002,-3.0993,-3.194,0.0,0.0,-3.4505,-3.4714,-3.5265,-3.5437,-3.504,-3.3151,-3.3605,-3.5158,-3.7058,-3.7132,-3.7097,-3.9053,-4.002,-4.0409,-4.0223,-3.9675,-3.9247,-3.9316,-3.9753,-3.9931,-3.9186,-3.961,-4.0015,-3.9844,-3.9418,-3.8654,-3.7389,-3.6853,-3.6295,-3.5515,-3.6002,-3.556,-3.3446,-3.2333,-3.1572,-3.1146,-3.0271,-2.9713,-2.9617,-2.9392,-2.8593,-2.7158,-2.6835,-2.6048,-2.4743,-2.4364,-2.4118,-2.3983,-2.3899,-2.3774,-2.3707,-2.3795,-2.3901,-2.3946,-2.3103,-2.2865,-2.2974,-2.2019,-2.1635,-2.1616,-2.1313,-2.0703,-1.992,-1.9301,-1.8849,-1.8562,0.0,0.0,0.0,0.0,0.0,0.0,0.0,0.0,0.0,0.0,0.0,0.0,0.0,0.0,0.0,0.0,0.0,0.0,0.0,0.0,0.0,0.0,0.0,0.0,0.0,0.0,0.0,0.0,0.0,0.0,0.0,0.0,0.0,0.0,0.0,0.0,0.0,0.0,0.0,0.0,0.0,0.0,-2.7706,-2.7083,-2.847,-3.0856,-3.1524,0.0,0.0,0.0,-3.241,-3.1449,-3.307,-3.3398,0.0,-3.2486,-3.1258,-3.0541,-3.2464,-3.4202,-3.6096,-3.8742,-4.0774,-4.2125,-4.2126,-4.2087,-4.1804,-4.0839,-4.0555,-4.0444,-4.0267,-4.0277,-4.0307,-4.0374,-4.0363,-3.9789,-3.8187,-3.7906,-3.7566,-3.6824,-3.6095,-3.5942,0.0,-3.5193,-3.3417,-3.1796,-3.0873,-3.0014,-2.9178,-2.8313,-2.7478,-2.665,-2.5803,-2.5173,-2.4807,-2.4714,-2.446,-2.4002,-2.4137,-2.4118,-2.3983,-2.4116,-2.4192,-2.4136,-2.3272,-2.3289,-2.3891,-2.3086,-2.2757,-2.2757,-2.2738,-2.2115,-2.1273,-2.1425,-1.9984,-1.7919,0.0,0.0,0.0,0.0,0.0,0.0,0.0,0.0,0.0,0.0,0.0,0.0,0.0,0.0,0.0,0.0,0.0,0.0,0.0,0.0,0.0,0.0,0.0,0.0,0.0,0.0,0.0,0.0,0.0,0.0,0.0,0.0,0.0,0.0,0.0,0.0,0.0,0.0,0.0,0.0,0.0,0.0,-2.6782,-2.724,-2.8142,-2.9331,0.0,0.0,0.0,0.0,0.0,-3.1729,-3.1652,-3.1572,-3.1362,-3.0657,-3.0808,-3.1542,-3.288,-3.4582,-3.6454,-3.8541,-3.9247,-3.9591,-4.0257,-4.0408,-4.0175,-3.9348,-3.8643,-3.8183,-3.8182,-3.8027,-3.8116,-3.8772,-3.9273,-3.9258,-3.828,-3.7616,-3.6988,-3.6286,-3.6981,0.0,0.0,0.0,0.0,-3.2717,-3.1895,-3.0825,-2.9375,-2.9058,-2.8275,-2.6836,-2.6436,-2.5917,-2.5269,-2.4977,-2.4752,-2.461,-2.442,-2.4336,-2.4317,-2.4371,-2.4474,-2.4554,-2.368,-2.3444,-2.3614,-2.2669,-2.2584,-2.3048,-2.2923,-2.2667,-2.2374,-2.2447,-2.1625,-2.0444,0.0,0.0,0.0,0.0,0.0,0.0,0.0,0.0,0.0,0.0,0.0,0.0,0.0,0.0,0.0,0.0,0.0,0.0,0.0,0.0,0.0,0.0,0.0,0.0,0.0,0.0,0.0,0.0,0.0,0.0,0.0,0.0,0.0,0.0,0.0,0.0,0.0,0.0,0.0,0.0,0.0,0.0,-2.6352,-2.7158,-2.8089,0.0,0.0,0.0,0.0,0.0,0.0,-3.0942,-3.0365,-3.0258,-3.028,-2.9958,-3.0586,-3.1747,-3.3385,-3.4393,-3.5533,-3.7737,-3.783,-3.7642,-3.8753,-3.9018,-3.8926,-3.8522,-3.7678,-3.7024,-3.7086,-3.7132,-3.7171,-3.7237,-3.8144,-3.847,-3.7424,-3.6813,-3.6426,-3.6277,-3.6964,-3.7175,0.0,0.0,0.0,-3.3291,-3.2475,-3.1415,-2.9975,-2.9355,-2.8534,-2.7432,-2.6685,-2.6048,-2.5515,-2.5207,-2.5012,-2.4929,-2.467,-2.4591,-2.4685,-2.4651,-2.4716,-2.4785,-2.3963,-2.3769,-2.3963,-2.3023,-2.3116,-2.3836,-2.3659,-2.354,-2.3488,-2.354,-2.3225,-2.2641,0.0,0.0,0.0,0.0,0.0,0.0,0.0,0.0,0.0,0.0,0.0,0.0,0.0,0.0,0.0,0.0,0.0,0.0,0.0,0.0,0.0,0.0,0.0,0.0,0.0,0.0,0.0,0.0,0.0,0.0,0.0,0.0,0.0,0.0,0.0,0.0,0.0,0.0,0.0,0.0,0.0,0.0,-2.6411,-2.6954,0.0,0.0,0.0,0.0,0.0,0.0,0.0,-2.9233,-2.9274,-2.9504,-2.9869,-3.0411,-3.0624,-3.1188,-3.3586,-3.3575,-3.3533,-3.6243,-3.6464,-3.6326,-3.7559,-3.7948,-3.8101,-3.8208,-3.746,-3.6789,0.0,0.0,-3.7323,-3.5899,-3.7047,-3.7558,-3.593,-3.5673,-3.5909,0.0,0.0,0.0,0.0,0.0,0.0,-3.3529,0.0,-3.1767,-3.0834,-2.9159,-2.8219,-2.8222,-2.6522,-2.5563,-2.5512,-2.5363,-2.5198,-2.4991,-2.4865,-2.4879,-2.501,-2.4931,-2.4898,-2.4874,-2.4163,-2.4295,-2.4962,-2.4193,-2.4326,-2.4994,-2.4865,-2.4682,-2.4554,-2.4731,-2.4689,-2.4238,0.0,0.0,0.0,0.0,0.0,0.0,0.0,0.0,0.0,0.0,0.0,0.0,0.0,0.0,0.0,0.0,0.0,0.0,0.0,0.0,0.0,0.0,0.0,0.0,0.0,0.0,0.0,0.0,0.0,0.0,0.0,0.0,0.0,0.0,0.0,0.0,0.0,0.0,0.0,0.0,0.0,0.0,-2.6351,0.0,0.0,0.0,0.0,0.0,0.0,0.0,0.0,-2.9606,-3.0204,-3.0483,-3.0768,-3.1587,-3.2342,-3.2768,-3.2312,-3.3012,-3.3785,-3.3239,-3.3278,-3.3579,-3.4043,-3.5241,-3.5939,-3.4792,-3.4277,-3.3836,-3.3253,0.0,0.0,-3.519,-3.6334,0.0,-3.7031,-3.5789,0.0,-3.4893,0.0,-3.6211,-3.5273,-3.6191,0.0,0.0,-3.3066,-3.2279,-3.0797,-2.9119,-2.7909,-2.7283,-2.6186,-2.5593,-2.5568,-2.5393,-2.5222,-2.5075,-2.4985,-2.4969,-2.501,-2.4977,-2.4993,-2.5037,-2.4853,-2.4901,-2.5133,-2.493,-2.4957,-2.5138,-2.5006,-2.4929,-2.4869,-2.4823,-2.4764,-2.4613,0.0,0.0,0.0,0.0,0.0,0.0,0.0,0.0,0.0,0.0,0.0,0.0,0.0,0.0,0.0,0.0,0.0,0.0,0.0,0.0,0.0,0.0,0.0,0.0,0.0,0.0,0.0,0.0,0.0,0.0,0.0,0.0,0.0,0.0,0.0,0.0,0.0,0.0,0.0,0.0,0.0,0.0,0.0,0.0,0.0,0.0,0.0,0.0,0.0,0.0,0.0,-3.044,-3.1255,-3.1596,-3.1876,-3.2933,-3.3299,-3.3247,-3.251,-3.2577,-3.2656,-3.1927,-3.1728,-3.1806,-3.2146,-3.3383,-3.4095,-3.2809,-3.2475,-3.2288,-3.1877,-3.3158,-3.4235,0.0,0.0,0.0,-3.6419,-3.54,-3.451,0.0,-3.5278,0.0,-3.4027,-3.519,-3.5293,0.0,-3.3278,-3.2519,-3.0827,-2.9498,-2.8379,-2.7507,-2.6634,-2.5943,-2.5468,-2.536,-2.5212,-2.5069,-2.5018,-2.501,-2.501,-2.501,-2.5038,-2.5096,0.0,-2.5233,-2.5293,-2.5283,-2.5293,-2.5284,-2.5171,-2.5091,-2.5024,-2.4968,-2.4934,-2.4907,0.0,0.0,0.0,0.0,0.0,0.0,0.0,0.0,0.0,0.0,0.0,0.0,0.0,0.0,0.0,0.0,0.0,0.0,0.0,0.0,0.0,0.0,0.0,0.0,0.0,0.0,0.0,0.0,0.0,0.0,0.0,0.0,0.0,0.0,0.0,0.0,0.0,0.0,0.0,0.0,0.0,0.0,0.0,0.0,0.0,0.0,0.0,0.0,0.0,0.0,-3.0518,-3.1426,-3.2284,-3.2666,-3.3019,-3.4163,-3.3836,-3.3165,-3.3252,-3.2211,-3.1174,-3.1446,-3.1092,-3.0761,-3.1079,-3.1953,-3.243,-3.1526,-3.1451,-3.1573,-3.1617,-3.3317,-3.4326,-3.3104,0.0,-3.6716,-3.5203,-3.4917,-3.4558,-3.3705,-3.4431,-3.4511,-3.3251,-3.3899,-3.4118,-3.336,-3.319,-3.2489,-3.1032,-3.001,-2.9031,-2.8054,-2.7181,-2.6273,-2.5332,-2.5293,-2.5267,-2.5175,-2.5048,-2.5067,-2.5162,-2.5048,-2.5051,-2.5138,0.0,0.0,-2.543,-2.543,-2.543,-2.5422,-2.535,-2.5234,-2.5141,-2.5138,-2.5134,-2.5106,0.0,0.0,0.0,0.0,0.0,0.0,0.0,0.0,0.0,0.0,0.0,0.0,0.0,0.0,0.0,0.0,0.0,0.0,0.0,0.0,0.0,0.0,0.0,0.0,0.0,0.0,0.0,0.0,0.0,0.0,0.0,0.0,0.0,0.0,0.0,0.0,0.0,0.0,0.0,0.0,0.0,0.0,0.0,0.0,0.0,0.0,0.0,0.0,0.0,0.0,-3.0888,-3.1958,-3.305,-3.3313,-3.3407,-3.4644,-3.4464,-3.3669,-3.2498,-3.1928,-3.1414,-3.0343,-3.0267,-3.0275,-2.9592,-3.0259,0.0,-2.9687,-3.0134,-3.0716,-3.0731,-3.207,-3.3259,-3.3491,-3.4902,-3.5786,-3.5446,-3.5293,-3.4545,0.0,-3.3448,-3.3827,-3.3252,-3.339,0.0,0.0,0.0,-3.2093,-3.1813,-3.0168,-2.8601,-2.7161,-2.6281,-2.568,-2.539,-2.5331,-2.5587,-2.6143,-2.5373,-2.5351,-2.5977,-2.5313,-2.5101,-2.5264,-2.5303,0.0,-2.5564,-2.5564,-2.5564,-2.5557,-2.5422,-2.5382,-2.5337,-2.5293,-2.5273,-2.5262,0.0,0.0,0.0,0.0,0.0,0.0,0.0,0.0,0.0,0.0,0.0,0.0,0.0,0.0,0.0,0.0,0.0,0.0,0.0,0.0,0.0,0.0,0.0,0.0,0.0,0.0,0.0,0.0,0.0,0.0,0.0,0.0,0.0,0.0,0.0,0.0,0.0,0.0,0.0,0.0,0.0,0.0,0.0,0.0,0.0,0.0,0.0,0.0,0.0,0.0,-3.029,-3.1506,-3.3126,-3.3752,-3.4114,-3.4897,-3.4424,-3.3505,-3.2763,-3.1677,-3.0624,-2.9967,-2.9822,-2.9446,-2.8016,-2.873,0.0,-2.7524,-2.8564,-2.9796,-2.9866,-3.1413,-3.2784,-3.3034,-3.4582,-3.5593,-3.51,-3.5357,-3.4948,-3.3147,-3.387,-3.4107,-3.3093,-3.3184,-3.3106,-3.2656,0.0,-3.1281,-3.1319,-2.9598,-2.8299,-2.7544,-2.6262,-2.5511,-2.5339,-2.5313,-2.5642,-2.6287,-2.5853,-2.5844,-2.6186,-2.5874,-2.5562,-2.5313,-2.534,0.0,-2.5601,-2.5601,-2.5601,-2.5595,-2.5525,-2.5476,-2.544,-2.5416,-2.5379,-2.5357,0.0,0.0,0.0,0.0,0.0,0.0,0.0,0.0,-2.9279,-2.9615,-2.8916,-2.8443,-2.8624,-2.8351,0.0,0.0,0.0,0.0,0.0,0.0,0.0,0.0,0.0,0.0,0.0,0.0,0.0,-2.8512,0.0,0.0,0.0,0.0,0.0,0.0,0.0,0.0,0.0,0.0,0.0,0.0,0.0,0.0,0.0,0.0,0.0,0.0,0.0,0.0,0.0,0.0,-2.876,-2.983,-3.166,-3.2918,-3.3742,-3.4101,-3.3413,-3.2599,-3.2787,-3.1089,-2.94,-2.98,-2.9445,-2.8532,-2.6719,-2.7461,-2.7947,-2.5843,-2.7085,-2.8694,-2.9152,-3.0703,-3.1939,0.0,-3.3715,-3.4883,-3.4558,-3.5302,-3.5371,-3.3999,-3.4609,0.0,-3.328,-3.3035,0.0,-3.2302,0.0,0.0,-3.0673,-2.9057,-2.812,-2.8126,-2.6443,-2.5476,-2.5313,-2.5264,-2.5673,-2.6489,-2.6327,-2.6322,-2.6493,-2.6454,-2.6017,-2.5332,-2.5385,0.0,0.0,-2.557,-2.5595,-2.5601,-2.5601,-2.557,-2.5529,-2.5511,-2.5484,-2.5444,0.0,0.0,0.0,0.0,0.0,0.0,0.0,0.0,-2.8819,-3.0305,-2.9779,-2.9564,-3.0297,-2.9129,0.0,0.0,0.0,0.0,0.0,0.0,0.0,0.0,0.0,0.0,0.0,0.0,0.0,-2.7892,-2.7941,0.0,0.0,0.0,0.0,0.0,0.0,0.0,0.0,0.0,0.0,0.0,0.0,0.0,0.0,0.0,0.0,0.0,0.0,0.0,0.0,0.0,0.0,-2.611,-2.7455,-2.9155,-3.0688,-3.1092,-3.0742,-3.0398,-3.1329,-2.969,-2.8056,-2.9523,-2.8956,-2.7611,-2.6038,-2.6555,-2.6932,-2.5438,-2.6039,-2.7281,-2.8763,-2.9385,0.0,0.0,0.0,-3.2649,-3.4037,-3.5146,-3.5608,-3.5018,0.0,0.0,-3.439,-3.2821,-3.2231,0.0,0.0,0.0,-3.0612,-2.9074,-2.8185,-2.8191,-2.6396,-2.5374,-2.5303,-2.5171,-2.5876,-2.7361,-2.6702,-2.6753,-2.7452,-2.6787,-2.6083,-2.5387,-2.5395,0.0,0.0,-2.5499,-2.5557,-2.5601,-2.5601,-2.5605,-2.5584,-2.5597,-2.5584,-2.5566,0.0,0.0,0.0,0.0,0.0,0.0,0.0,0.0,-2.9899,-3.0565,-3.0387,-3.0329,-3.0682,-3.0176,0.0,0.0,0.0,0.0,0.0,0.0,0.0,0.0,0.0,0.0,0.0,0.0,0.0,-2.9434,-2.9382,0.0,0.0,0.0,0.0,0.0,0.0,-2.9302,0.0,0.0,0.0,0.0,0.0,0.0,0.0,0.0,0.0,0.0,0.0,0.0,-2.8249,0.0,0.0,0.0,-2.6516,-2.6983,0.0,0.0,-2.9302,-2.8094,-2.4879,-2.1318,-1.9405,-2.3034,-2.1113,-1.9653,-2.4692,-2.5704,-2.5192,-2.3819,-2.5005,-2.6581,-2.7569,-2.839,0.0,0.0,0.0,0.0,-3.1765,-3.2798,-3.3619,-3.4041,-3.426,0.0,0.0,0.0,-3.2411,0.0,0.0,0.0,-3.0711,-2.9116,-2.8207,-2.8191,-2.645,-2.5441,-2.5303,-2.5243,-2.601,-2.7559,-2.7249,-2.7593,-2.8434,-2.8217,-2.7662,-2.6853,-2.6929,0.0,0.0,-2.6471,-2.6292,-2.6326,-2.6372,-2.6389,-2.6385,-2.6387,-2.6323,-2.6172,0.0,0.0,0.0,0.0,0.0,0.0,-3.0472,-3.0377,-3.0365,-3.069,-3.0724,-3.0759,-3.0782,-3.0801,-3.0534,-2.9838,0.0,0.0,0.0,0.0,0.0,0.0,0.0,0.0,0.0,0.0,0.0,-3.0917,-3.0576,-3.0574,0.0,0.0,-3.0359,-3.0271,0.0,0.0,0.0,0.0,0.0,0.0,0.0,0.0,0.0,0.0,0.0,0.0,0.0,0.0,0.0,0.0,0.0,0.0,0.0,0.0,0.0,0.0,-2.7319,-2.5893,-2.1635,-1.7903,-1.6305,-2.0587,-1.831,-1.6824,-2.362,-2.4761,-2.399,-2.2682,-2.4292,-2.6125,-2.6746,-2.7482,-2.807,0.0,0.0,-2.9502,-3.0249,-3.1323,-3.241,-3.3485,0.0,-3.424,0.0,-3.3512,0.0,0.0,0.0,0.0,-3.073,-2.9327,-2.8437,-2.8217,-2.6715,-2.572,-2.5303,-2.5793,-2.6568,-2.7599,-2.7934,-2.8441,-2.9068,-2.9177,-2.8724,-2.7834,-2.7923,0.0,0.0,-2.7384,-2.7176,-2.7193,-2.701,-2.6916,-2.6875,-2.6633,-2.6471,-2.6283,0.0,0.0,0.0,0.0,0.0,0.0,0.0,0.0,-2.975,-3.0673,-3.0806,-3.0798,-3.0801,-3.0794,-3.0768,-3.0688,0.0,0.0,0.0,0.0,0.0,0.0,0.0,0.0,0.0,0.0,0.0,0.0,0.0,-3.0863,-3.1565,-3.0782,-3.0336,-3.0196,0.0,0.0,0.0,0.0,0.0,0.0,0.0,0.0,0.0,0.0,0.0,0.0,0.0,0.0,0.0,0.0,0.0,0.0,0.0,0.0,0.0,0.0,-2.4319,-2.3827,-2.3677,-2.2589,-2.2164,-2.4878,-2.384,-2.2362,-2.3065,-2.3624,-2.367,-2.2446,-2.3968,-2.5776,-2.6623,-2.6697,-2.669,-2.6899,0.0,0.0,-3.0182,-3.1544,-3.2737,0.0,0.0,-3.3854,-3.3007,-3.2015,0.0,0.0,0.0,0.0,-3.06,-2.9773,-2.8952,-2.8229,-2.7217,-2.6251,-2.5303,-2.6949,-2.7723,-2.7599,-2.8733,-2.9245,-2.9196,-2.927,-2.8797,0.0,0.0,0.0,0.0,-2.8001,-2.8073,-2.8115,-2.7316,-2.6961,-2.68,-2.6002,-2.5661,-2.5577,0.0,0.0,0.0,0.0,0.0,0.0,0.0,0.0,-2.9725,-3.061,-3.0728,-3.074,-3.0801,-3.0794,-3.0787,-3.0761,0.0,0.0,0.0,0.0,0.0,0.0,0.0,0.0,0.0,0.0,0.0,0.0,0.0,0.0,0.0,0.0,-3.0333,-3.0209,-3.0157,0.0,0.0,0.0,0.0,0.0,0.0,0.0,0.0,0.0,0.0,0.0,0.0,0.0,0.0,0.0,0.0,0.0,0.0,0.0,0.0,0.0,0.0,0.0,-1.686,-1.3408,-1.2205,-1.588,-1.3733,-1.2999,-2.1596,-2.293,-2.25,-2.3003,-2.4306,-2.568,-2.6606,-2.7047,-2.7459,-2.7982,-2.8227,0.0,0.0,0.0,0.0,-3.1626,-3.1645,-3.1392,0.0,0.0,0.0,0.0,0.0,0.0,-3.026,-2.9,-2.8521,-2.9072,-2.8171,-2.7493,-2.7149,-2.767,-2.8212,-2.8762,-2.9138,-2.961,-3.0152,-3.0132,-2.9969,0.0,0.0,0.0,0.0,-2.9148,-2.898,-2.9006,-2.8847,-2.8378,-2.7754,-2.7549,-2.6993,-2.6269,0.0,0.0,0.0,0.0,0.0,0.0,0.0,0.0,-3.0056,-3.064,-3.0716,-3.0741,-3.0802,-3.0804,-3.0799,-3.0759,0.0,0.0,0.0,0.0,0.0,0.0,0.0,0.0,0.0,0.0,0.0,0.0,0.0,0.0,0.0,0.0,0.0,0.0,-3.0222,0.0,0.0,0.0,0.0,0.0,0.0,0.0,-3.0765,0.0,0.0,0.0,0.0,0.0,0.0,0.0,0.0,0.0,0.0,0.0,0.0,0.0,-2.4853,-2.2532,-1.6356,-1.3184,-1.2228,-1.4859,-1.2963,-1.278,-2.1303,0.0,0.0,0.0,0.0,-2.6404,-2.7148,-2.7485,-2.7802,-2.8344,-2.8539,-2.8809,0.0,0.0,0.0,-2.9699,0.0,0.0,0.0,0.0,0.0,0.0,0.0,0.0,-2.9782,-2.8951,-2.8828,-2.9641,-2.8617,-2.8051,-2.8004,-2.8675,-2.9121,-2.93,-2.9663,-3.0098,-3.0602,-3.0557,-3.052,0.0,0.0,0.0,0.0,-3.0056,-2.9887,-2.9899,-2.9656,-2.9021,-2.8201,-2.793,-2.719,-2.6242,0.0,0.0,0.0,0.0,0.0,0.0,0.0,0.0,0.0,0.0,0.0,-3.0791,-3.08,-3.08,0.0,0.0,0.0,0.0,0.0,0.0,0.0,0.0,0.0,0.0,0.0,0.0,0.0,-3.182,-3.0944,-3.0897,-3.1611,0.0,0.0,0.0,0.0,0.0,0.0,0.0,0.0,0.0,0.0,0.0,0.0,0.0,0.0,0.0,0.0,0.0,0.0,0.0,0.0,0.0,0.0,0.0,0.0,0.0,0.0,0.0,0.0,-2.0032,-1.9836,-1.9953,-1.9442,-1.956,-2.1959,0.0,0.0,0.0,0.0,-2.7727,-2.8027,-2.7922,-2.7899,-2.8246,-2.8345,-2.869,0.0,-2.9648,0.0,0.0,-2.8815,0.0,0.0,0.0,0.0,0.0,0.0,0.0,-2.9226,-2.9401,-2.9609,-2.9884,-2.87,-2.8103,-2.8178,-2.9865,-3.0253,-2.9406,-3.0273,-3.0668,-3.061,-3.061,-3.0565,0.0,0.0,0.0,0.0,-3.0576,-3.0607,-3.0624,-2.9742,-2.8915,-2.8105,-2.7305,-2.6458,-2.5681,0.0,0.0,0.0,0.0,0.0,0.0,0.0,0.0,0.0,0.0,0.0,-3.0793,-3.0796,-3.0799,0.0,0.0,0.0,0.0,0.0,0.0,0.0,0.0,0.0,0.0,0.0,0.0,0.0,-3.1941,-3.1073,-3.108,-3.1884,-3.102,0.0,0.0,0.0,0.0,0.0,0.0,0.0,0.0,0.0,0.0,0.0,0.0,0.0,0.0,-3.0491,-3.0394,0.0,0.0,0.0,0.0,0.0,0.0,0.0,0.0,-2.7179,-2.5692,-2.3912,0.0,-1.9133,-1.8669,-1.8342,-1.8923,0.0,0.0,0.0,0.0,0.0,0.0,0.0,-2.8406,-2.9159,-3.0086,-3.0164,-3.0345,-3.102,0.0,0.0,-2.8342,-2.7889,0.0,0.0,0.0,0.0,0.0,0.0,-2.8591,-2.8669,-2.8604,-2.8911,-2.9718,-2.9017,-2.9041,-2.9901,-3.044,-3.0586,-3.0377,-3.0586,-3.069,-3.0676,-3.0618,-3.0602,0.0,0.0,0.0,-3.0649,-3.0016,-2.9776,-2.9713,-2.8905,-2.8057,-2.7276,-2.7085,-2.6442,-2.5701,0.0,0.0,0.0,0.0,0.0,0.0,0.0,0.0,0.0,0.0,0.0,0.0,0.0,0.0,0.0,0.0,0.0,0.0,0.0,0.0,0.0,0.0,0.0,0.0,0.0,0.0,0.0,0.0,0.0,-3.0791,0.0,0.0,0.0,0.0,0.0,0.0,0.0,0.0,0.0,0.0,-3.073,0.0,0.0,0.0,0.0,0.0,-3.052,-3.0439,0.0,-3.0449,-3.0472,-3.0433,0.0,0.0,0.0,0.0,-2.8315,-2.7264,-2.5967,-2.3264,-2.0658,-2.0188,-2.0131,-2.073,-2.2769,0.0,0.0,0.0,0.0,0.0,0.0,0.0,0.0,0.0,-3.1356,0.0,0.0,0.0,-2.8458,-2.7186,-2.682,0.0,0.0,0.0,0.0,0.0,0.0,-2.7974,-2.8183,-2.8299,-2.8709,-2.9401,-2.9257,-2.9587,-3.0501,-3.0574,-3.0634,-3.069,-3.069,-3.069,-3.069,-3.0668,-3.0661,0.0,0.0,0.0,-3.0664,-3.0231,-2.9839,-2.9455,-2.906,-2.8131,-2.7058,-2.7446,-2.6794,-2.574,0.0,0.0,0.0,0.0,0.0,0.0,0.0,0.0,0.0,0.0,0.0,0.0,0.0,0.0,0.0,0.0,0.0,0.0,0.0,0.0,0.0,0.0,0.0,0.0,0.0,0.0,0.0,0.0,0.0,0.0,0.0,0.0,-3.0356,0.0,0.0,0.0,0.0,0.0,0.0,0.0,-3.0778,0.0,0.0,0.0,0.0,0.0,0.0,0.0,0.0,-3.0462,-3.0565,-3.0607,-3.0565,0.0,0.0,0.0,0.0,0.0,-2.7496,-2.5481,-2.3577,-2.2971,-2.2926,-2.3266,-2.4142,0.0,0.0,0.0,0.0,0.0,0.0,-3.0141,0.0,0.0,0.0,0.0,-3.0208,-2.8743,-2.7466,-2.6256,0.0,0.0,0.0,0.0,0.0,0.0,0.0,-2.7258,-2.7701,-2.8201,-2.8664,-2.902,-2.9363,-2.9829,-3.0383,-3.0453,-3.0565,-3.0676,-3.069,-3.069,-3.069,-3.069,-3.069,0.0,0.0,0.0,-3.0691,-3.0423,-2.992,-2.9299,-2.9236,-2.8306,-2.7098,-2.7978,-2.7356,-2.6155,0.0,0.0,0.0,0.0,0.0,0.0,0.0,0.0,0.0,0.0,0.0,0.0,0.0,0.0,0.0,0.0,0.0,0.0,0.0,0.0,0.0,0.0,0.0,0.0,0.0,0.0,0.0,0.0,0.0,0.0,-2.9911,-3.0047,-3.0296,0.0,0.0,0.0,-3.0699,-3.0704,-3.0696,-3.0718,-3.0774,0.0,0.0,0.0,0.0,0.0,0.0,0.0,0.0,-3.0559,-3.0633,-3.07,-3.0747,0.0,0.0,0.0,0.0,0.0,-2.8629,-2.7916,-2.6972,-2.5217,-2.4167,-2.3963,-2.5504,-2.5687,0.0,0.0,0.0,0.0,0.0,-2.9471,-3.0239,0.0,0.0,-3.24,0.0,0.0,-2.9682,0.0,0.0,0.0,0.0,0.0,0.0,0.0,0.0,-2.6807,-2.7276,-2.7759,-2.8218,-2.8652,-2.9177,-2.9568,-2.9836,-3.0267,-3.051,-3.0519,-3.0642,-3.069,-3.069,-3.069,-3.069,0.0,0.0,-3.0729,-3.0678,-2.9181,-2.8539,-2.8413,-2.7675,-2.7238,-2.71,-2.7906,-2.8053,-2.7738,0.0,0.0,0.0,0.0,0.0,0.0,0.0,0.0,0.0,0.0,0.0,0.0,0.0,0.0,0.0,0.0,0.0,0.0,0.0,0.0,0.0,0.0,0.0,0.0,0.0,0.0,0.0,0.0,0.0,-2.9819,-2.9813,-3.0079,-3.0327,-3.054,0.0,0.0,-3.0703,-3.0652,-3.0652,-3.064,0.0,0.0,0.0,0.0,0.0,0.0,0.0,0.0,0.0,0.0,-3.0664,-3.0704,-3.0733,0.0,0.0,0.0,0.0,0.0,-2.9536,-2.9244,-2.8763,-2.7462,-2.6049,-2.5081,-2.5556,-2.5266,0.0,0.0,0.0,0.0,0.0,0.0,-3.0716,-3.2657,0.0,-3.1588,-3.1687,0.0,0.0,0.0,0.0,0.0,0.0,0.0,0.0,0.0,0.0,0.0,-2.7181,-2.7512,-2.7966,-2.8578,-2.8824,-2.8955,-2.8948,-2.9265,-2.979,-3.0501,-3.0565,-3.0634,-3.069,-3.069,-3.0457,-3.0042,0.0,-3.0062,-3.0049,-2.9227,-2.8914,-2.8915,-2.8552,-2.8123,-2.7744,-2.8076,-2.8471,-2.8793,0.0,0.0,0.0,0.0,0.0,0.0,0.0,0.0,0.0,0.0,0.0,0.0,0.0,0.0,0.0,0.0,0.0,0.0,0.0,0.0,0.0,0.0,0.0,0.0,0.0,0.0,-2.9729,-2.9768,-2.9412,-2.93,-2.9491,-2.9985,-3.0321,0.0,0.0,0.0,-3.0671,-3.0613,-3.0562,-3.0545,0.0,0.0,0.0,0.0,0.0,0.0,0.0,0.0,0.0,0.0,0.0,0.0,0.0,0.0,0.0,-3.0682,-3.0599,-3.0417,-2.9943,-2.9777,-2.9466,-2.8412,0.0,-2.5993,-2.5511,-2.4725,0.0,0.0,0.0,0.0,0.0,-2.8761,0.0,-3.2827,-3.198,0.0,0.0,0.0,0.0,0.0,0.0,0.0,0.0,0.0,0.0,0.0,0.0,0.0,-2.6905,-2.7261,-2.7776,-2.8471,-2.8408,-2.8297,-2.8166,-2.8178,-2.8727,-2.9864,-2.9892,-3.0089,-3.0425,-3.0425,-3.0199,-2.981,-2.981,-2.9791,-2.979,-2.9576,-2.9504,-2.9537,-2.9567,-2.9272,-2.8854,-2.8808,-2.9046,-2.9408,0.0,0.0,0.0,0.0,0.0,0.0,0.0,0.0,0.0,0.0,0.0,0.0,0.0,0.0,0.0,0.0,0.0,0.0,0.0,0.0,0.0,0.0,0.0,0.0,0.0,-2.7856,-2.7943,-2.8438,-2.8219,-2.8258,-2.8525,-2.9531,-3.0182,-3.0498,0.0,0.0,-3.0603,-3.0546,-3.0472,-3.0405,-3.0421,0.0,0.0,0.0,0.0,0.0,0.0,0.0,0.0,0.0,0.0,0.0,0.0,0.0,-3.0798,-3.0794,-3.0687,-3.04,-2.9506,-2.9389,-2.8984,-2.6749,-2.6335,0.0,-2.6101,-2.4557,0.0,-2.513,0.0,0.0,0.0,-2.7713,-2.9002,-2.9886,-3.0711,0.0,0.0,0.0,0.0,0.0,0.0,0.0,0.0,0.0,0.0,0.0,0.0,0.0,-2.6143,-2.6847,-2.7522,-2.8209,-2.7795,-2.7675,-2.7848,-2.7419,-2.7479,-2.7997,-2.8115,-2.8671,-2.959,-2.959,-2.9989,-3.0712,-3.0712,-3.0716,-3.0632,-2.9829,-2.9536,-2.9598,-2.952,-2.9926,-3.0537,-3.0522,-3.0037,-2.9408,0.0,0.0,0.0,0.0,0.0,0.0,0.0,0.0,0.0,0.0,0.0,0.0,0.0,0.0,0.0,0.0,0.0,0.0,0.0,0.0,0.0,0.0,0.0,-2.9558,-2.9374,-2.9199,-2.9148,-2.9219,-2.9207,-2.919,-2.9223,-2.9931,0.0,0.0,0.0,0.0,-3.0392,-3.0247,-3.0203,-3.0209,-3.0216,-3.0239,0.0,0.0,0.0,0.0,0.0,0.0,0.0,0.0,-2.964,0.0,0.0,0.0,-3.073,-3.0698,-3.0646,-3.0482,-2.991,-2.9653,-2.9057,-2.6964,-2.5902,0.0,0.0,-2.3709,-2.3083,-2.4058,-2.4722,0.0,0.0,0.0,-2.8389,-2.8297,0.0,0.0,0.0,0.0,0.0,0.0,0.0,0.0,0.0,0.0,0.0,0.0,0.0,0.0,0.0,-2.5614,-2.6045,-2.6684,-2.6534,-2.639,-2.6313,-2.6209,-2.6193,-2.6274,-2.7903,-2.8683,-2.8735,-2.9805,-2.9913,-2.9288,-2.9821,-3.0046,-3.0038,-2.9706,-2.9865,-3.0345,-3.0318,-3.0462,-3.07,-3.0697,-3.0483,-3.0205,0.0,0.0,0.0,0.0,0.0,0.0,0.0,0.0,0.0,0.0,0.0,0.0,0.0,0.0,0.0,0.0,0.0,0.0,0.0,0.0,0.0,0.0,0.0,-2.9672,-3.0196,-3.0204,-3.0079,-2.9788,-2.9886,-2.9768,-2.9459,0.0,0.0,0.0,0.0,0.0,0.0,-2.9977,-2.9953,-2.9991,-2.9975,-3.0015,0.0,0.0,0.0,0.0,0.0,0.0,0.0,0.0,0.0,0.0,0.0,0.0,0.0,0.0,-3.0124,-2.9582,-2.9211,-2.8716,-2.7888,-2.609,0.0,0.0,-2.3807,-2.2833,-2.2353,-2.3482,-2.3991,0.0,0.0,0.0,0.0,0.0,0.0,0.0,0.0,0.0,0.0,0.0,0.0,0.0,0.0,0.0,0.0,0.0,0.0,0.0,0.0,-2.4856,-2.5257,-2.5825,-2.5618,-2.547,-2.5466,-2.5594,-2.5679,-2.5717,-2.8058,-2.8809,-2.8243,-2.9444,-2.9655,-2.9124,-2.9746,-3.0003,-2.9979,-2.9983,-3.0282,-3.0762,-3.0774,-3.075,-3.0697,-3.0697,-3.0703,-3.069,0.0,0.0,0.0,0.0,0.0,0.0,0.0,0.0,0.0,0.0,0.0,0.0,0.0,0.0,0.0,0.0,0.0,0.0,0.0,0.0,0.0,0.0,0.0,-3.034,-3.0196,-3.0325,-3.0189,-2.9817,-2.9942,-2.9628,-2.891,-2.9921,0.0,0.0,0.0,0.0,0.0,-2.9732,-2.9754,-2.979,-2.9644,-2.9717,-2.9893,0.0,0.0,0.0,0.0,0.0,0.0,0.0,0.0,0.0,0.0,0.0,0.0,0.0,-2.906,-2.751,-2.7097,-2.6245,-2.5182,0.0,0.0,0.0,-2.3567,-2.2178,-2.1481,-2.3751,0.0,-2.2733,-2.3704,0.0,0.0,0.0,0.0,0.0,0.0,0.0,0.0,0.0,0.0,0.0,0.0,0.0,0.0,0.0,0.0,0.0,0.0,-2.4791,-2.542,-2.5949,-2.5201,-2.5059,-2.5579,-2.5747,-2.6024,-2.6515,-2.8385,-2.8916,-2.8204,-2.8221,-2.9168,-3.0781,-3.0872,-3.0872,-3.0794,-3.0794,-3.0749,-3.069,-3.069,-3.069,-3.069,-3.069,-3.069,-3.069,0.0,0.0,0.0,0.0,0.0,0.0,0.0,0.0,0.0,0.0,0.0,0.0,0.0,0.0,0.0,0.0,0.0,0.0,0.0,0.0,0.0,0.0,0.0,0.0,0.0,0.0,-3.0253,-3.022,-3.0301,-2.9877,0.0,0.0,0.0,-2.8988,0.0,0.0,0.0,-2.9475,-2.9532,-2.9719,-2.9626,-2.9701,-2.9842,0.0,0.0,0.0,0.0,0.0,0.0,0.0,0.0,0.0,0.0,0.0,0.0,0.0,-2.828,-2.7207,-2.6329,-2.619,0.0,-2.4011,0.0,0.0,0.0,-2.3097,0.0,0.0,-2.332,-2.2572,-2.3115,0.0,0.0,0.0,0.0,0.0,0.0,0.0,0.0,0.0,0.0,0.0,0.0,0.0,0.0,0.0,0.0,0.0,0.0,-2.3832,-2.4147,-2.4436,-2.4309,-2.4408,-2.4761,-2.5635,-2.5951,-2.5678,-2.7567,-2.8378,-2.8249,-2.9466,-2.9988,-2.9913,-3.0542,-3.0814,-3.0794,-3.0749,-3.071,-3.069,-3.069,-3.0642,-3.0546,-3.0509,-3.0463,-3.0411,0.0,0.0,0.0,0.0,0.0,0.0,0.0,0.0,0.0,0.0,0.0,0.0,0.0,0.0,0.0,0.0,0.0,0.0,0.0,0.0,0.0,0.0,0.0,0.0,0.0,-3.0215,-3.0273,0.0,0.0,0.0,0.0,0.0,0.0,-2.8368,0.0,-2.9295,0.0,-2.9355,-2.9414,-2.9608,-2.955,-2.9589,-2.9717,0.0,0.0,0.0,0.0,0.0,0.0,0.0,0.0,0.0,0.0,0.0,0.0,-2.8159,-2.7394,-2.6265,-2.6254,-2.6045,0.0,-2.4548,-2.428,-2.4196,-2.3792,0.0,0.0,0.0,0.0,-2.2501,-2.2879,0.0,0.0,0.0,0.0,0.0,0.0,0.0,0.0,0.0,0.0,0.0,0.0,0.0,0.0,0.0,0.0,0.0,0.0,-2.3455,-2.3631,-2.3939,-2.4039,-2.4229,-2.4561,-2.5696,-2.611,-2.5793,-2.7377,-2.8165,-2.8243,-2.9648,-3.0186,-3.005,-3.0575,-3.0788,-3.0788,-3.0723,-3.0704,-3.0697,-3.0697,-3.0626,-3.0501,-3.0414,-3.0362,-3.0285,0.0,0.0,0.0,0.0,0.0,0.0,0.0,0.0,0.0,0.0,0.0,0.0,0.0,0.0,0.0,0.0,0.0,0.0,0.0,0.0,0.0,0.0,0.0,0.0,0.0,0.0,0.0,0.0,0.0,0.0,0.0,0.0,-2.8305,-2.79,0.0,-2.9042,-2.9182,-2.9107,-2.9187,-2.938,-2.9321,-2.9305,-2.9401,-2.9531,0.0,0.0,0.0,0.0,0.0,0.0,0.0,0.0,0.0,0.0,-2.6117,-2.7548,-2.642,-2.5033,-2.6371,-2.5748,0.0,-2.5062,-2.4679,0.0,-2.3602,-2.4126,-2.4341,-2.3059,0.0,-2.2524,-2.2897,0.0,0.0,0.0,0.0,0.0,0.0,0.0,0.0,0.0,0.0,0.0,0.0,0.0,0.0,0.0,0.0,0.0,0.0,-2.3566,-2.378,-2.421,-2.4248,-2.4426,-2.4821,-2.5857,-2.6414,0.0,-2.7617,-2.8165,-2.8119,-2.9065,-2.9972,-3.0806,-3.0804,-3.0806,-3.08,-3.0724,-3.0698,-3.0711,-3.0697,-3.0607,-3.0472,-3.0404,-3.0329,-3.0235,0.0,0.0,0.0,0.0,0.0,0.0,0.0,0.0,0.0,0.0,0.0,0.0,0.0,0.0,0.0,0.0,0.0,0.0,0.0,0.0,0.0,0.0,0.0,0.0,0.0,0.0,0.0,0.0,0.0,0.0,0.0,0.0,0.0,-2.6097,0.0,-2.7524,-2.8309,-2.7638,-2.7808,-2.854,-2.8482,-2.8129,-2.7715,-2.8474,-2.8676,0.0,0.0,0.0,0.0,0.0,0.0,0.0,-2.7718,-2.6507,-2.4688,-2.5168,-2.5207,-2.4917,-2.405,-2.484,0.0,0.0,-2.4543,-2.511,-2.5043,-2.5272,-2.5057,-2.3688,-2.2849,-2.2499,0.0,0.0,0.0,0.0,0.0,0.0,0.0,0.0,0.0,0.0,0.0,0.0,0.0,0.0,0.0,0.0,0.0,0.0,-2.3795,-2.4057,-2.4247,-2.4358,-2.4566,-2.4734,-2.4883,-2.5945,-2.6189,0.0,-2.7387,-2.7832,-2.7231,-2.8799,-2.9975,-3.08,-3.0801,-3.0759,-3.0722,-3.0716,-3.073,-3.0776,-3.0711,-3.0587,-3.0414,-3.0294,-3.0109,-2.9907,0.0,0.0,0.0,0.0,0.0,0.0,0.0,0.0,0.0,0.0,0.0,0.0,0.0,0.0,0.0,0.0,0.0,0.0,0.0,0.0,0.0,0.0,0.0,0.0,0.0,0.0,0.0,0.0,0.0,0.0,0.0,0.0,0.0,-2.5915,0.0,-2.7408,-2.8029,-2.7678,-2.781,-2.8334,-2.8689,-2.8372,-2.7755,-2.8669,-2.8781,-2.85,-2.8892,0.0,0.0,0.0,0.0,0.0,0.0,0.0,-2.4834,-2.4998,-2.4882,-2.4774,-2.4816,0.0,0.0,-2.5344,0.0,-2.6263,-2.5826,-2.603,-2.601,-2.5163,-2.3867,0.0,0.0,0.0,0.0,0.0,0.0,0.0,0.0,0.0,0.0,0.0,0.0,0.0,0.0,0.0,0.0,0.0,0.0,-2.4381,-2.4152,-2.4375,-2.4534,-2.4601,-2.4729,-2.487,-2.4993,-2.5606,-2.5764,-2.5468,-2.6495,-2.6979,-2.6982,-2.8318,-2.9391,-3.0212,-3.0183,-3.0394,-3.0751,-3.0758,-3.0767,-3.0784,-3.073,-3.0593,-3.0424,-3.0302,-3.0095,-2.9872,0.0,0.0,0.0,0.0,0.0,0.0,0.0,0.0,0.0,0.0,0.0,0.0,0.0,0.0,0.0,0.0,0.0,0.0,0.0,0.0,0.0,0.0,0.0,0.0,0.0,0.0,0.0,0.0,0.0,0.0,0.0,0.0,0.0,-2.6091,0.0,-2.7353,-2.7599,-2.7754,-2.7942,-2.8166,-2.8969,-2.8708,-2.7979,-2.897,-2.8839,-2.8259,-2.8949,-2.8741,-2.8123,-2.8214,0.0,0.0,0.0,0.0,-2.5297,-2.5438,-2.5034,-2.4843,-2.627,0.0,-2.6101,-2.7085,-2.757,0.0,-2.6707,-2.6924,-2.7208,-2.6892,-2.5078,0.0,0.0,0.0,0.0,0.0,0.0,0.0,0.0,0.0,0.0,0.0,0.0,0.0,0.0,0.0,0.0,0.0,0.0,-2.4929,-2.4448,-2.4566,-2.4679,-2.4791,-2.4832,-2.4934,-2.5138,-2.5264,-2.5388,-2.5514,-2.5641,-2.6073,-2.6819,-2.7683,-2.8534,-2.9354,-2.9312,-2.9784,-3.0581,-3.0584,-3.0659,-3.0784,-3.0742,-3.0631,-3.0496,-3.0383,-3.0184,-2.9946,0.0,0.0,0.0,0.0,0.0,0.0,0.0,0.0,0.0,0.0,0.0,0.0,0.0,0.0,0.0,0.0,0.0,0.0,-2.9416,0.0,0.0,-2.9454,-2.9375,0.0,0.0,0.0,0.0,0.0,0.0,0.0,0.0,0.0,0.0,-2.5013,0.0,0.0,-2.5912,-2.595,-2.6451,-2.7344,-2.8072,-2.7475,-2.6281,-2.7735,-2.7848,-2.7252,-2.7816,-2.7914,-2.7846,-2.8299,-2.7344,0.0,0.0,0.0,-2.4471,-2.4962,-2.53,-2.5528,0.0,0.0,-2.6963,0.0,-2.8914,-2.8838,0.0,0.0,-2.8722,0.0,0.0,0.0,0.0,0.0,0.0,0.0,0.0,0.0,0.0,0.0,0.0,0.0,0.0,0.0,0.0,0.0,0.0,0.0,-2.434,-2.454,-2.4566,-2.4695,-2.4791,-2.4806,-2.4974,-2.5126,-2.5264,-2.5348,-2.5456,-2.5583,-2.5652,-2.5769,-2.5906,-2.6773,-2.7619,-2.8387,-2.8437,-2.8925,-2.9668,-2.9668,-3.0117,-3.0799,-3.079,-3.07,-3.0575,-3.0494,-3.0265,-2.9962,0.0,0.0,0.0,0.0,0.0,0.0,0.0,0.0,0.0,0.0,0.0,0.0,0.0,0.0,0.0,-2.9181,-2.8421,-2.817,-2.8685,-2.919,-2.9353,-2.9188,-2.9119,-2.9075,0.0,0.0,0.0,0.0,0.0,0.0,0.0,-2.7834,-2.6989,0.0,0.0,0.0,0.0,0.0,-2.7065,-2.7213,-2.8427,-2.8126,-2.7119,-2.8307,-2.8408,-2.7923,-2.8201,-2.819,-2.7985,-2.7727,-2.7308,-2.68,-2.6197,0.0,0.0,0.0,-2.4465,-2.4689,-2.5696,-2.718,-2.878,0.0,-3.0518,-3.0699,-3.0422,0.0,-3.0868,-2.9907,0.0,0.0,0.0,0.0,0.0,0.0,0.0,0.0,0.0,0.0,0.0,0.0,0.0,0.0,0.0,0.0,0.0,0.0,-2.4728,-2.4963,-2.4714,-2.4865,-2.4974,-2.4974,-2.5126,-2.5254,-2.5348,-2.539,-2.5471,-2.5601,-2.5664,-2.5697,-2.571,-2.6098,-2.6719,-2.7532,-2.8538,-2.9174,-2.9541,-3.0038,-3.0448,-3.0808,-3.0801,-3.0767,-3.07,-3.0587,-3.0394,-3.012,0.0,0.0,0.0,0.0,0.0,0.0,0.0,0.0,0.0,0.0,0.0,0.0,0.0,0.0,0.0,0.0,-2.8327,-2.7978,-2.8143,-2.8845,-2.9185,-2.8948,-2.8868,-2.8858,-2.8863,0.0,0.0,0.0,0.0,0.0,-2.8764,-2.7785,-2.7276,0.0,-2.6524,-2.6297,0.0,0.0,0.0,-2.714,-2.848,-2.8524,-2.7914,-2.8725,-2.8686,-2.8232,-2.8406,-2.8224,-2.7763,-2.7014,-2.6894,-2.6882,-2.5743,-2.5572,0.0,0.0,0.0,-2.4373,0.0,0.0,-2.9609,-3.1112,-3.2005,-3.2441,0.0,0.0,-3.2689,0.0,0.0,0.0,0.0,0.0,0.0,0.0,0.0,0.0,0.0,0.0,0.0,0.0,0.0,0.0,0.0,0.0,0.0,0.0,-2.4912,-2.5213,-2.4898,-2.5013,-2.5115,-2.5149,-2.5254,-2.5339,-2.5406,-2.543,-2.5492,-2.5601,-2.5648,-2.5687,-2.5707,-2.5901,-2.6228,-2.6672,-2.8193,-2.8832,-2.8925,-3.0024,-3.0466,-3.0482,-3.0706,-3.08,-3.0792,-3.0682,-3.0513,-3.0289,0.0,0.0,0.0,0.0,0.0,0.0,0.0,0.0,0.0,0.0,0.0,0.0,0.0,-2.8644,-2.8669,-2.8637,-2.8173,-2.7935,-2.8024,-2.8607,-2.8887,-2.8797,-2.8743,0.0,-2.8797,0.0,0.0,0.0,0.0,0.0,-2.9061,-2.7545,-2.7128,-2.7633,-2.664,-2.5925,-2.5518,0.0,0.0,0.0,-2.7463,-2.7665,-2.767,-2.8167,-2.7877,-2.7241,-2.7705,-2.737,-2.6725,-2.6283,-2.5715,-2.5161,-2.5138,-2.4701,-2.4383,0.0,0.0,0.0,0.0,-2.7444,0.0,-3.2001,-3.3223,0.0,0.0,0.0,0.0,0.0,0.0,0.0,0.0,0.0,0.0,0.0,0.0,0.0,0.0,0.0,0.0,0.0,0.0,0.0,0.0,0.0,0.0,0.0,-2.4512,-2.4768,-2.5076,-2.5082,-2.5153,-2.5293,-2.5357,-2.5406,-2.5387,-2.5525,-2.5595,-2.5601,-2.5607,-2.5646,-2.5723,-2.6482,-2.645,-2.5807,-2.6668,-2.7034,-2.7172,-2.8875,-2.9567,-2.9643,-3.0477,-3.0798,-3.0792,-3.0784,-3.0653,-3.0432,0.0,0.0,0.0,0.0,0.0,0.0,0.0,0.0,0.0,0.0,0.0,0.0,0.0,-2.8543,-2.8543,-2.8536,-2.8536,-2.8251,-2.7575,-2.8476,-2.8887,-2.8619,-2.8718,-2.8791,-2.8797,0.0,0.0,0.0,0.0,-2.9551,-2.9457,-2.839,-2.8015,-2.8147,-2.6951,-2.6036,-2.5496,-2.6859,0.0,0.0,0.0,0.0,0.0,-2.8228,0.0,0.0,0.0,0.0,-2.7566,-2.6911,-2.6179,-2.545,-2.4596,-2.4286,-2.4241,-2.4319,-2.4665,-2.5434,0.0,0.0,0.0,-3.1844,-3.3278,-3.398,-3.3682,-3.4441,-3.4722,0.0,0.0,0.0,0.0,0.0,0.0,0.0,0.0,0.0,0.0,0.0,0.0,0.0,0.0,0.0,0.0,0.0,0.0,0.0,0.0,-2.4914,-2.5753,-2.5409,-2.5233,-2.536,-2.5476,-2.5796,-2.6366,-2.6405,-2.6436,-2.6436,-2.5873,-2.5601,-2.564,-2.5985,-2.5968,-2.5738,-2.6541,-2.6895,-2.7036,-2.8781,-2.9496,-2.9599,-3.0458,-3.0806,-3.081,-3.0801,-3.0697,-3.0525,0.0,0.0,0.0,0.0,0.0,0.0,0.0,0.0,0.0,0.0,0.0,0.0,0.0,0.0,-2.8414,-2.8466,-2.8694,-2.8554,-2.79,-2.8599,-2.8929,-2.8644,-2.8767,-2.8839,-2.8863,0.0,0.0,0.0,0.0,0.0,0.0,-2.902,-2.8442,-2.8062,-2.7083,-2.6204,0.0,0.0,0.0,-2.6615,0.0,0.0,-2.8927,0.0,0.0,0.0,0.0,0.0,0.0,0.0,-2.7031,-2.6182,-2.4847,-2.4304,-2.407,-2.3759,-2.4111,-2.4929,-2.6385,0.0,0.0,0.0,0.0,-3.2907,-3.3264,0.0,-3.4335,0.0,0.0,0.0,0.0,0.0,0.0,0.0,0.0,0.0,0.0,0.0,0.0,0.0,0.0,0.0,0.0,0.0,0.0,0.0,0.0,0.0,-2.6184,-2.5554,-2.5245,-2.5429,-2.5544,-2.5873,-2.6456,-2.6488,-2.6508,-2.6495,-2.5912,-2.564,-2.564,-2.5678,-2.5694,-2.5732,-2.6555,-2.6751,-2.664,-2.8668,-2.9336,-2.9219,-3.0351,-3.08,-3.0798,-3.0799,-3.073,-3.0591,0.0,0.0,0.0,0.0,0.0,0.0,0.0,0.0,0.0,0.0,0.0,0.0,0.0,0.0,0.0,-2.837,-2.8594,-2.8791,-2.898,-2.8934,-2.8905,-2.8905,-2.8905,-2.8934,-2.9003,0.0,0.0,0.0,0.0,0.0,0.0,0.0,-2.8365,-2.7339,-2.7093,-2.6486,-2.5597,0.0,-2.5719,-2.6395,0.0,-2.6968,-2.7777,0.0,0.0,0.0,-2.8194,-2.81,0.0,-2.834,0.0,0.0,0.0,-2.4735,-2.3858,-2.3828,-2.3974,-2.4295,0.0,0.0,0.0,0.0,0.0,0.0,-3.3195,0.0,0.0,0.0,0.0,0.0,0.0,0.0,0.0,0.0,0.0,0.0,0.0,0.0,0.0,0.0,0.0,0.0,0.0,0.0,0.0,0.0,-2.6172,-2.5998,-2.6365,-2.5619,-2.5283,-2.5531,-2.5622,-2.5659,-2.564,-2.5699,-2.5738,-2.5743,-2.5718,-2.5704,-2.5749,-2.5735,-2.576,-2.5815,-2.6609,-2.6488,-2.5956,-2.8476,-2.9022,-2.8455,-3.0149,-3.0801,-3.08,-3.0808,-3.075,-3.0649,0.0,0.0,0.0,0.0,0.0,0.0,0.0,0.0,0.0,0.0,0.0,0.0,0.0,0.0,-2.8164,-2.844,-2.8569,-2.8633,-2.8646,-2.8938,-2.9067,-2.8905,-2.9085,-2.9175,-2.9156,0.0,0.0,0.0,0.0,0.0,0.0,0.0,0.0,0.0,-2.7373,-2.6522,-2.5652,-2.5404,0.0,-2.6181,-2.5327,-2.6645,0.0,0.0,0.0,0.0,0.0,-3.0125,-3.0404,0.0,-2.8459,-2.7742,0.0,0.0,-2.5045,-2.4707,-2.4744,-2.4947,-2.5228,0.0,0.0,0.0,0.0,0.0,0.0,0.0,0.0,0.0,0.0,0.0,0.0,0.0,0.0,0.0,0.0,0.0,0.0,0.0,0.0,0.0,0.0,0.0,0.0,0.0,0.0,0.0,-2.7209,-2.7214,-2.8135,-2.7508,-2.692,-2.6456,-2.7064,-2.7123,-2.6551,-2.6565,-2.6568,-2.6552,-2.5979,-2.6002,-2.6578,-2.6624,-2.6961,-2.7524,-2.7648,-2.7574,-2.7478,-2.8904,-2.9,-2.8396,-3.0063,-3.0755,-3.0792,-3.0742,-3.0749,-3.0736,0.0,0.0,0.0,0.0,0.0,0.0,0.0,0.0,0.0,0.0,0.0,0.0,0.0,0.0,-2.8309,-2.844,-2.8669,-2.8773,-2.8761,-2.9093,-2.924,-2.9112,-2.9262,-2.9304,-2.9283,0.0,0.0,0.0,0.0,0.0,0.0,0.0,0.0,0.0,0.0,0.0,0.0,0.0,0.0,0.0,-2.6063,0.0,0.0,-2.8516,-2.9242,0.0,0.0,0.0,-3.1141,-3.0358,-2.9386,0.0,0.0,0.0,0.0,0.0,0.0,-2.5564,-2.5753,-2.5962,0.0,0.0,0.0,0.0,-2.7711,-2.8296,0.0,0.0,0.0,0.0,0.0,0.0,0.0,0.0,0.0,0.0,0.0,0.0,0.0,0.0,0.0,0.0,0.0,-2.8187,-2.8396,-2.8765,-2.8104,-2.7919,-2.842,-2.8124,-2.7765,-2.736,-2.7867,-2.7931,-2.749,-2.7481,-2.7305,-2.6933,-2.6438,-2.6443,-2.69,-2.6937,-2.7375,-2.8119,-2.8418,-2.8299,-2.803,-2.9303,-2.9345,-2.8709,-3.0056,-3.0576,-3.0595,-3.0622,-3.0847,-3.1106,0.0,0.0,0.0,0.0,0.0,0.0,0.0,0.0,0.0,0.0,0.0,0.0,0.0,0.0,0.0,0.0,-2.8791,-2.9044,-2.913,-2.9283,-2.9386,-2.9407,-2.9407,-2.9407,-2.9386,0.0,0.0,0.0,0.0,0.0,0.0,0.0,0.0,0.0,0.0,0.0,0.0,0.0,0.0,-2.6561,-2.7736,-2.8421,0.0,0.0,-2.9765,-2.9747,-3.0382,-3.0709,-3.0917,-3.1541,-3.0543,0.0,0.0,0.0,0.0,0.0,-2.6097,-2.6291,-2.6435,-2.6533,-2.6641,0.0,0.0,0.0,-2.8062,-2.758,-2.713,0.0,0.0,0.0,0.0,0.0,0.0,0.0,0.0,0.0,0.0,0.0,0.0,0.0,0.0,0.0,-3.0417,-3.048,-3.0312,-2.972,-2.902,-2.8468,-2.8118,-2.8213,-2.8266,-2.8257,-2.8293,-2.832,-2.8299,-2.8281,-2.7899,-2.7148,-2.6985,-2.6945,-2.702,-2.7013,-2.7419,-2.8161,-2.9008,-2.8864,-2.8147,-2.9621,-2.978,-2.9173,-3.0051,-3.0362,-3.034,-3.0548,-3.1021,-3.1463,-2.9963,0.0,0.0,0.0,0.0,0.0,0.0,0.0,0.0,0.0,0.0,0.0,0.0,0.0,0.0,0.0,-2.8839,-2.9021,-2.9259,-2.9302,-2.9344,-2.9407,-2.9407,-2.9386,-2.9323,-2.9539,0.0,0.0,0.0,0.0,0.0,0.0,0.0,0.0,0.0,0.0,0.0,0.0,0.0,-2.8094,-2.7727,0.0,-2.9367,-2.993,-3.058,-3.1263,-3.1418,-3.2104,-3.2843,-3.2283,-3.1411,-3.0347,0.0,0.0,0.0,-2.7093,0.0,0.0,0.0,0.0,0.0,0.0,0.0,0.0,-2.5659,-2.5479,-2.5518,0.0,0.0,0.0,0.0,0.0,0.0,0.0,0.0,0.0,0.0,0.0,0.0,0.0,0.0,0.0,-3.1334,-3.1432,-3.132,-3.0825,-3.0314,-2.9997,-2.9976,-2.9993,-2.9737,-2.9164,-2.9149,-2.8885,-2.831,-2.8242,-2.8162,-2.8035,-2.7276,-2.7213,-2.7779,-2.7786,-2.8193,-2.8929,-2.953,-2.9665,-2.9525,-2.9734,-2.9493,-2.9118,-2.9979,-3.0317,-3.0394,-3.1185,-3.1167,-3.0809,-3.0358,0.0,0.0,0.0,0.0,0.0,0.0,0.0,0.0,0.0,0.0,0.0,0.0,0.0,0.0,0.0,0.0,0.0,0.0,-2.9344,-2.9365,-2.9407,-2.9409,-2.937,-2.9349,-2.9822,0.0,0.0,0.0,0.0,0.0,0.0,0.0,0.0,0.0,0.0,0.0,0.0,-2.7959,-2.8713,-2.8703,0.0,-3.0385,-3.0798,-3.1422,-3.202,-3.1858,-3.2209,-3.272,-3.2613,-3.1585,0.0,0.0,-2.9859,-2.8917,0.0,-2.778,-2.7987,0.0,0.0,0.0,-2.6541,0.0,0.0,0.0,-2.6078,-2.6055,-2.6743,-2.6605,-2.6199,-2.5812,0.0,0.0,0.0,0.0,0.0,0.0,0.0,0.0,0.0,0.0,0.0,-3.2344,-3.2471,-3.2239,-3.1362,-3.1175,-3.0951,-3.0577,-3.0578,-3.0442,-3.0106,-3.0095,-2.9932,-2.9595,-2.9531,-2.9308,-2.8883,-2.8411,-2.8124,-2.8017,-2.8415,-2.872,-2.8931,-2.9612,-2.9815,-2.9716,-2.9645,-2.9452,-2.9304,-2.9894,-3.0109,-3.018,-3.0695,-3.1225,-3.1603,-3.0788,0.0,0.0,0.0,0.0,0.0,0.0,0.0,0.0,0.0,0.0,0.0,0.0,0.0,0.0,0.0,0.0,0.0,0.0,-2.9451,-2.9391,-2.9407,-2.9411,-2.9412,-2.9412,-3.0107,-3.0185,0.0,0.0,0.0,0.0,0.0,0.0,0.0,0.0,0.0,0.0,0.0,0.0,-2.9344,0.0,-3.0508,-3.1072,-3.1655,-3.1986,-3.2177,-3.2074,-3.2056,-3.2179,-3.2579,-3.1533,-3.0258,-3.1388,-3.0449,0.0,0.0,0.0,0.0,0.0,0.0,0.0,0.0,0.0,-2.7081,0.0,0.0,0.0,-2.7615,-2.75,0.0,0.0,0.0,0.0,0.0,0.0,0.0,0.0,0.0,0.0,0.0,0.0,0.0,0.0,-3.2774,-3.2693,-3.201,-3.1684,-3.1409,-3.113,-3.118,-3.1149,-3.1047,-3.1067,-3.1024,-3.0898,-3.0839,-3.0445,-2.9745,-2.9564,-2.8958,-2.8023,-2.8646,-2.8772,-2.8521,-2.926,-2.9547,-2.9492,-2.9472,-2.9472,-2.9531,-2.977,-2.9855,-2.9891,-3.0209,-3.1169,-3.2154,-2.9957,-2.994,0.0,0.0,0.0,0.0,0.0,0.0,0.0,0.0,0.0,0.0,0.0,0.0,0.0,0.0,0.0,0.0,-3.0356,0.0,-2.9411,-2.9405,-2.9411,-2.9412,-2.9412,-2.9624,-2.9682,0.0,0.0,0.0,0.0,0.0,0.0,0.0,-2.8781,0.0,0.0,0.0,-2.913,0.0,-3.0849,-3.0606,0.0,-3.1859,-3.2015,-3.152,-3.2241,-3.2521,-3.2433,0.0,-3.1515,-3.1073,0.0,-3.0225,-3.0685,-2.7924,0.0,0.0,0.0,0.0,0.0,0.0,-2.7268,0.0,0.0,0.0,-2.6191,-2.5594,0.0,0.0,0.0,0.0,0.0,0.0,0.0,0.0,0.0,0.0,0.0,0.0,0.0,0.0,0.0,-3.1148,-3.1984,-3.3517,-3.1705,-3.1264,-3.2904,-3.2992,-3.2681,-3.1967,-3.2004,-3.1678,-3.0918,-3.0825,-3.0742,-3.063,-2.9802,-2.8927,-2.8004,-2.7981,-2.7862,-2.775,-2.8194,-2.8802,-2.9492,-2.9312,-2.9332,-2.9512,-2.9663,-2.9716,-2.9828,-3.0804,-3.0877,-3.0702,-3.0158,-2.9857,0.0,0.0,0.0,0.0,0.0,0.0,0.0,0.0,0.0,0.0,0.0,0.0,0.0,0.0,0.0,-3.0861,0.0,0.0,-3.0504,-3.0512,-3.0083,-2.9975,-3.0161,-2.9793,-2.9607,-2.9664,-2.9701,0.0,0.0,0.0,0.0,0.0,-2.9739,0.0,-3.034,0.0,-3.0788,0.0,0.0,0.0,0.0,-3.2181,-3.2411,-3.2214,-3.2482,-3.2737,-3.2916,0.0,-3.2107,0.0,0.0,0.0,0.0,0.0,0.0,0.0,0.0,0.0,0.0,0.0,0.0,0.0,-2.7191,0.0,-2.6951,0.0,0.0,0.0,0.0,0.0,0.0,0.0,-2.4893,0.0,0.0,0.0,0.0,0.0,0.0,0.0,0.0,0.0,0.0,0.0,-3.2789,-3.2357,-3.3253,-3.334,-3.2986,-3.2179,-3.2184,-3.1777,-3.0918,-3.0875,-3.0833,-3.0792,-3.0406,-2.9703,-2.8778,-2.9187,-2.8952,-2.8265,-2.8912,-2.9306,-2.9492,-2.9394,-2.9414,-2.9512,-2.9645,-2.9753,-2.9859,-3.0319,-3.0706,-3.1044,-3.088,-3.0538,0.0,0.0,0.0,0.0,0.0,0.0,0.0,0.0,0.0,0.0,-2.9071,-2.9632,0.0,0.0,-3.1215,-3.1633,0.0,0.0,-3.1293,0.0,0.0,0.0,-3.0602,-3.0146,-2.9851,-2.9664,0.0,0.0,0.0,0.0,0.0,0.0,0.0,-3.0563,-3.0846,0.0,-3.1829,-3.254,-3.2401,-3.2309,-3.2319,-3.2307,-3.2559,-3.287,-3.277,-3.293,-3.325,-3.361,-3.2505,0.0,-3.3078,0.0,0.0,0.0,0.0,0.0,-2.5936,0.0,0.0,0.0,0.0,0.0,0.0,0.0,0.0,0.0,0.0,0.0,0.0,0.0,0.0,0.0,0.0,-2.5768,0.0,0.0,0.0,0.0,0.0,0.0,0.0,0.0,0.0,-3.387,-3.3209,-3.3231,-3.4315,-3.4183,-3.3834,-3.326,-3.3006,-3.2342,-3.1249,-3.123,-3.1077,-3.08,-3.0788,-3.028,-2.9353,-2.9909,-2.9687,-2.8886,-2.9375,-2.9604,-2.9644,-2.957,-2.9551,-2.9589,-2.9681,-2.9805,-2.9994,-3.017,-3.0638,-3.1179,-3.2107,-3.2127,0.0,0.0,0.0,0.0,0.0,0.0,0.0,0.0,0.0,0.0,0.0,0.0,0.0,0.0,0.0,-3.2859,-3.2479,0.0,-3.1288,0.0,0.0,-3.1022,0.0,-3.0605,-3.0374,-2.9607,0.0,0.0,0.0,0.0,0.0,0.0,0.0,-3.0206,-3.1172,-3.0866,-3.1603,-3.298,-3.2966,-3.3202,-3.3393,0.0,-3.2255,-3.3086,-3.3086,0.0,0.0,-3.2739,-3.2365,0.0,0.0,0.0,0.0,0.0,0.0,0.0,0.0,0.0,0.0,-2.5923,0.0,0.0,0.0,0.0,-2.7007,0.0,0.0,0.0,0.0,0.0,-2.5846,-2.5777,-2.5235,0.0,0.0,0.0,0.0,0.0,0.0,0.0,0.0,0.0,0.0,-3.2797,-3.2309,-3.3433,-3.6884,-3.6284,-3.5845,-3.5876,-3.5057,-3.3807,-3.2073,-3.2051,-3.1631,-3.0804,-3.0728,-3.0243,-2.9401,-2.9358,-2.9326,-2.9272,-2.8955,-2.9273,-2.9971,-2.9695,-2.9662,-2.9784,-2.9716,-2.9874,-3.0183,-3.0905,-3.0738,-3.0398,-3.3317,-3.3381,0.0,0.0,0.0,0.0,0.0,-3.2008,0.0,0.0,0.0,0.0,0.0,-3.1584,-3.2202,0.0,0.0,-3.3326,-3.3008,-3.2912,0.0,0.0,0.0,-3.2302,0.0,0.0,0.0,0.0,0.0,0.0,0.0,0.0,0.0,0.0,0.0,-3.0788,0.0,0.0,0.0,0.0,0.0,-3.3324,-3.2938,0.0,0.0,-3.3304,-3.3304,-3.3473,0.0,-3.3503,-3.3147,-3.2865,-3.3245,-3.2386,-3.1219,-3.1201,-3.0808,0.0,0.0,0.0,-3.0158,-2.7649,0.0,0.0,0.0,0.0,0.0,0.0,0.0,0.0,0.0,0.0,-2.6784,-2.6514,-2.6054,-2.5652,0.0,0.0,0.0,0.0,0.0,0.0,0.0,0.0,0.0,-3.3829,-3.3252,-3.384,-3.6152,-3.6035,-3.5659,-3.5095,-3.4837,-3.4135,-3.2966,-3.2384,-3.1942,-3.164,-3.1049,-3.0589,-3.0261,-3.0243,-3.0203,-3.0146,-3.0046,-3.043,-3.1064,-3.036,-3.0433,-3.092,-3.027,-3.0098,-3.018,-3.0411,-3.0405,-3.04,-3.4579,0.0,0.0,0.0,0.0,0.0,0.0,0.0,0.0,0.0,-3.3246,0.0,-3.2342,0.0,-3.3203,0.0,-3.4024,-3.4141,-3.3629,-3.3979,0.0,-3.4127,-3.3768,-3.3712,0.0,0.0,0.0,0.0,0.0,-3.1215,0.0,0.0,0.0,0.0,0.0,-3.1111,-3.2223,0.0,-3.3513,0.0,0.0,-3.3709,0.0,0.0,-3.346,-3.3268,0.0,-3.3842,-3.4099,-3.4173,-3.3915,-3.3672,-3.4304,-3.3347,-3.2064,-3.2538,-3.2143,-3.1385,-3.0807,-3.137,0.0,-2.9076,-2.9485,0.0,-2.757,0.0,0.0,0.0,0.0,0.0,0.0,0.0,-2.7192,-2.7344,-2.6594,-2.585,0.0,-2.5352,0.0,0.0,0.0,0.0,0.0,0.0,-3.1612,-3.3018,-3.3254,-3.4066,0.0,0.0,-3.578,-3.553,-3.5268,-3.4705,-3.3843,-3.3288,-3.2861,-3.2512,-3.1987,-3.1523,-3.1168,-3.1198,-3.1006,-3.0665,-3.0658,-3.1084,-3.1726,-3.076,-3.0879,-3.1573,-3.0612,-3.0247,-3.0286,-3.0471,-3.0624,-3.0816,-3.5882,0.0,0.0,0.0,-3.3771,0.0,0.0,0.0,-3.5684,0.0,-3.5275,-3.4851,-3.4884,-3.5066,-3.5169,-3.5122,-3.5428,-3.5232,-3.4387,-3.4953,0.0,0.0,-3.5098,-3.5199,-3.4573,0.0,0.0,0.0,0.0,0.0,0.0,0.0,0.0,0.0,-3.0471,0.0,-3.2691,-3.2691,-3.3549,-3.4851,-3.4476,-3.4298,-3.4237,-3.4154,-3.361,-3.3045,-3.3881,-3.4293,-3.445,-3.4645,-3.4561,-3.4473,-3.4645,-3.4539,-3.4293,-3.4173,-3.4629,-3.4689,-3.2397,-3.2005,-3.1818,-3.0224,0.0,0.0,0.0,0.0,-2.9423,0.0,0.0,0.0,0.0,0.0,0.0,-2.8157,-2.678,-2.5469,-2.5151,0.0,0.0,0.0,0.0,0.0,0.0,-2.8457,-2.9844,-3.0684,-3.2354,-3.4078,0.0,0.0,-3.6229,-3.7103,-3.6327,-3.5491,-3.4671,-3.469,-3.4242,-3.3363,-3.3389,-3.2928,-3.2069,-3.2148,-3.1699,-3.0858,-3.0791,-3.1235,-3.1928,-3.0933,-3.1023,-3.171,-3.0714,-3.0371,-3.0518,-3.1092,-3.1344,-3.1522,-3.6993,-3.6606,-3.617,0.0,-3.575,-3.6147,0.0,0.0,0.0,0.0,-3.599,-3.5283,-3.5983,-3.5735,-3.5487,-3.546,-3.5559,0.0,0.0,0.0,0.0,-3.6098,-3.5865,-3.6061,-3.6859,-3.5515,-3.4837,-3.4969,0.0,0.0,-3.2147,0.0,0.0,0.0,0.0,0.0,-3.2626,-3.2632,-3.3429,-3.4668,-3.4561,-3.4124,0.0,0.0,-3.4118,-3.3579,-3.4132,-3.4473,-3.4645,-3.4687,-3.473,-3.4772,-3.4829,-3.4788,-3.4727,-3.4602,-3.4667,-3.4768,-3.4494,-3.4005,-3.328,-3.2017,-3.2074,-3.2055,0.0,0.0,0.0,0.0,0.0,0.0,0.0,0.0,0.0,-2.7493,-2.6087,-2.517,0.0,0.0,0.0,-2.5556,0.0,-2.648,-2.7719,-2.8859,-3.0386,-3.2517,-3.2538,0.0,0.0,0.0,0.0,-3.6059,-3.5912,-3.5728,-3.5486,-3.491,-3.4502,-3.4259,-3.3672,-3.3275,-3.3048,-3.3066,-3.2586,-3.1768,-3.1758,-3.1871,-3.2004,-3.1031,-3.1162,-3.1857,-3.0892,-3.0807,-3.1226,-3.1383,-3.1436,-3.1518,-3.7796,0.0,0.0,-3.7221,0.0,0.0,-3.7671,0.0,0.0,-3.8114,-3.6869,0.0,-3.6681,-3.6423,-3.6199,-3.6199,-3.6381,0.0,-3.5966,0.0,0.0,-3.7143,-3.7064,-3.7168,-3.7524,-3.6334,0.0,-3.5001,0.0,0.0,-3.2222,0.0,0.0,0.0,0.0,-3.1489,-3.2775,-3.3462,-3.4111,-3.4727,-3.5021,0.0,0.0,-3.4567,-3.4466,-3.4245,-3.4519,-3.4691,-3.479,-3.479,-3.4831,-3.4908,-3.4907,-3.4887,-3.4848,-3.4747,-3.4666,-3.4717,-3.4988,-3.4599,-3.3988,-3.3357,-3.3464,-3.3485,-3.2462,-3.2735,-3.3154,0.0,0.0,0.0,0.0,0.0,0.0,-2.6945,-2.5754,0.0,0.0,0.0,0.0,0.0,-2.5622,0.0,-2.7538,-2.8451,-2.9723,-3.152,-3.1932,0.0,0.0,0.0,0.0,-3.5248,-3.5206,-3.5394,-3.5836,-3.4647,-3.4222,-3.4585,-3.4131,-3.3726,-3.337,-3.3745,-3.3442,-3.2627,-3.2619,-3.2845,-3.3123,-3.2241,-3.217,-3.2514,-3.1582,-3.1596,-3.2201,-3.2586,-3.2363,-3.1968,-3.8625,0.0,0.0,0.0,0.0,0.0,0.0,-3.8323,0.0,-3.8848,0.0,-3.7206,-3.7326,-3.72,-3.7108,-3.7185,0.0,-3.7484,-3.7047,-3.789,-3.823,-3.7812,-3.8313,-3.8224,-3.7456,-3.6833,-3.581,0.0,0.0,0.0,0.0,0.0,0.0,0.0,0.0,0.0,0.0,-3.4522,-3.5039,-3.4938,-3.5638,-3.581,-3.5572,-3.4948,-3.4781,-3.4887,-3.4888,-3.4889,-3.4908,-3.4908,-3.4908,-3.4889,-3.4907,-3.4848,-3.4768,-3.4727,-3.4645,-3.4602,-3.4602,-3.4427,-3.4245,-3.4245,-3.4338,-3.4364,-3.416,-3.382,-3.3673,-3.4037,-3.3072,-3.2538,0.0,0.0,0.0,0.0,0.0,0.0,0.0,0.0,0.0,0.0,0.0,0.0,-2.6771,-2.7699,-2.8654,-2.9511,0.0,0.0,0.0,0.0,0.0,-3.4676,-3.4615,0.0,-3.5664,0.0,-3.3764,-3.4408,-3.4403,-3.4027,-3.3334,-3.4074,-3.4016,-3.3301,-3.3301,-3.3734,-3.441,-3.3803,-3.3554,-3.3476,-3.2653,-3.2757,-3.3433,-3.4089,-3.3821,-3.3208,-4.0372,0.0,0.0,0.0,0.0,-4.0086,-3.9913,-3.9657,-3.9423,-3.9385,-3.8513,-3.8042,-3.8469,-3.8007,-3.7773,-3.8047,-3.8129,0.0,0.0,0.0,0.0,-3.8823,-3.8685,-3.8449,-3.8134,-3.711,-3.6261,0.0,0.0,0.0,0.0,0.0,0.0,0.0,0.0,0.0,-3.2772,-3.4352,0.0,-3.5317,-3.6248,-3.6081,-3.528,-3.5323,-3.5124,-3.4827,-3.4809,-3.4849,-3.4908,-3.4908,-3.4908,-3.4887,-3.4829,-3.4768,-3.4687,-3.4645,-3.4623,-3.4602,-3.4602,-3.458,-3.4517,-3.4517,-3.5061,-3.5631,-3.5681,-3.6142,-3.6432,-3.5967,-3.5647,-3.5135,-3.4073,0.0,0.0,0.0,0.0,0.0,0.0,0.0,0.0,0.0,0.0,-2.7089,0.0,-2.7327,0.0,0.0,0.0,0.0,0.0,0.0,0.0,0.0,-3.5145,0.0,0.0,0.0,-3.3926,-3.3354,-3.3414,-3.3382,-3.3315,-3.3451,-3.3432,-3.3301,-3.3356,-3.3468,-3.3648,-3.417,-3.4386,-3.4374,-3.4219,-3.4582,-3.5166,-3.46,-3.551,-3.6845,0.0,0.0,0.0,0.0,0.0,0.0,0.0,-4.0543,0.0,-4.0103,-3.8919,-3.8223,-3.8574,-3.8264,-3.8129,-3.831,-3.848,-3.8615,-3.8663,-3.8886,-3.9119,-3.9335,-3.921,-3.8667,-3.7699,-3.7225,-3.6216,-3.471,0.0,0.0,0.0,0.0,0.0,0.0,0.0,-3.3058,0.0,0.0,0.0,-3.6105,-3.7205,-3.72,-3.6485,-3.5923,-3.5581,-3.5313,-3.4939,-3.4829,-3.4849,-3.4849,-3.4849,-3.4848,-3.4768,-3.4727,-3.4687,-3.4623,-3.4647,-3.4691,-3.4691,-3.4691,-3.4691,-3.4691,-3.5011,-3.5466,-3.5962,-3.6101,-3.6141,-3.6273,-3.6021,-3.5269,-3.3601,-3.224,0.0,0.0,0.0,0.0,0.0,0.0,-2.9062,0.0,0.0,0.0,0.0,0.0,0.0,0.0,0.0,0.0,0.0,0.0,0.0,0.0,0.0,0.0,0.0,0.0,0.0,-3.3727,-3.3759,-3.3537,-3.3111,-3.3627,-3.3849,-3.3832,-3.3959,-3.4255,-3.4672,-3.511,-3.5814,-3.657,-3.6138,-3.6442,-3.7109,-3.6689,-3.7253,-3.8054,0.0,-4.0277,0.0,0.0,-4.0725,0.0,-4.0716,-4.1194,-4.1286,-4.0469,-3.9218,-3.8445,-3.8499,-3.848,-3.8499,-3.8591,-3.8857,-3.9054,-3.9054,-3.9395,-3.9602,-3.9602,-3.9602,-3.8831,-3.7186,-3.7435,-3.6384,0.0,0.0,0.0,0.0,0.0,0.0,0.0,0.0,0.0,0.0,0.0,-3.6656,-3.7038,-3.8115,-3.8153,-3.7456,-3.6438,-3.5882,-3.555,-3.4973,-3.4768,-3.4768,-3.4768,-3.4768,-3.4768,-3.4727,-3.4687,-3.4666,-3.4647,-3.4732,-3.4832,-3.487,-3.487,-3.4889,-3.4889,-3.4889,-3.5078,-3.5761,-3.5474,-3.5257,-3.598,-3.5717,-3.4846,-3.314,-3.2627,0.0,0.0,0.0,0.0,0.0,0.0,0.0,0.0,0.0,0.0,-2.8203,0.0,0.0,0.0,0.0,0.0,0.0,0.0,0.0,0.0,0.0,-3.391,-3.5171,0.0,-3.3481,0.0,-3.3986,-3.3616,-3.2945,-3.3557,-3.4003,-3.4331,-3.4326,-3.499,-3.6112,-3.615,-3.7097,-3.8427,-3.7745,-3.8011,-3.8775,-3.8781,-3.9,-3.9141,0.0,0.0,0.0,0.0,0.0,0.0,-4.1601,-4.1586,-4.1108,-3.9695,-3.9477,-3.9287,-3.8884,-3.8952,-3.9156,-3.9458,-3.9508,-3.9533,-3.9533,-3.9577,-3.9602,-3.9602,-3.9602,-3.8884,-3.7322,-3.8131,-3.7376,0.0,0.0,-3.5902,0.0,0.0,0.0,0.0,0.0,0.0,0.0,-3.6837,-3.7338,-3.7764,-3.8664,-3.8106,-3.6697,-3.6575,-3.5781,-3.4717,-3.4642,-3.4623,-3.4623,-3.4623,-3.4666,-3.4727,-3.4687,-3.4666,-3.4626,-3.4752,-3.4832,-3.4925,-3.5047,-3.5127,-3.517,-3.517,-3.517,-3.5189,-3.535,-3.5326,-3.5321,-3.5523,-3.5579,-3.5048,-3.3304,-3.4223,-3.4174,0.0,0.0,0.0,0.0,0.0,-3.2173,-3.1551,0.0,0.0,0.0,-2.817,0.0,0.0,0.0,0.0,0.0,0.0,0.0,-3.2135,0.0,-3.3915,-3.3176,-3.3775,-3.3667,-3.2851,-3.2961,-3.3024,-3.296,-3.2257,-3.284,-3.4342,-3.3701,-3.4821,-3.7072,-3.7077,-3.7642,-3.848,-3.8408,-3.8915,-3.968,-3.9669,-4.0639,-4.1819,0.0,0.0,0.0,0.0,0.0,0.0,0.0,-4.2006,-4.1454,-3.985,-3.9602,-3.9562,-3.9433,-3.9566,-3.9656,-3.9708,-3.9785,-3.9781,-3.9602,-3.9679,-3.9679,-3.9602,-3.9156,-3.8652,-3.815,-3.8099,-3.7687,0.0,0.0,0.0,0.0,0.0,0.0,0.0,0.0,-3.7052,-3.7631,-3.787,-3.8201,-3.8562,-3.8618,-3.8082,-3.727,-3.655,-3.5982,-3.5449,-3.5001,-3.4792,-3.4711,-3.4711,-3.4689,-3.4666,-3.473,-3.4772,-3.4907,-3.5569,-3.5859,-3.5987,-3.6051,-3.6075,-3.5968,-3.5449,-3.5334,-3.5334,-3.5347,-3.5451,-3.556,-3.5608,-3.5669,-3.5339,-3.4061,-3.4429,-3.4477,0.0,0.0,0.0,0.0,0.0,0.0,-3.2512,0.0,-3.0872,0.0,0.0,0.0,0.0,0.0,0.0,0.0,0.0,0.0,-3.2752,0.0,-3.4301,-3.4468,-3.4122,-3.3738,-3.3312,-3.2867,-3.2401,-3.19,-3.1687,-3.2375,-3.3782,-3.4454,-3.5682,-3.7194,-3.7194,-3.7701,-3.8558,-3.9084,-3.9493,-3.9864,-4.0393,-4.1008,-4.154,-4.4176,0.0,-4.3183,0.0,-4.3828,-4.3421,-4.2716,-4.2465,-4.1848,-4.0442,-3.9981,-3.9829,-3.9832,-3.9941,-3.9941,-3.9826,-3.992,-3.9918,-3.9679,-3.9528,-3.9422,-3.9368,-3.8561,0.0,-3.8461,-3.8274,-3.8142,-3.808,-3.7776,0.0,0.0,0.0,0.0,0.0,-3.8194,-3.8442,-3.898,-3.8893,-3.9053,-3.9308,-3.8649,-3.8141,-3.7638,-3.6547,-3.6006,-3.5723,-3.519,-3.4944,-3.4851,-3.4851,-3.4812,-3.4753,-3.4773,-3.487,-3.5167,-3.616,-3.6594,-3.6749,-3.6774,-3.6786,-3.6559,-3.5407,-3.5156,-3.5164,-3.5152,-3.5245,-3.5416,-3.5669,-3.5782,-3.5523,-3.4614,-3.4715,-3.4652,-3.3856,0.0,0.0,0.0,0.0,0.0,-3.2707,-3.1992,-3.122,-3.0375,-2.9589,0.0,0.0,0.0,0.0,0.0,0.0,0.0,0.0,0.0,0.0,0.0,-3.3799,-3.3365,-3.333,-3.2741,-3.2155,-3.1623,-3.2063,-3.2632,-3.3366,-3.4999,-3.6137,-3.6824,-3.6824,-3.7487,-3.8558,-3.9182,-3.9727,-4.0292,-4.1149,-4.1461,-4.1461,-4.5323,-4.4728,-4.4495,-4.515,-4.4632,-4.4018,-4.3814,-4.3047,-4.2191,-4.1392,-4.0712,-4.0233,-4.0022,-4.0002,-3.9941,-3.9826,-3.992,-3.9941,-3.9804,-3.9047,-3.8679,0.0,0.0,-3.7566,-3.7909,-3.8805,-3.896,-3.8306,0.0,0.0,-3.8205,0.0,-3.8575,-3.9463,-3.9051,-3.9373,-4.0156,-3.9813,-3.981,-3.9906,-3.8965,-3.8193,-3.7523,-3.6632,-3.5759,-3.5016,-3.4997,-3.4997,-3.4997,-3.4997,-3.5049,-3.5064,-3.4851,-3.4944,-3.5302,-3.6305,-3.6691,-3.6833,-3.6948,-3.7045,-3.6673,-3.4944,-3.4567,-3.4581,-3.4536,-3.4505,-3.4753,-3.5616,-3.5791,-3.5551,-3.4748,-3.5304,-3.5051,-3.2538,0.0,0.0,0.0,0.0,0.0,-3.2021,-3.117,-3.0353,-2.9402,-2.8651,0.0,0.0,0.0,0.0,0.0,0.0,0.0,-3.2894,-3.2902,0.0,-3.254,-3.2457,-3.2439,-3.2511,-3.2368,-3.2403,-3.2635,-3.3608,-3.3762,-3.3283,-3.4981,-3.5788,-3.5928,-3.5928,-3.6941,-3.85,-3.8519,-3.9571,-4.1188,-4.1987,-4.2299,-4.2299,-4.558,-4.5404,-4.5307,-4.5493,-4.5283,-4.4863,-4.4114,-4.3369,-4.2583,-4.1629,-4.0895,-4.0425,-4.0356,-4.0336,-4.0286,0.0,-4.0269,-3.9983,0.0,-3.8956,-3.8613,-3.8022,-3.7182,-3.7108,-3.7957,-3.7764,-3.8186,-3.9248,0.0,0.0,0.0,-3.9642,-4.0011,-4.025,-4.0077,-4.0063,-4.0189,-4.0081,-4.0081,-4.0002,-3.857,-3.7827,-3.7445,-3.6116,-3.5458,-3.5224,-3.5355,-3.535,-3.5264,-3.5264,-3.5278,-3.5297,-3.5273,-3.5326,-3.5689,-3.7293,-3.7829,-3.7909,-3.7947,-3.7976,-3.7586,-3.5877,-3.5022,-3.4754,-3.5314,-3.5449,-3.5554,-3.5871,-3.5934,-3.5866,-3.5597,-3.5772,-3.5694,-3.4895,-3.5385,0.0,0.0,0.0,0.0,-3.2803,-3.1461,-3.0476,0.0,-3.0077,0.0,0.0,0.0,0.0,0.0,0.0,0.0,0.0,-3.4147,0.0,-3.4141,-3.2808,-3.2144,-3.2146,-3.0998,-3.0631,-3.0996,-3.1957,-3.2374,-3.241,-3.4089,-3.4894,-3.5109,-3.6298,-3.7116,-3.774,-3.8928,-3.9727,-4.0312,-4.1169,-4.1481,-4.1552,-4.5742,-4.5727,-4.5712,-4.5684,-4.5668,-4.5459,-4.4836,-4.3847,-4.2938,-4.2285,-4.1219,-4.0534,-4.0504,-4.0489,0.0,-4.0306,-4.0425,-4.0044,-3.8956,-3.8666,-3.818,-3.7351,-3.6466,-3.6526,-3.7588,0.0,0.0,-3.9217,-3.8986,-3.9306,-4.014,-4.0593,-4.0773,-4.0711,-4.0623,-4.0521,-4.0389,-4.0307,-4.0134,-3.9777,-3.8389,-3.7679,-3.7267,-3.596,-3.546,-3.5474,-3.5591,-3.5577,-3.5507,-3.5507,-3.5526,-3.5553,-3.5612,-3.5847,-3.6366,-3.7501,-3.8123,-3.8363,-3.8034,-3.7953,-3.7545,-3.584,-3.5014,-3.4775,-3.5337,-3.5703,-3.5945,-3.5996,-3.5732,-3.5607,-3.5942,-3.5724,-3.5626,-3.5958,-3.5963,-3.5802,-3.5462,0.0,0.0,0.0,0.0,0.0,0.0,-3.0272,-3.0421,0.0,0.0,0.0,0.0,0.0,0.0,-3.4461,-3.4508,0.0,-3.4167,-3.2402,-3.1553,-3.1615,-3.0358,-2.9905,-3.0209,-3.1167,-3.1696,-3.196,-3.3635,-3.4434,-3.4678,-3.6099,-3.706,-3.7798,-3.8889,-3.9708,-4.039,-4.1247,-4.1364,-4.1253,-4.5814,-4.5814,0.0,0.0,-4.58,0.0,-4.58,-4.4427,-4.3336,-4.3226,-4.1726,-4.0636,-4.0504,-4.0489,-4.0441,-4.0323,0.0,0.0,0.0,-3.8142,-3.7414,-3.6755,-3.5875,-3.5879,-3.6891,-3.6986,-3.7478,-3.841,-3.9401,-4.0276,-4.1003,-4.0994,-4.0966,-4.0907,-4.0784,-4.0725,-4.0706,-4.0516,-4.0086,-3.9437,-3.8574,-3.7816,-3.7084,-3.6144,-3.5759,-3.5714,-3.5701,-3.5716,-3.5718,-3.5718,-3.5756,-3.5814,-3.5873,-3.6533,-3.7264,-3.7152,-3.7822,-3.8391,-3.754,-3.7292,-3.6889,-3.5197,-3.4792,-3.4763,-3.4703,-3.5371,-3.5996,-3.5996,-3.5351,-3.5038,-3.5843,-3.533,-3.5059,-3.5867,-3.5942,-3.56,-3.4718,0.0,0.0,0.0,0.0,0.0,0.0,-2.9647,-2.9971,0.0,0.0,0.0,0.0,0.0,-3.3555,-3.4783,-3.4144,-3.3487,-3.2934,-3.1502,-3.0843,-3.0904,-3.0288,-3.0019,-3.0128,-3.1076,-3.1595,-3.1806,-3.3439,-3.4236,-3.4477,-3.5429,-3.6851,-3.8488,-3.8552,-3.9604,-4.1182,-4.2,-4.1825,-4.1402,0.0,0.0,-4.5867,-4.5814,-4.58,-4.58,-4.58,-4.4849,-4.3916,-4.3284,-4.2221,-4.1254,-4.0581,-4.0489,-4.0489,-4.0457,-3.9915,-3.8916,-3.7348,-3.7079,-3.6642,-3.5919,-3.5709,-3.5764,-3.6076,-3.6148,-3.6943,-3.8477,-3.9973,-4.0811,-4.1006,-4.0999,-4.0985,-4.0966,-4.0937,-4.0927,-4.0927,-4.0886,-4.077,-4.0558,-3.9733,-3.8866,-3.8001,-3.7112,-3.6351,-3.5771,-3.5776,-3.5811,-3.586,-3.586,-3.5821,-3.5918,-3.6587,-3.7397,-3.7984,-3.7357,-3.8277,-3.9304,-3.843,-3.8179,-3.7923,-3.685,-3.6124,-3.5519,-3.4843,-3.5371,-3.5996,-3.5996,-3.584,-3.5762,-3.5956,-3.5838,-3.576,-3.5963,-3.5449,-3.4904,-3.4647,-3.3335,0.0,0.0,-3.1951,-3.1452,-3.1396,-3.146,-3.1286,0.0,0.0,0.0,0.0,-3.3111,-3.3643,-3.5055,-3.468,-3.4085,-3.3296,-3.2224,-3.1084,-2.9945,-2.983,-2.9888,-3.0109,-3.0452,-3.0706,-3.0935,-3.2016,-3.2854,-3.3631,-3.5174,-3.6789,-3.8345,-3.9124,-4.0042,-4.1054,-4.1974,-4.2147,-4.2168,-4.5964,-4.5953,-4.5922,-4.5905,-4.5886,-4.5886,-4.5886,-4.5125,-4.4374,-4.3902,-4.2676,-4.1636,-4.1143,-4.0785,-4.0444,-4.0039,-3.9557,-3.8719,-3.7392,-3.693,-3.6388,-3.567,-3.5687,-3.5757,-3.584,-3.5878,-3.6772,-3.8541,-3.9867,-4.0687,-4.1055,-4.1046,-4.1025,-4.0991,-4.0993,-4.101,-4.0993,-4.1,-4.0778,-4.0368,-3.9964,-3.9013,-3.7809,-3.7338,-3.6597,-3.5851,-3.5851,-3.5879,-3.5906,-3.5903,-3.6146,-3.6516,-3.7,-3.8014,-3.8877,-3.8049,-3.8747,-3.9608,-3.8734,-3.8216,-3.7689,-3.6859,-3.6299,-3.5833,-3.5394,-3.5654,-3.5993,-3.5996,-3.5684,-3.5527,-3.5937,-3.5664,-3.553,-3.5883,-3.5212,-3.4477,-3.399,-3.2986,0.0,-3.2589,-3.2444,-3.2276,-3.2079,-3.2075,-3.1893,-3.1433,0.0,0.0,-3.3863,-3.4092,-3.4272,-3.445,-3.4317,-3.375,-3.2713,-3.1933,-3.096,-2.9787,-2.9886,-3.0041,-3.0241,-3.0344,-3.0442,-3.0597,-3.1476,-3.2372,-3.3305,-3.4645,-3.6414,-3.8307,-3.8857,-3.9809,-4.0956,-4.1877,-4.1936,-4.1849,-4.5977,-4.5899,-4.5861,-4.5977,-4.5997,-4.5997,-4.5997,-4.5359,-4.4802,-4.4614,-4.3139,-4.2009,-4.1828,-4.1147,-4.041,-3.9683,-3.945,-3.897,-3.8103,-3.7236,-3.6479,-3.592,-3.5786,-3.5765,-3.5872,-3.6025,-3.6925,-3.8594,-3.9453,-4.0312,-4.1113,-4.1113,-4.1089,-4.1012,-4.089,-4.0818,-4.0805,-4.0676,-4.0194,-3.9512,-3.957,-3.8612,-3.7184,-3.7162,-3.6625,-3.5866,-3.589,-3.5885,-3.5894,-3.5908,-3.6393,-3.7014,-3.713,-3.8296,-3.948,-3.8869,-3.9283,-3.9783,-3.892,-3.8146,-3.7331,-3.6414,-3.6123,-3.6079,-3.6016,-3.6001,-3.5994,-3.5992,-3.541,-3.5117,-3.5859,-3.5409,-3.5064,-3.5615,-3.5087,-3.4221,-3.3087,0.0,-3.2607,-3.2155,-3.2675,-3.287,-3.2355,-3.2419,-3.2387,-3.2128,-3.291,-3.3787,0.0,-3.5169,-3.4914,-3.3767,-3.3726,-3.3125,-3.1837,-3.1186,-3.0585,-3.0037,-3.0155,-3.026,-3.0398,-3.0462,-3.0501,-3.0568,-3.1448,-3.2356,-3.3261,-3.4126,-3.5891,-3.8093,-3.821,-3.9218,-4.0738,-4.1884,-4.1826,-4.1532,-4.5938,-4.5491,-4.52,-4.588,-4.5997,-4.5997,-4.5997,-4.5789,-4.5369,-4.4692,-4.3616,-4.2653,-4.1952,-4.1189,-4.0681,-4.0591,-3.9901,-3.9127,-3.8313,-3.7441,-3.6909,-3.6794,-3.6151,-3.5795,-3.5826,-3.6644,-3.7581,-3.8594,-3.9414,-4.0293,-4.1172,-4.1172,-4.1152,-4.1053,-4.0312,-3.998,-3.9949,-3.9199,-3.8815,-3.8683,-3.8641,-3.8011,-3.7109,-3.7042,-3.6481,-3.5735,-3.5795,-3.5818,-3.5814,-3.5888,-3.5954,-3.614,-3.6887,-3.7819,-3.8732,-3.9344,-4.0081,-4.0565,-3.9799,-3.9413,-3.8879,-3.7381,-3.696,-3.6757,-3.6148,-3.5992,-3.6002,-3.5992,-3.5884,-3.584,-3.5976,-3.5899,-3.5573,-3.4917,-3.4685,-3.4012,-3.2326,0.0,-3.2375,-3.3011,-3.3232,-3.3301,-3.321,-3.3853,-3.3682,-3.221,-3.2911,-3.3757,-3.4569,-3.4707,-3.4605,-3.4292,-3.4019,-3.3115,-3.1488,-3.0715,-3.0265,-3.0157,-3.019,-3.0266,-3.0398,-3.0404,-3.0482,-3.0632,-3.1565,-3.2438,-3.3266,-3.4071,-3.5461,-3.7114,-3.7839,-3.8748,-3.9908,-4.2371,-4.3128,-4.3194,-4.5375,-4.4724,-4.4219,-4.4588,-4.5045,-4.5345,-4.5312,-4.5577,-4.5476,-4.4617,-4.4052,-4.3269,-4.2039,-4.1641,-4.1288,-4.0888,-4.0546,-4.0193,-3.9832,-3.8054,-3.7017,-3.7053,-3.625,-3.5826,-3.584,-3.6774,-3.744,-3.7848,-3.8728,-3.9609,-4.0449,-4.0488,-4.0723,-4.1133,-4.072,-4.0267,-3.9774,-3.937,-3.8902,-3.8442,-3.8408,-3.787,-3.7046,-3.7017,-3.6464,-3.5708,-3.5784,-3.5775,-3.5757,-3.5785,-3.6396,-3.7133,-3.7017,-3.7918,-3.8984,-3.8907,-3.9859,-4.0723,-3.9917,-3.9654,-3.9217,-3.7558,-3.7102,-3.6852,-3.6117,-3.5947,-3.6084,-3.6596,-3.6337,-3.6135,-3.6601,-3.6323,-3.5851,-3.5372,-3.4516,0.0,0.0,-3.294,-3.2843,-3.3196,-3.3686,-3.3628,-3.2681,-3.2953,-3.3031,-3.2667,-3.3031,-3.3848,-3.5125,-3.5182,-3.4964,-3.4471,-3.3328,-3.2095,-3.0828,-3.0444,-3.0287,-3.0372,-3.0835,-3.1128,-3.1283,-3.1756,-3.1995,-3.2078,-3.2509,-3.3161,-3.3921,-3.4255,-3.5646,-3.7539,-3.743,-3.8473,-4.0146,-4.0989,-4.1853,-4.2802,-4.4625,-4.3877,-4.3287,-4.3471,-4.4219,-4.476,-4.4738,-4.5344,-4.5582,-4.4863,-4.4365,-4.3597,-4.2396,-4.1997,-4.1587,-4.0999,-4.1045,-4.111,-4.111,-3.893,-3.7672,-3.772,-3.6689,-3.6048,-3.5908,-3.6557,-3.7005,-3.72,-3.7909,-3.8709,-3.9512,-3.957,-3.9941,-4.0586,-4.0371,-3.9893,-3.9195,-3.899,-3.8462,-3.7782,-3.7786,-3.7326,-3.6677,-3.6656,-3.6237,-3.5665,-3.5718,-3.5728,-3.5707,-3.5921,-3.6871,-3.7878,-3.737,-3.8257,-3.9321,-3.845,-3.9331,-4.048,-3.9982,-3.9843,-3.9437,-3.7793,-3.7327,-3.7042,-3.6105,-3.6064,-3.6415,-3.7122,-3.6762,-3.6512,-3.7179,-3.659,-3.5908,-3.5636,0.0,0.0,0.0,-3.3815,-3.3483,-3.3214,-3.3771,-3.3584,-3.2042,-3.2081,-3.2441,-3.3052,-3.335,-3.4124,-3.5627,-3.5706,-3.5334,-3.4534,-3.2721,-3.1329,-3.0433,-3.0424,-3.0568,-3.087,-3.156,-3.2023,-3.2361,-3.3002,-3.3293,-3.3313,-3.3507,-3.3934,-3.4517,-3.466,-3.5989,-3.7862,-3.7339,-3.8447,-4.032,-4.0101,-4.101,-4.2492,-4.3782,-4.3024,-4.2623,-4.3364,-4.4167,-4.4738,-4.4773,-4.5417,-4.5893,-4.5878,-4.4416,-4.3377,-4.3374,-4.1945,-4.1007,-4.1078,-4.1085,-4.111,-4.111,-4.015,-3.9598,-3.9604,-3.7987,-3.6721,-3.5928,-3.5967,-3.6401,-3.72,-3.7269,-3.7783,-3.8691,-3.8691,-3.873,-3.8769,-3.7949,-3.7555,-3.7432,-3.6557,-3.6119,-3.5986,-3.592,-3.5824,-3.5697,-3.5618,-3.5559,-3.5515,-3.5591,-3.5616,-3.5732,-3.6543,-3.6903,-3.7135,-3.7878,-3.8748,-3.934,-3.847,-3.8868,-3.9751,-4.0435,-4.0559,-4.0153,-3.8608,-3.8161,-3.7715,-3.6236,-3.6512,-3.7116,-3.718,-3.7219,-3.7214,-3.7298,-3.6594,-3.5708,-3.4832,0.0,0.0,-3.3518,-3.3942,-3.4089,-3.3216,-3.3149,-3.2867,-3.1984,-3.2624,-3.3109,-3.3111,-3.3847,-3.4729,-3.565,-3.5698,-3.5341,-3.453,-3.2851,-3.1581,-3.0774,-3.0759,-3.1177,-3.1987,-3.2059,-3.2504,-3.3293,-3.3305,-3.3305,-3.3344,-3.4089,-3.4439,-3.4556,-3.5366,-3.6241,-3.7172,-3.7829,-3.8698,-3.9774,-4.1338,-4.2521,-4.3521,-4.2893,-4.2171,-4.1642,-4.1906,-4.3101,-4.3996,-4.3928,-4.5082,-4.5759,-4.5196,-4.4998,-4.4544,-4.3598,-4.2907,-4.233,-4.1883,-4.1383,-4.111,-4.111,-4.0799,-4.0117,-3.9045,-3.7837,-3.7058,-3.6707,-3.6181,-3.6323,-3.72,-3.6654,-3.7123,-3.8525,-3.8024,-3.8086,-3.8594,-3.8242,-3.7812,-3.726,-3.6832,-3.6301,-3.5721,-3.5659,-3.5601,-3.5541,-3.552,-3.5493,-3.5565,-3.6145,-3.6344,-3.6479,-3.7353,-3.799,-3.8415,-3.8163,-3.867,-3.9306,-3.8979,-3.9113,-3.9538,-4.0347,-4.0593,-4.0339,-3.9303,-3.8626,-3.7948,-3.6936,-3.6532,-3.6551,-3.7141,-3.6845,-3.6653,-3.7192,-3.6594,-3.5879,-3.5468,0.0,-3.4982,-3.478,-3.4567,-3.4283,-3.3877,-3.3374,-3.2715,-3.1851,-3.2083,-3.2469,-3.2941,-3.377,-3.4658,-3.5526,-3.5657,-3.5301,-3.4462,-3.3371,-3.2397,-3.1552,-3.1597,-3.1776,-3.2104,-3.3193,-3.3862,-3.416,-3.4675,-3.4912,-3.4936,-3.5236,-3.5371,-3.543,-3.6257,-3.7097,-3.7899,-3.8161,-3.9127,-4.0389,-4.056,-4.1869,-4.3604,-4.2045,-4.149,-4.1052,-4.1013,-4.2416,-4.3519,-4.3471,-4.491,-4.5774,-4.5181,-4.5375,-4.5162,-4.407,-4.3447,-4.2891,-4.2351,-4.1559,-4.111,-4.111,-4.111,-4.0448,-3.8967,-3.8344,-3.7896,-3.7603,-3.7019,-3.7005,-3.7615,-3.7004,-3.7191,-3.8108,-3.7533,-3.7441,-3.7749,-3.7749,-3.7415,-3.6855,-3.6754,-3.6345,-3.5735,-3.5658,-3.5596,-3.5534,-3.5507,-3.5661,-3.5968,-3.6562,-3.6914,-3.7252,-3.8161,-3.8821,-3.9215,-3.8892,-3.9008,-3.9296,-3.9296,-3.9296,-3.9411,-3.9969,-4.0164,-4.0094,-3.9584,-3.8651,-3.7705,-3.7272,-3.6746,-3.6523,-3.7164,-3.6811,-3.6577,-3.7159,-3.6554,-3.5942,-3.5904,-3.5363,-3.5108,-3.564,-3.5193,-3.4671,-3.4322,-3.3751,-3.3022,-3.216,-3.2083,-3.2429,-3.3256,-3.3853,-3.4584,-3.5449,-3.562,-3.5387,-3.4796,-3.407,-3.3418,-3.2812,-3.2348,-3.2371,-3.2929,-3.4129,-3.4812,-3.5062,-3.5662,-3.5931,-3.5942,-3.5905,-3.5891,-3.593,-3.6501,-3.7397,-3.8435,-3.8388,-3.9416,-4.0866,-4.031,-4.159,-4.3596,-4.1266,-4.1052,-4.0999,-4.0999,-4.2332,-4.3442,-4.3569,-4.4965,-4.6046,-4.6169,-4.5436,-4.491,-4.489,-4.3351,-4.2318,-4.2299,-4.1559,-4.111,-4.111,-4.111,-4.0721,-3.9844,-3.9805,-3.9396,-3.8525,-3.8505,-3.8511,-3.8516,-3.8494,-3.8084,-3.7324,-3.7245,-3.6736,-3.5908,-3.5908,-3.5914,-3.5903,-3.5903,-3.5854,-3.5794,-3.5728,-3.5654,-3.5591,-3.5534,-3.6007,-3.6699,-3.6719,-3.7183,-3.795,-3.8977,-3.918,-3.9176,-4.0188,-3.995,-3.9296,-3.9296,-3.9296,-3.9296,-3.9296,-3.9336,-3.9372,-3.9399,-3.8201,-3.7011,-3.7094,-3.7194,-3.729,-3.7285,-3.7295,-3.7278,-3.7191,-3.6479,-3.5892,-3.5903,-3.5891,-3.585,-3.5728,-3.5707,-3.5325,-3.4321,-3.4199,-3.3853,-3.2987,-3.291,-3.3276,-3.4122,-3.4199,-3.4584,-3.5468,-3.5577,-3.5607,-3.5607,-3.4958,-3.4612,-3.461,-3.2945,-3.2982,-3.4703,-3.4704,-3.5156,-3.5996,-3.5996,-3.5996,-3.5996,-3.5932,-3.5908,-3.5908,-3.5927,-3.6946,-3.851,-3.8528,-3.9543,-4.0996,-4.0994,-4.2107,-4.3593,-4.1149,-4.1085,-4.1059,-4.1059,-4.2447,-4.3362,-4.2773,-4.4655,-4.5947,-4.5358,-4.5592,-4.5572,-4.4968,-4.3897,-4.2981,-4.2357,-4.1559,-4.111,-4.111,-4.111,-4.0974,-4.0721,-4.0136,-3.9688,-3.9409,-3.8814,-3.879,-3.9414,-3.8183,-3.8079,-3.8961,-3.7758,-3.705,-3.6813,-3.6806,-3.6467,-3.5904,-3.5842,-3.5815,-3.5796,-3.5673,-3.5628,-3.5591,-3.5534,-3.5661,-3.6007,-3.7199,-3.7363,-3.7348,-3.9435,-3.9742,-3.9365,-4.0239,-4.0335,-4.0142,-4.0142,-3.9738,-3.9311,-3.9355,-3.8497,-3.7881,-3.9146,-3.8225,-3.7026,-3.7137,-3.6723,-3.6339,-3.6372,-3.6396,-3.6367,-3.6298,-3.6073,-3.5885,-3.5833,-3.5833,-3.5786,-3.5651,-3.5639,-3.5507,-3.5155,-3.4564,-3.4103,-3.3833,-3.3814,-3.391,-3.418,-3.4688,-3.5364,-3.6281,-3.5732,-3.5457,-3.5608,-3.4904,-3.4807,-3.5446,-3.4425,-3.4189,-3.472,-3.5323,-3.5742,-3.5996,-3.5996,-3.5991,-3.5997,-3.5976,-3.6324,-3.6929,-3.7535,-3.8452,-3.9548,-4.0103,-4.0625,-4.1061,-4.107,-4.2143,-4.3602,-4.1097,-4.111,-4.111,-4.111,-4.2221,-4.2942,-4.2409,-4.3975,-4.5144,-4.4968,-4.5397,-4.5514,-4.5007,-4.4169,-4.3293,-4.2416,-4.1578,-4.111,-4.111,-4.111,-4.1103,-4.1106,-4.0596,-4.0312,-4.0305,-3.9799,-3.9808,-4.0348,-3.8938,-3.8575,-3.9201,-3.816,-3.7498,-3.7161,-3.7168,-3.6867,-3.6362,-3.595,-3.5786,-3.5747,-3.5643,-3.5596,-3.5591,-3.5534,-3.5699,-3.6161,-3.7507,-3.7632,-3.7429,-3.9358,-3.97,-3.9373,-3.9873,-4.0239,-4.0431,-4.0104,-3.9711,-3.9278,-3.8973,-3.7906,-3.7135,-3.8236,-3.7511,-3.6638,-3.706,-3.6504,-3.5908,-3.5955,-3.5962,-3.5952,-3.5914,-3.5898,-3.5885,-3.5805,-3.5786,-3.5611,-3.5187,-3.5094,-3.5065,-3.5001,-3.4526,-3.4334,-3.468,-3.4718,-3.4853,-3.5161,-3.559,-3.6108,-3.6666,-3.6152,-3.5757,-3.5534,-3.509,-3.5262,-3.6161,-3.5788,-3.5472,-3.5226,-3.5752,-3.6001,-3.6003,-3.6366,-3.6511,-3.6507,-3.6511,-3.7006,-3.7832,-3.7987,-3.8752,-3.9899,-4.037,-4.076,-4.1059,-4.1038,-4.2108,-4.361,-4.1106,-4.1103,-4.1097,-4.1097,-4.1824,-4.237,-4.2299,-4.3085,-4.3981,-4.478,-4.4878,-4.4878,-4.4878,-4.4118,-4.3241,-4.2364,-4.1559,-4.111,-4.111,-4.111,-4.1095,-4.1085,-4.1106,-4.1091,-4.1091,-4.1103,-4.1133,-4.1191,-4.0257,-3.9396,-3.8602,-3.8469,-3.7933,-3.7106,-3.7109,-3.7061,-3.6925,-3.6148,-3.5773,-3.5679,-3.5629,-3.5593,-3.5591,-3.5534,-3.6007,-3.6815,-3.77,-3.7913,-3.7967,-3.8958,-3.9354,-3.9411,-3.9411,-3.9854,-4.0254,-3.9523,-3.9239,-3.9025,-3.8311,-3.7514,-3.691,-3.7075,-3.6503,-3.6096,-3.6833,-3.6421,-3.5929,-3.5996,-3.5951,-3.5953,-3.609,-3.6,-3.591,-3.5904,-3.5794,-3.5418,-3.4612,-3.4384,-3.4294,-3.4308,-3.4237,-3.4545,-3.543,-3.5584,-3.5988,-3.6873,-3.6858,-3.6839,-3.6916,-3.6825,-3.6421,-3.5614,-3.5597,-3.5958,-3.6752,-3.6956,-3.6768,-3.6207,-3.6202,-3.6216,-3.6241,-3.7045,-3.7407,-3.741,-3.7403,-3.7894,-3.863,-3.7787,-3.8403,-3.9888,-3.9835,-4.0346,-4.1101,-4.1023,-4.2149,-4.3716,-4.111,-4.1094,-4.1097,-4.1097,-4.1819,-4.2171,-4.1488,-4.2694,-4.3767,-4.3966,-4.3981,-4.3981,-4.3981,-4.3197,-4.2338,-4.1471,-4.1206,-4.111,-4.111,-4.111,-4.1084,-4.1013,-4.1067,-4.1086,-4.1028,-4.1114,-4.1169,-4.1113,-4.023,-3.97,-3.9507,-3.8749,-3.7925,-3.7092,-3.71,-3.6712,-3.6071,-3.5877,-3.5773,-3.5679,-3.5629,-3.5593,-3.5591,-3.5534,-3.6007,-3.6815,-3.77,-3.7973,-3.8093,-3.9008,-3.9719,-4.0239,-4.0239,-3.9931,-3.9542,-3.9408,-3.842,-3.7495,-3.8086,-3.7091,-3.625,-3.7666,-3.7325,-3.657,-3.6239,-3.6035,-3.6098,-3.6787,-3.6387,-3.6292,-3.7611,-3.6787,-3.6105,-3.672,-3.6182,-3.5611,-3.5366,-3.4751,-3.4526,-3.5141,-3.4622,-3.4545,-3.543,-3.6084,-3.7084,-3.8623,-3.8009,-3.7865,-3.8534,-3.7838,-3.733,-3.7141,-3.7064,-3.7125,-3.7243,-3.7411,-3.7558,-3.7721,-3.7871,-3.7966,-3.7966,-3.8144,-3.8246,-3.8234,-3.8247,-3.8727,-3.9529,-3.9321,-3.9824,-4.0733,-4.0675,-4.117,-4.1916,-4.1856,-4.2955,-4.4569,-4.1152,-4.1151,-4.1146,-4.1146,-4.1517,-4.1673,-4.1224,-4.1925,-4.2648,-4.3021,-4.3431,-4.3546,-4.3136,-4.3049,-4.2502,-4.1203,-4.1103,-4.111,-4.111,-4.1038,-4.0999,-4.0994,-4.1,-4.1006,-4.1006,-4.1485,-4.1518,-4.1094,-3.9805,-3.9174,-3.916,-3.8246,-3.7571,-3.7092,-3.71,-3.6848,-3.6401,-3.5974,-3.5773,-3.5737,-3.5718,-3.5678,-3.5635,-3.5572,-3.6048,-3.6864,-3.7695,-3.8277,-3.8623,-3.8661,-3.9238,-3.9931,-3.9931,-3.9653,-3.9259,-3.8896,-3.8177,-3.7456,-3.7182,-3.7007,-3.7017,-3.755,-3.7598,-3.7325,-3.6539,-3.6692,-3.7039,-3.7131,-3.7092,-3.7318,-3.8233,-3.7681,-3.7082,-3.7109,-3.6639,-3.5979,-3.5134,-3.4593,-3.4411,-3.4834,-3.4834,-3.5315,-3.6565,-3.7065,-3.7873,-3.92,-3.8808,-3.8684,-3.9073,-3.8551,-3.8023,-3.7566,-3.7353,-3.7438,-3.7838,-3.8041,-3.8416,-3.9004,-3.8561,-3.84,-3.8475,-3.8915,-3.9102,-3.9064,-3.9103,-3.9604,-4.0337,-3.9967,-4.0278,-4.0984,-4.0937,-4.141,-4.2136,-4.2075,-4.3183,-4.483,-4.1191,-4.1191,-4.1191,-4.1191,-4.1191,-4.1191,-4.1191,-4.1191,-4.1484,-4.2285,-4.291,-4.3047,-4.2458,-4.2917,-4.2678,-4.1234,-4.1085,-4.1078,-4.1078,-4.0943,-4.0917,-4.0968,-4.0926,-4.0917,-4.0956,-4.1849,-4.1909,-4.1073,-3.9804,-3.8945,-3.8476,-3.7758,-3.723,-3.6884,-3.6878,-3.6869,-3.6802,-3.6093,-3.5793,-3.5775,-3.5803,-3.5756,-3.5699,-3.5637,-3.6192,-3.7114,-3.7775,-3.8657,-3.9392,-3.8661,-3.8926,-3.9518,-3.9518,-3.9369,-3.9058,-3.8338,-3.8114,-3.7812,-3.658,-3.7239,-3.8181,-3.7763,-3.8015,-3.8202,-3.7464,-3.7777,-3.8082,-3.7605,-3.7907,-3.8384,-3.871,-3.8555,-3.813,-3.7375,-3.7045,-3.6372,-3.4823,-3.434,-3.4268,-3.4557,-3.5364,-3.6517,-3.8065,-3.8219,-3.8584,-3.9431,-3.9508,-3.9442,-3.9306,-3.9183,-3.8728,-3.7904,-3.7548,-3.7746,-3.8434,-3.8603,-3.9058,-3.9766,-3.8829,-3.8537,-3.8816,-3.9614,-3.9953,-3.9921,-3.9979,-4.0461,-4.1155,-4.0349,-4.049,-4.1205,-4.1141,-4.1595,-4.2341,-4.2574,-4.3582,-4.4975,-4.1191,-4.1191,-4.1191,-4.1191,-4.1191,-4.1191,-4.1191,-4.1191,-4.1484,-4.2285,-4.1894,-4.1753,-4.2339,-4.1835,-4.1367,-4.1117,-4.0991,-4.0921,-4.0921,-4.0869,-4.0807,-4.0834,-4.0867,-4.0877,-4.0837,-4.1791,-4.1871,-4.1012,-4.1597,-4.0723,-3.8496,-3.8378,-3.7477,-3.5988,-3.5978,-3.5911,-3.5794,-3.5795,-3.5757,-3.5728,-3.5784,-3.5765,-3.5708,-3.5699,-3.6624,-3.7945,-3.8048,-3.9061,-4.0315,-4.02,-4.0265,-4.0419,-4.0419,-3.949,-3.8342,-3.8283,-3.7744,-3.7307,-3.7894,-3.8132,-3.8546,-3.994,-3.9715,-3.9109,-3.8994,-3.8569,-3.8393,-3.9034,-3.8623,-3.8566,-4.0024,-3.9182,-3.8156,-3.7919,-3.7324,-3.6563,-3.5577,-3.4614,-3.4557,-3.6017,-3.6955,-3.7923,-3.9027,-3.9123,-3.945,-4.0277,-4.0335,-4.0252,-4.0061,-4.0043,-3.9831,-3.9415,-3.9114,-3.8992,-3.8989,-3.8795,-3.8878,-3.9212,-3.918,-3.96,-4.0402,-4.0586,-4.0733,-4.0813,-4.0768,-4.1274,-4.2066,-4.119,-4.1346,-4.2116,-4.1985,-4.246,-4.3388,-4.4776,-4.5404,-4.5572,-4.1191,-4.1191,-4.1191,-4.1191,-4.1191,-4.1191,-4.1191,-4.1191,-4.1328,-4.168,-4.1816,-4.1829,-4.1752,-4.1324,-4.1023,-4.0988,-4.0897,-4.0849,-4.0849,-4.0784,-4.0757,-4.08,-4.0792,-4.0784,-4.0807,-4.2237,-4.2548,-4.1739,-4.1688,-4.1101,-3.998,-3.8504,-3.7366,-3.6508,-3.6026,-3.5737,-3.5618,-3.5728,-3.5775,-3.5756,-3.5823,-3.5845,-3.5818,-3.5768,-3.6502,-3.7598,-3.7998,-3.8607,-3.9206,-3.9232,-3.9554,-3.9986,-3.9986,-3.9514,-3.8991,-3.9014,-3.8782,-3.8497,-3.8459,-3.9044,-3.9716,-3.9998,-4.0003,-3.9906,-3.9906,-3.9977,-4.0057,-4.0056,-4.0086,-4.0347,-4.108,-4.0631,-3.9681,-3.8221,-3.77,-3.7019,-3.5784,-3.5407,-3.5885,-3.749,-3.8079,-3.876,-3.9813,-4.038,-4.0835,-4.12,-4.1681,-4.1671,-4.1033,-4.0903,-4.0556,-3.9889,-3.9526,-3.9272,-3.9156,-3.9027,-3.9008,-3.9045,-3.9301,-3.9721,-4.0265,-4.0439,-4.088,-4.1479,-4.1082,-4.1429,-4.2229,-4.1408,-4.1259,-4.1629,-4.2041,-4.2955,-4.415,-4.5327,-4.5731,-4.57]}]]